[[{"header":{"parameterUnit":"m.s-1","parameterCategory":1,"la1":30.6,"la2":28.766,"lo1":-90.7593,"lo2":-88.6598,"dx":0.0162,"dy":0.0183,"nx":116,"ny":114,"refTime":"2023-02-08T06:00:00:Z","depth":0,"parameterNumber":2,"parameterNumberName":"U-component_of_WINDS"},"data":[0.0,0.0,0.0,0.0,0.0,0.0,0.0,0.0,0.0,0.0,0.0,0.0,0.0,0.0,0.0,0.0,0.0,0.0,0.0,0.0,0.0,0.0,0.0,0.0,0.0,0.0,0.0,0.0,0.0,0.0,0.0,0.0,0.0,0.0,0.0,0.0,0.0,0.0,0.0,0.0,0.0,0.0,0.0,0.0,0.0,0.0,0.0,0.0,0.0,0.0,0.0,0.0,0.0,0.0,0.0,0.0,0.0,0.0,0.0,0.0,0.0,0.0,0.0,0.0,0.0,0.0,0.0,0.0,0.0,0.0,0.0,0.0,0.0,0.0,0.0,0.0,0.0,0.0,0.0,0.0,0.0,0.0,0.0,0.0,0.0,0.0,0.0,0.0,0.0,0.0,0.0,0.0,0.0,0.0,0.0,0.0,0.0,0.0,0.0,0.0,0.0,0.0,0.0,0.0,0.0,0.0,0.0,0.0,0.0,0.0,0.0,0.0,0.0,0.0,0.0,0.0,0.0,0.0,0.0,0.0,0.0,0.0,0.0,0.0,0.0,0.0,0.0,0.0,0.0,0.0,0.0,0.0,0.0,0.0,0.0,0.0,0.0,0.0,0.0,0.0,0.0,0.0,0.0,0.0,0.0,0.0,0.0,0.0,0.0,0.0,0.0,0.0,0.0,0.0,0.0,0.0,0.0,0.0,0.0,0.0,0.0,0.0,0.0,0.0,0.0,0.0,0.0,0.0,0.0,0.0,0.0,0.0,0.0,0.0,0.0,0.0,0.0,0.0,0.0,0.0,0.0,0.0,0.0,0.0,0.0,0.0,0.0,0.0,0.0,0.0,0.0,0.0,0.0,0.0,0.0,0.0,0.0,0.0,0.0,0.0,0.0,0.0,0.0,0.0,0.0,0.0,0.0,0.0,0.0,0.0,0.0,0.0,0.0,0.0,0.0,0.0,0.0,0.0,0.0,0.0,0.0,0.0,0.0,0.0,0.0,0.0,0.0,0.0,0.0,0.0,0.0,0.0,0.0,0.0,0.0,0.0,0.0,0.0,0.0,0.0,0.0,0.0,0.0,0.0,0.0,0.0,0.0,0.0,0.0,0.0,0.0,0.0,0.0,0.0,0.0,0.0,0.0,0.0,0.0,0.0,0.0,0.0,0.0,0.0,0.0,0.0,0.0,0.0,0.0,0.0,0.0,0.0,0.0,0.0,0.0,0.0,0.0,0.0,0.0,0.0,0.0,0.0,0.0,0.0,0.0,0.0,0.0,0.0,0.0,0.0,0.0,0.0,0.0,0.0,0.0,0.0,0.0,0.0,0.0,0.0,0.0,0.0,0.0,0.0,0.0,0.0,0.0,0.0,0.0,0.0,0.0,0.0,0.0,0.0,0.0,0.0,0.0,0.0,0.0,0.0,0.0,0.0,0.0,0.0,0.0,0.0,0.0,0.0,0.0,0.0,0.0,0.0,0.0,0.0,0.0,0.0,0.0,0.0,0.0,0.0,0.0,0.0,0.0,0.0,0.0,0.0,0.0,0.0,0.0,0.0,0.0,0.0,0.0,0.0,0.0,0.0,0.0,0.0,0.0,0.0,0.0,0.0,0.0,0.0,0.0,0.0,0.0,0.0,0.0,0.0,0.0,0.0,0.0,0.0,0.0,0.0,0.0,0.0,0.0,0.0,0.0,0.0,0.0,0.0,0.0,0.0,0.0,0.0,0.0,0.0,0.0,0.0,0.0,0.0,0.0,0.0,0.0,0.0,0.0,0.0,0.0,0.0,0.0,0.0,0.0,0.0,0.0,0.0,0.0,0.0,0.0,0.0,0.0,0.0,0.0,0.0,0.0,0.0,0.0,0.0,0.0,0.0,0.0,0.0,0.0,0.0,0.0,0.0,0.0,0.0,0.0,0.0,0.0,0.0,0.0,0.0,0.0,0.0,0.0,0.0,0.0,0.0,0.0,0.0,0.0,0.0,0.0,0.0,0.0,0.0,0.0,0.0,0.0,0.0,0.0,0.0,0.0,0.0,0.0,0.0,0.0,0.0,0.0,0.0,0.0,0.0,0.0,0.0,0.0,0.0,0.0,0.0,0.0,0.0,0.0,0.0,0.0,0.0,0.0,0.0,0.0,0.0,0.0,0.0,0.0,0.0,0.0,0.0,0.0,0.0,0.0,0.0,0.0,0.0,0.0,0.0,0.0,0.0,0.0,0.0,0.0,0.0,0.0,0.0,0.0,0.0,0.0,0.0,0.0,0.0,0.0,0.0,0.0,0.0,0.0,0.0,0.0,0.0,0.0,0.0,0.0,0.0,0.0,0.0,0.0,0.0,0.0,0.0,0.0,0.0,0.0,0.0,0.0,0.0,0.0,0.0,0.0,0.0,0.0,0.0,0.0,0.0,0.0,0.0,0.0,0.0,0.0,0.0,0.0,0.0,0.0,0.0,0.0,0.0,0.0,0.0,0.0,0.0,0.0,0.0,0.0,0.0,0.0,0.0,0.0,0.0,0.0,0.0,0.0,0.0,0.0,0.0,0.0,0.0,0.0,0.0,0.0,0.0,0.0,0.0,0.0,0.0,0.0,0.0,0.0,0.0,0.0,0.0,0.0,0.0,0.0,0.0,0.0,0.0,0.0,0.0,0.0,0.0,0.0,0.0,0.0,0.0,0.0,0.0,0.0,0.0,0.0,0.0,0.0,0.0,0.0,0.0,0.0,0.0,0.0,0.0,0.0,0.0,0.0,0.0,0.0,0.0,0.0,0.0,0.0,0.0,0.0,0.0,0.0,0.0,0.0,0.0,0.0,0.0,0.0,0.0,0.0,0.0,0.0,0.0,0.0,0.0,0.0,0.0,0.0,0.0,0.0,0.0,0.0,0.0,0.0,0.0,0.0,0.0,0.0,0.0,0.0,0.0,0.0,0.0,0.0,0.0,0.0,0.0,0.0,0.0,0.0,0.0,0.0,0.0,0.0,0.0,0.0,0.0,0.0,0.0,0.0,0.0,0.0,0.0,0.0,0.0,0.0,0.0,0.0,0.0,0.0,0.0,0.0,0.0,0.0,0.0,0.0,0.0,0.0,0.0,0.0,0.0,0.0,0.0,0.0,0.0,0.0,0.0,0.0,0.0,0.0,0.0,0.0,0.0,0.0,0.0,0.0,0.0,0.0,0.0,0.0,0.0,0.0,0.0,0.0,0.0,0.0,0.0,0.0,0.0,0.0,0.0,0.0,0.0,0.0,0.0,0.0,0.0,0.0,0.0,0.0,0.0,0.0,0.0,0.0,0.0,0.0,0.0,0.0,0.0,0.0,0.0,0.0,0.0,0.0,0.0,0.0,0.0,0.0,0.0,0.0,0.0,0.0,0.0,0.0,0.0,0.0,0.0,0.0,0.0,0.0,0.0,0.0,0.0,0.0,0.0,0.0,0.0,0.0,0.0,0.0,0.0,0.0,0.0,0.0,0.0,0.0,0.0,0.0,0.0,0.0,0.0,0.0,0.0,0.0,0.0,0.0,0.0,0.0,0.0,0.0,0.0,0.0,0.0,0.0,0.0,0.0,0.0,0.0,0.0,0.0,0.0,0.0,0.0,0.0,0.0,0.0,0.0,0.0,0.0,0.0,0.0,0.0,0.0,0.0,0.0,0.0,0.0,0.0,0.0,0.0,0.0,0.0,0.0,0.0,0.0,0.0,0.0,0.0,0.0,0.0,0.0,0.0,0.0,0.0,0.0,0.0,0.0,0.0,0.0,0.0,0.0,0.0,0.0,0.0,0.0,0.0,0.0,0.0,0.0,0.0,0.0,0.0,0.0,0.0,0.0,0.0,0.0,0.0,0.0,0.0,0.0,0.0,0.0,0.0,0.0,0.0,0.0,0.0,0.0,0.0,0.0,0.0,0.0,0.0,0.0,0.0,0.0,0.0,0.0,0.0,0.0,0.0,0.0,0.0,0.0,0.0,0.0,0.0,0.0,0.0,0.0,0.0,0.0,0.0,0.0,0.0,0.0,0.0,0.0,0.0,0.0,0.0,0.0,0.0,0.0,0.0,0.0,0.0,0.0,0.0,0.0,0.0,0.0,0.0,0.0,0.0,0.0,0.0,0.0,0.0,0.0,0.0,0.0,0.0,0.0,0.0,0.0,0.0,0.0,0.0,0.0,0.0,0.0,0.0,0.0,0.0,0.0,0.0,0.0,0.0,0.0,0.0,0.0,0.0,0.0,0.0,0.0,0.0,0.0,0.0,0.0,0.0,0.0,0.0,0.0,0.0,0.0,0.0,0.0,0.0,0.0,0.0,0.0,0.0,0.0,0.0,0.0,0.0,0.0,0.0,0.0,0.0,0.0,0.0,0.0,0.0,0.0,0.0,0.0,0.0,0.0,0.0,0.0,0.0,0.0,0.0,0.0,0.0,0.0,0.0,0.0,0.0,0.0,0.0,0.0,0.0,0.0,0.0,0.0,0.0,0.0,0.0,0.0,0.0,0.0,0.0,0.0,0.0,0.0,0.0,0.0,0.0,0.0,0.0,0.0,0.0,0.0,0.0,0.0,0.0,0.0,0.0,0.0,0.0,0.0,0.0,0.0,0.0,0.0,0.0,0.0,0.0,0.0,0.0,0.0,0.0,0.0,0.0,0.0,0.0,0.0,0.0,0.0,0.0,0.0,0.0,0.0,0.0,0.0,0.0,0.0,0.0,0.0,0.0,0.0,0.0,0.0,0.0,0.0,0.0,0.0,0.0,0.0,0.0,0.0,0.0,0.0,0.0,0.0,0.0,0.0,0.0,0.0,0.0,0.0,0.0,0.0,0.0,0.0,0.0,0.0,0.0,0.0,0.0,0.0,0.0,0.0,0.0,0.0,0.0,0.0,0.0,0.0,0.0,0.0,0.0,0.0,0.0,0.0,0.0,0.0,0.0,0.0,0.0,0.0,0.0,0.0,0.0,0.0,0.0,0.0,0.0,0.0,0.0,0.0,0.0,0.0,0.0,0.0,0.0,0.0,0.0,0.0,0.0,0.0,0.0,0.0,0.0,0.0,0.0,0.0,0.0,0.0,0.0,0.0,0.0,0.0,0.0,0.0,0.0,0.0,0.0,0.0,0.0,0.0,0.0,0.0,0.0,0.0,0.0,0.0,0.0,0.0,0.0,0.0,0.0,0.0,0.0,0.0,0.0,0.0,0.0,0.0,0.0,0.0,0.0,0.0,0.0,0.0,0.0,0.0,0.0,0.0,0.0,0.0,0.0,0.0,0.0,0.0,0.0,0.0,0.0,0.0,0.0,0.0,0.0,0.0,0.0,0.0,0.0,0.0,0.0,0.0,0.0,0.0,0.0,0.0,0.0,0.0,0.0,0.0,0.0,0.0,0.0,0.0,0.0,0.0,0.0,0.0,0.0,0.0,0.0,0.0,0.0,0.0,0.0,0.0,0.0,0.0,0.0,0.0,0.0,0.0,0.0,0.0,0.0,0.0,0.0,0.0,0.0,0.0,0.0,0.0,0.0,0.0,0.0,0.0,0.0,0.0,0.0,0.0,0.0,0.0,0.0,0.0,0.0,0.0,0.0,0.0,0.0,0.0,0.0,0.0,0.0,0.0,0.0,0.0,0.0,0.0,0.0,0.0,0.0,0.0,0.0,0.0,0.0,0.0,0.0,0.0,0.0,0.0,0.0,0.0,0.0,0.0,0.0,0.0,0.0,0.0,0.0,0.0,0.0,0.0,0.0,0.0,0.0,0.0,0.0,0.0,0.0,0.0,0.0,0.0,0.0,0.0,0.0,0.0,0.0,0.0,0.0,0.0,0.0,0.0,0.0,0.0,0.0,0.0,0.0,0.0,0.0,0.0,0.0,0.0,0.0,0.0,0.0,0.0,0.0,0.0,0.0,0.0,0.0,0.0,0.0,0.0,0.0,0.0,0.0,0.0,0.0,0.0,0.0,0.0,0.0,0.0,0.0,0.0,0.0,0.0,0.0,0.0,0.0,0.0,0.0,0.0,0.0,0.0,0.0,0.0,0.0,0.0,0.0,0.0,0.0,0.0,0.0,0.0,0.0,0.0,0.0,0.0,0.0,0.0,0.0,0.0,0.0,0.0,0.0,0.0,0.0,0.0,0.0,0.0,-0.2648,0.0,0.0,0.0,0.0,0.0,0.0,0.0,0.0,0.0,0.0,0.0,0.0,0.0,0.0,0.0,0.0,0.0,0.0,0.0,0.0,0.0,0.0,0.0,0.0,0.0,0.0,0.0,0.0,0.0,0.0,0.0,0.0,0.0,0.0,0.0,0.0,0.0,0.0,0.0,0.0,0.0,0.0,0.0,0.0,0.0,0.0,0.0,0.0,0.0,0.0,0.0,0.0,0.0,0.0,0.0,0.0,0.0,0.0,0.0,0.0,0.0,0.0,0.0,0.0,0.0,0.0,0.0,0.0,0.0,0.0,0.0,0.0,0.0,0.0,0.0,0.0,0.0,0.0,0.0,0.0,0.0,0.0,0.0,0.0,0.0,0.0,0.0,0.0,0.0,0.0,0.0,0.0,0.0,0.0,0.0,0.0,0.0,0.0,0.0,0.0,0.0,0.0,0.0,0.0,0.0,0.0,0.0,0.0,0.0,0.0,0.0,0.0,0.0,0.0,0.0,0.0,-0.2418,0.0,0.0,0.0,0.0,0.0,0.0,0.0,0.0,0.0,0.0,0.0,0.0,0.0,0.0,0.0,0.0,0.0,0.0,0.0,0.0,0.0,0.0,0.0,0.0,0.0,0.0,0.0,0.0,0.0,0.0,0.0,0.0,0.0,0.0,0.0,0.0,0.0,0.0,0.0,0.0,0.0,0.0,0.0,0.0,0.0,0.0,0.0,0.0,0.0,0.0,0.0,0.0,0.0,0.0,0.0,0.0,0.0,0.0,0.0,0.0,0.0,0.0,0.0,0.0,0.0,0.0,0.0,0.0,0.0,0.0,0.0,0.0,0.0,0.0,0.0,0.0,0.0,0.0,0.0,0.0,0.0,0.0,0.0,0.0,0.0,0.0,0.0,0.0,0.0,0.0,0.0,0.0,0.0,0.0,0.0,0.0,0.0,0.0,0.0,0.0,0.0,0.0,0.0,0.0,0.0,0.0,0.0,0.0,-0.1614,-0.1413,-0.1413,-0.111,-0.1043,-0.1177,-0.1682,-0.1783,-0.1614,-0.1951,0.0,0.0,0.0,0.0,0.0,0.0,0.0,0.0,0.0,0.0,0.0,0.0,0.0,0.0,0.0,0.0,0.0,0.0,0.0,0.0,0.0,0.0,0.0,0.0,0.0,0.0,0.0,0.0,0.0,0.0,0.0,0.0,0.0,0.0,0.0,0.0,0.0,0.0,0.0,0.0,0.0,0.0,0.0,0.0,0.0,0.0,0.0,0.0,0.0,0.0,0.0,0.0,0.0,0.0,0.0,0.0,0.0,0.0,0.0,0.0,0.0,0.0,0.0,0.0,0.0,0.0,0.0,0.0,0.0,0.0,0.0,0.0,0.0,0.0,0.0,0.0,0.0,0.0,0.0,0.0,0.0,0.0,0.0,0.0,0.0,0.0,-0.843,-0.6991,0.0,0.0,0.0,0.0,0.0,0.0,0.0,0.0,0.0,0.0,0.0,0.0,0.0,-0.3841,-0.2377,-0.1949,-0.141,-0.0741,-0.0674,-0.064,-0.064,-0.0607,-0.0573,-0.0607,-0.0674,0.0,-0.1614,-0.1648,0.0,0.0,0.0,0.0,0.0,0.0,0.0,0.0,0.0,0.0,0.0,0.0,0.0,0.0,0.0,0.0,0.0,0.0,0.0,0.0,0.0,0.0,0.0,0.0,0.0,0.0,0.0,0.0,0.0,0.0,0.0,0.0,0.0,0.0,0.0,0.0,0.0,0.0,0.0,0.0,0.0,0.0,0.0,0.0,0.0,0.0,0.0,0.0,0.0,0.0,0.0,0.0,0.0,0.0,0.0,0.0,0.0,0.0,0.0,0.0,0.0,0.0,0.0,0.0,0.0,0.0,0.0,0.0,0.0,0.0,0.0,0.0,0.0,0.0,0.0,0.0,0.0,0.0,0.0,0.0,0.0,0.0,0.0,0.0,0.0,-0.8298,-0.7425,-0.6536,-0.6735,-0.676,0.0,0.0,0.0,0.0,0.0,0.0,0.0,0.0,0.0,-0.3226,-0.2997,-0.2327,-0.1134,-0.0973,-0.0636,-0.0207,-0.0207,-0.0205,-0.0202,-0.0202,-0.027,-0.0371,-0.0371,-0.0606,-0.0977,-0.0977,-0.1078,-0.1246,0.0,0.0,0.0,0.0,-0.0842,-0.0808,0.0,0.0,0.0,0.0,0.0,0.0,0.0,0.0,0.0,0.0,0.0,0.0,0.0,0.0,0.0,0.0,0.0,0.0,0.0,0.0,0.0,0.0,0.0,0.0,0.0,0.0,0.0,0.0,0.0,0.0,0.0,0.0,0.0,0.0,0.0,0.0,0.0,0.0,0.0,0.0,0.0,0.0,0.0,0.0,0.0,0.0,0.0,0.0,0.0,0.0,0.0,0.0,0.0,0.0,0.0,0.0,0.0,0.0,0.0,0.0,0.0,0.0,0.0,0.0,0.0,0.0,0.0,0.0,0.0,0.0,0.0,0.0,0.0,0.0,0.0,0.0,0.0,-0.698,-0.656,-0.6338,-0.6335,-0.6293,0.0,0.0,0.0,0.0,0.0,0.0,-0.4068,-0.381,-0.3097,-0.1792,-0.1647,-0.1194,-0.0303,-0.026,-0.0145,0.0,0.0,0.0,0.0,0.0,-0.0068,-0.0236,-0.0236,-0.027,-0.0371,-0.0472,-0.0506,-0.0506,-0.0506,-0.0506,-0.0506,-0.0472,-0.0438,-0.0438,0.0,0.0,0.0,0.0,0.0,0.0,0.0,0.0,0.0,0.0,0.0,0.0,0.0,0.0,0.0,0.0,0.0,0.0,0.0,0.0,0.0,0.0,0.0,0.0,0.0,0.0,0.0,0.0,0.0,0.0,0.0,0.0,0.0,0.0,0.0,0.0,0.0,0.0,0.0,0.0,0.0,0.0,0.0,0.0,0.0,0.0,0.0,0.0,0.0,0.0,0.0,0.0,0.0,0.0,0.0,0.0,0.0,0.0,0.0,0.0,0.0,0.0,0.0,0.0,0.0,0.0,0.0,0.0,0.0,0.0,0.0,0.0,0.0,0.0,0.0,0.0,0.0,0.0,0.0,-0.6261,-0.5909,0.0,0.0,0.0,0.0,-0.5589,-0.4869,-0.4433,-0.4395,-0.3577,-0.2767,-0.1917,-0.172,-0.1199,-0.0303,-0.0113,0.0,0.0,0.0,0.0,0.0,0.0,0.0,0.0,0.0,-0.0034,-0.0034,-0.0371,-0.0506,-0.0506,-0.0506,-0.0506,-0.0472,-0.0371,-0.0303,-0.027,0.0,0.0,0.0,0.0,0.0,0.0,0.0,0.0,0.0,0.0,0.0,0.0,0.0,0.0,0.0,0.0,0.0,0.0,0.0,0.0,0.0,0.0,0.0,0.0,0.0,0.0,0.0,0.0,0.0,0.0,0.0,0.0,0.0,0.0,0.0,0.0,0.0,0.0,0.0,0.0,0.0,0.0,0.0,0.0,0.0,0.0,0.0,0.0,0.0,0.0,0.0,0.0,0.0,0.0,0.0,0.0,0.0,0.0,0.0,0.0,0.0,0.0,0.0,0.0,0.0,0.0,0.0,0.0,0.0,0.0,0.0,0.0,0.0,0.0,0.0,0.0,0.0,0.0,0.0,-0.5831,-0.5715,0.0,-0.5712,-0.5518,-0.5204,-0.4654,-0.4261,-0.3556,-0.2464,-0.2112,-0.1566,-0.0706,-0.0588,-0.043,-0.0116,0.0078,0.0191,0.0187,0.0336,0.0369,0.0396,0.0396,0.0393,0.039,0.0244,0.0207,0.0172,-0.0068,-0.0169,-0.0169,-0.0169,-0.0169,-0.0169,-0.0135,-0.0101,-0.0101,0.0,0.0,0.0,0.0,0.0,0.0,0.0,0.0,0.0,0.0,0.0,0.0,0.0,0.0,0.0,0.0,0.0,0.0,0.0,0.0,0.0,0.0,0.0,0.0,0.0,0.0,0.0,0.0,0.0,0.0,0.0,0.0,0.0,0.0,0.0,0.0,0.0,0.0,0.0,0.0,0.0,0.0,-1.628,0.0,0.0,0.0,0.0,0.0,0.0,0.0,0.0,0.0,0.0,0.0,0.0,0.0,0.0,0.0,0.0,0.0,0.0,0.0,0.0,0.0,0.0,0.0,0.0,0.0,0.0,0.0,0.0,0.0,0.0,0.0,0.0,0.0,0.0,0.0,-0.5521,-0.5598,-0.5482,-0.5443,-0.5479,-0.5323,-0.4851,-0.4068,-0.3597,-0.2737,-0.1254,-0.0902,-0.0471,0.0196,0.0196,0.0196,0.0196,0.0353,0.0389,0.0422,0.0537,0.0605,0.0591,0.0591,0.0588,0.0583,0.0465,0.039,0.039,0.0244,0.0208,0.0173,0.0069,0.0,0.0,0.0,0.0,0.0,0.0,0.0,0.0,0.0,0.0,0.0,0.0,0.0,0.0,0.0,0.0,0.0,0.0,0.0,0.0,0.0,0.0,0.0,0.0,0.0,0.0,0.0,0.0,0.0,0.0,0.0,0.0,0.0,0.0,0.0,0.0,0.0,0.0,0.0,0.0,0.0,0.0,0.0,0.0,0.0,0.0,0.0,-1.4708,0.0,0.0,0.0,0.0,0.0,0.0,0.0,0.0,0.0,0.0,0.0,0.0,0.0,0.0,0.0,0.0,0.0,0.0,0.0,0.0,0.0,0.0,0.0,0.0,0.0,0.0,0.0,0.0,0.0,0.0,0.0,0.0,0.0,-0.5559,-0.5401,-0.5359,-0.5559,-0.5249,-0.5054,-0.5282,-0.509,-0.4659,-0.383,-0.2973,-0.2034,-0.094,-0.0118,0.0393,0.0589,0.0589,0.0589,0.0589,0.0589,0.0628,0.0628,0.0628,0.0621,0.0606,0.0606,0.0636,0.0621,0.062,0.062,0.062,0.062,0.0583,0.0546,0.0178,0.0,0.0,0.0,0.0,0.0,0.0,0.0,0.0,0.0,0.0,0.0,0.0,0.0,0.0,0.0,0.0,0.0,0.0,0.0,0.0,0.0,0.0,0.0,0.0,0.0,0.0,0.0,0.0,0.0,0.0,0.0,0.0,0.0,0.0,0.0,0.0,0.0,0.0,0.0,0.0,0.0,0.0,0.0,0.0,0.0,0.0,0.0,-1.5436,0.0,0.0,0.0,0.0,0.0,0.0,0.0,0.0,0.0,0.0,0.0,0.0,0.0,0.0,0.0,0.0,0.0,0.0,0.0,0.0,0.0,0.0,0.0,0.0,0.0,0.0,0.0,0.0,0.0,0.0,0.0,0.0,-0.5321,-0.5359,-0.5207,-0.5093,-0.5171,-0.4937,-0.4857,-0.5054,-0.4779,-0.4268,-0.3561,-0.2623,-0.1646,-0.0746,0.0079,0.055,0.0589,0.0589,0.0589,0.0589,0.0746,0.0825,0.0825,0.1021,0.1096,0.1089,0.1089,0.1124,0.1116,0.0906,0.0824,0.0823,0.0661,0.0589,0.0561,0.0328,0.0217,0.0182,0.0036,0.0,0.0,0.0,0.0,0.0,0.0,0.0,0.0,0.0,0.0,0.0,0.0,0.0,0.0,0.0,0.0,0.0,0.0,0.0,0.0,0.0,0.0,0.0,0.0,0.0,0.0,0.0,0.0,0.0,0.0,0.0,0.0,0.0,0.0,0.0,0.0,0.0,0.0,0.0,0.0,0.0,0.0,0.0,0.0,-1.5613,-1.4851,-1.4142,-1.3491,-1.36,-1.3346,-1.2989,-1.2989,0.0,0.0,0.0,0.0,0.0,0.0,0.0,0.0,0.0,0.0,0.0,0.0,0.0,0.0,0.0,0.0,0.0,0.0,0.0,0.0,0.0,0.0,0.0,0.0,-0.5168,-0.5168,-0.5168,-0.5054,-0.4976,-0.4898,-0.4779,-0.4701,-0.474,-0.4543,-0.407,-0.3327,-0.2429,-0.149,-0.051,0.0275,0.0786,0.0904,0.0904,0.0904,0.0904,0.1021,0.1061,0.1061,0.1218,0.1296,0.1296,0.1296,0.1296,0.1295,0.1122,0.1077,0.1076,0.0946,0.0911,0.0,0.0,0.0,0.0,0.0,0.0266,0.0192,0.0,0.0,0.0,0.0,0.0,0.0,0.0,0.0,0.0,0.0,0.0,0.0,0.0,0.0,0.0,0.0,0.0,0.0,0.0,0.0,0.0,0.0,0.0,0.0,0.0,0.0,0.0,0.0,0.0,0.0,0.0,0.0,0.0,0.0,0.0,0.0,0.0,0.0,0.0,0.0,0.0,0.0,-1.5392,-1.4859,-1.4142,-1.3353,-1.2666,-1.2342,-1.2268,-1.2298,0.0,0.0,0.0,0.0,0.0,0.0,0.0,0.0,0.0,0.0,0.0,0.0,0.0,0.0,0.0,0.0,0.0,0.0,0.0,0.0,0.0,0.0,0.0,0.0,-0.5018,-0.5018,-0.5018,-0.4979,-0.4898,-0.474,-0.4659,-0.4582,-0.4423,-0.4345,-0.4031,-0.3251,-0.2429,-0.1568,-0.0589,0.0,0.0,0.0,0.0,0.1296,0.1296,0.1296,0.1296,0.1296,0.1296,0.1296,0.1296,0.1296,0.1296,0.1296,0.1296,0.1296,0.1296,0.1296,0.1296,0.1254,0.0805,0.0578,0.0471,0.0471,0.0393,0.0236,0.0,0.0,0.0,0.0,0.0,0.0,0.0,0.0,0.0,0.0,0.0,0.0,0.0,0.0,0.0,0.0,0.0,0.0,0.0,0.0,0.0,0.0,0.0,0.0,0.0,0.0,0.0,0.0,0.0,0.0,0.0,0.0,0.0,0.0,0.0,0.0,0.0,0.0,0.0,0.0,0.0,0.0,-1.5232,-1.5125,-1.4222,-1.3003,-1.301,-1.2599,-1.2077,-1.2268,-1.2305,-1.2305,-1.2305,0.0,0.0,0.0,0.0,0.0,0.0,0.0,0.0,0.0,0.0,0.0,0.0,0.0,0.0,0.0,0.0,0.0,0.0,0.0,0.0,-0.5015,-0.5018,-0.5018,-0.5018,-0.4859,-0.474,-0.4701,-0.4543,-0.4462,-0.4423,-0.4112,-0.3919,-0.3921,-0.2979,-0.2275,-0.2079,-0.0627,0.0196,0.0235,0.0942,0.1296,0.1296,0.1296,0.1296,0.1296,0.0,0.0,0.1296,0.1296,0.1296,0.1296,0.1296,0.1296,0.1296,0.1296,0.1296,0.1256,0.0977,0.0352,-0.0353,-0.0353,-0.0824,-0.1451,0.0,0.0,0.0,0.0,0.0,0.0,0.0,0.0,0.0,0.0,0.0,0.0,0.0,0.0,0.0,0.0,0.0,0.0,0.0,0.0,0.0,0.0,0.0,0.0,0.0,0.0,0.0,0.0,0.0,0.0,0.0,0.0,0.0,0.0,0.0,0.0,0.0,0.0,0.0,0.0,0.0,0.0,-1.547,-1.5275,-1.4482,-1.3441,-1.3156,-1.2526,-1.1855,-1.1966,-1.2003,-1.2003,-1.2003,-1.2003,-1.2003,0.0,0.0,0.0,0.0,0.0,0.0,0.0,0.0,0.0,0.0,0.0,0.0,0.0,0.0,-0.5401,0.0,0.0,-0.5129,-0.5015,-0.4898,-0.4859,-0.4859,-0.4659,-0.4543,-0.4543,-0.4387,-0.4192,-0.4112,-0.3919,-0.3841,-0.396,-0.3059,-0.2511,-0.2511,-0.1332,-0.047,0.0,0.0431,0.0863,0.1296,0.1296,0.1296,0.1296,0.1296,0.1296,0.1296,0.1296,0.1296,0.1296,0.1296,0.1296,0.1296,0.1296,0.106,0.0628,0.051,0.0157,-0.0353,-0.0784,-0.1216,-0.1646,0.0,0.0,0.0,0.0,0.0,0.0,0.0,0.0,0.0,0.0,0.0,0.0,0.0,0.0,0.0,0.0,0.0,0.0,0.0,0.0,0.0,0.0,0.0,0.0,0.0,0.0,0.0,0.0,0.0,0.0,0.0,0.0,0.0,0.0,0.0,0.0,0.0,0.0,0.0,0.0,0.0,0.0,-1.5761,-1.5426,-1.4804,-1.4042,-1.3506,-1.2666,-1.1892,-1.1929,-1.1818,-1.1706,-1.1706,-1.1706,-1.1706,-1.1706,-1.1706,0.0,0.0,0.0,0.0,0.0,0.0,0.0,0.0,0.0,-0.663,-0.5712,-0.5401,-0.5243,-0.5243,-0.509,-0.4979,-0.4937,-0.4818,-0.4701,-0.4659,-0.4465,-0.4345,-0.4345,-0.4194,-0.4038,-0.3802,-0.3802,-0.3802,-0.3802,-0.3137,-0.2744,-0.2744,-0.1959,-0.1214,-0.0509,-0.0352,0.0157,0.1021,0.106,0.1139,0.1296,0.1296,0.1218,0.106,0.106,0.0942,0.0785,0.0785,0.0785,0.0785,0.0785,0.0392,-0.0274,-0.0431,-0.047,-0.0587,-0.1293,-0.1645,-0.1881,0.0,0.0,0.0,0.0,0.0,0.0,0.0,0.0,0.0,0.0,0.0,0.0,0.0,0.0,0.0,0.0,0.0,0.0,0.0,0.0,0.0,0.0,0.0,0.0,0.0,0.0,0.0,0.0,0.0,0.0,0.0,0.0,0.0,0.0,0.0,0.0,0.0,0.0,0.0,0.0,0.0,0.0,-1.5805,-1.5761,-1.524,-1.4537,-1.4653,-1.3753,-1.2526,-1.2709,-1.2298,-1.1706,-1.1706,-1.1706,-1.1706,-1.1706,0.0,-1.1706,-1.1706,-1.0389,0.0,-0.7672,-0.6911,-0.6335,0.0,0.0,-0.5712,-0.5398,-0.5168,-0.5015,-0.5015,-0.5015,-0.4937,-0.4779,-0.4701,-0.4621,-0.4462,-0.427,-0.4118,-0.4118,-0.4118,-0.4038,-0.3802,-0.3802,-0.3802,-0.3802,-0.3724,-0.3645,-0.3645,-0.2823,-0.2314,-0.2235,-0.1528,-0.0744,0.0118,0.0157,0.0549,0.1296,0.1296,0.0903,0.0157,0.0157,-0.0274,-0.1019,-0.1019,-0.1019,-0.1019,-0.1019,-0.1058,-0.1214,-0.196,-0.2235,-0.2235,-0.2314,-0.2862,-0.3526,0.0,0.0,0.0,0.0,0.0,0.0,0.0,0.0,0.0,0.0,0.0,0.0,0.0,0.0,0.0,0.0,0.0,0.0,0.0,0.0,0.0,0.0,0.0,0.0,0.0,0.0,0.0,0.0,0.0,0.0,0.0,0.0,0.0,0.0,0.0,0.0,0.0,0.0,0.0,0.0,0.0,0.0,-1.5805,-1.5805,-1.5576,-1.524,-1.4859,-1.4034,0.0,0.0,-1.2342,-1.1966,-1.1484,-1.1335,-1.1335,-1.1335,-1.1335,0.0,-1.0775,0.0,0.0,0.0,-0.6911,-0.6183,-0.5828,-0.5676,-0.5521,-0.521,-0.5437,-0.5553,-0.5093,-0.5783,-0.6202,0.0,-0.5509,-0.5506,-0.4849,-0.4582,-0.4311,-0.396,-0.3921,-0.3882,-0.3802,-0.3802,-0.3686,-0.3413,-0.3645,-0.3567,-0.3059,-0.2902,-0.2511,-0.1842,-0.1489,-0.0979,-0.0352,-0.0352,-0.0313,-0.0196,-0.0196,-0.0392,-0.0744,-0.0744,-0.094,-0.1293,-0.1293,-0.1293,-0.1293,-0.1293,-0.1579,-0.2078,-0.2439,-0.2905,-0.3385,-0.3339,-0.3563,-0.385,0.0,0.0,0.0,0.0,0.0,0.0,0.0,0.0,0.0,0.0,0.0,0.0,0.0,0.0,0.0,0.0,0.0,0.0,0.0,0.0,0.0,0.0,0.0,0.0,0.0,0.0,0.0,0.0,0.0,0.0,0.0,0.0,0.0,0.0,0.0,0.0,0.0,0.0,0.0,0.0,0.0,0.0,-1.5805,-1.5805,-1.5805,-1.5726,-1.5125,-1.443,0.0,0.0,-1.2666,-1.2187,-1.1595,-1.1298,-1.1111,-1.1111,-1.1111,-1.0925,-1.0105,0.0,0.0,-0.7672,-0.7138,-0.6637,-0.5712,-0.5712,-0.5712,-0.5135,-0.5476,-0.5744,-0.5401,-0.6318,0.0,-0.6173,-0.6318,-0.6234,-0.5428,-0.4968,-0.4545,-0.4114,-0.3919,-0.3802,-0.3802,-0.3802,-0.3608,-0.3141,-0.3413,-0.3294,-0.255,-0.2787,-0.255,-0.1646,-0.1646,-0.1371,-0.0784,-0.0784,-0.0901,-0.1097,-0.1097,-0.1293,-0.1646,-0.1881,-0.1997,-0.1998,-0.2012,-0.2018,-0.2019,-0.2032,-0.2421,-0.2989,-0.2989,-0.3393,-0.3988,-0.3989,-0.3959,-0.3946,0.0,0.0,0.0,0.0,0.0,0.0,0.0,0.0,0.0,0.0,0.0,0.0,0.0,0.0,0.0,0.0,0.0,0.0,0.0,0.0,0.0,0.0,0.0,0.0,0.0,0.0,0.0,0.0,0.0,0.0,0.0,0.0,0.0,0.0,0.0,0.0,0.0,0.0,0.0,0.0,0.0,0.0,-1.5805,-1.5805,-1.5805,-1.5805,-1.5761,0.0,0.0,0.0,-1.3528,-1.2305,-1.2268,-1.1744,0.0,-1.1111,-1.1111,0.0,0.0,0.0,-0.942,-0.7659,-0.7774,-0.7808,-0.578,-0.598,-0.6254,-0.521,-0.5018,-0.5285,-0.6012,-0.6202,-0.6433,-0.7049,-0.6773,-0.6426,-0.6202,-0.5318,-0.4701,-0.4659,-0.4153,-0.3802,0.0,-0.3802,-0.3608,-0.3141,-0.3102,-0.2943,-0.2511,-0.2511,-0.2511,-0.247,-0.247,-0.2078,-0.1293,-0.1293,-0.1058,-0.0627,-0.0627,-0.1254,-0.2511,-0.3331,-0.3724,-0.3728,-0.3776,-0.3814,-0.382,-0.3908,-0.3944,-0.3946,-0.3946,-0.3992,-0.4004,-0.4132,-0.4108,-0.399,0.0,0.0,0.0,0.0,0.0,0.0,0.0,0.0,0.0,0.0,0.0,0.0,0.0,0.0,0.0,0.0,0.0,0.0,0.0,0.0,0.0,0.0,0.0,0.0,0.0,0.0,0.0,0.0,0.0,0.0,0.0,0.0,0.0,0.0,0.0,0.0,0.0,0.0,0.0,0.0,0.0,0.0,-1.5805,-1.5805,-1.5805,-1.5805,0.0,0.0,0.0,0.0,0.0,0.0,-1.2629,0.0,0.0,-1.126,0.0,0.0,0.0,0.0,-0.9523,-0.8765,-0.8385,-0.7965,-0.7165,-0.7169,-0.7246,-0.678,-0.7088,-0.7357,-0.7122,-0.7923,-0.8389,-0.7553,-0.7706,-0.7625,-0.6595,-0.6173,-0.5786,-0.5354,-0.5121,0.0,0.0,0.0,0.0,-0.3141,-0.3102,-0.2826,-0.2156,-0.2117,-0.1961,-0.1727,-0.1689,-0.1687,-0.1685,-0.1685,-0.1763,-0.1882,-0.2117,-0.253,-0.305,-0.3612,-0.3887,-0.3946,-0.3977,-0.3948,-0.3952,-0.3982,-0.4071,-0.4126,-0.4126,-0.4161,-0.4214,-0.4244,-0.4236,-0.421,0.0,0.0,0.0,0.0,0.0,0.0,0.0,0.0,0.0,0.0,0.0,0.0,0.0,0.0,0.0,0.0,0.0,0.0,0.0,0.0,0.0,0.0,0.0,0.0,0.0,0.0,0.0,0.0,0.0,0.0,0.0,0.0,0.0,0.0,0.0,0.0,0.0,0.0,0.0,0.0,0.0,0.0,-1.6105,-1.6316,-1.6246,0.0,0.0,0.0,0.0,0.0,0.0,0.0,0.0,0.0,0.0,0.0,0.0,0.0,0.0,-1.0319,-0.9787,-0.9301,-0.9036,-0.8651,-0.7855,-0.7931,-0.8008,-0.7579,-0.7927,-0.8199,-0.7965,-0.877,-0.9236,-0.8475,-0.8551,-0.8399,-0.748,-0.6907,-0.6444,-0.6012,-0.5741,0.0,0.0,0.0,0.0,-0.3141,-0.3102,-0.2826,-0.2156,-0.196,-0.1764,-0.1531,-0.1375,-0.1414,-0.1687,-0.1687,-0.197,-0.2544,-0.2965,-0.3324,-0.3576,-0.3823,-0.394,-0.3996,-0.4071,-0.421,-0.4424,-0.4502,-0.4683,-0.5003,-0.5003,-0.4997,-0.5053,-0.5053,-0.5053,-0.4964,0.0,0.0,0.0,0.0,0.0,0.0,0.0,0.0,0.0,0.0,0.0,0.0,0.0,0.0,0.0,0.0,0.0,0.0,0.0,0.0,0.0,0.0,0.0,0.0,0.0,0.0,0.0,0.0,0.0,0.0,0.0,0.0,0.0,0.0,0.0,0.0,0.0,0.0,0.0,0.0,0.0,0.0,-1.6707,-1.7201,0.0,0.0,0.0,0.0,0.0,0.0,0.0,0.0,0.0,0.0,0.0,0.0,0.0,-1.0513,-1.0475,-1.0481,-1.025,-0.9306,-0.9609,-0.9722,-0.7999,-0.8199,-0.8546,-0.777,-0.7617,-0.7851,0.0,0.0,-0.897,-0.9733,-0.9198,-0.8665,-0.8623,-0.748,-0.6641,0.0,0.0,0.0,0.0,0.0,0.0,-0.3217,0.0,-0.2943,-0.2511,-0.2117,-0.1882,-0.1882,-0.1493,-0.1299,-0.1299,-0.134,-0.1753,-0.2566,-0.3077,-0.3573,-0.4042,-0.4042,-0.4086,-0.4139,-0.4271,-0.4695,-0.5259,-0.5414,-0.5813,-0.6384,-0.6384,-0.6384,-0.6384,-0.6384,-0.6384,-0.6207,0.0,0.0,0.0,0.0,0.0,0.0,0.0,0.0,0.0,0.0,0.0,0.0,0.0,0.0,0.0,0.0,0.0,0.0,0.0,0.0,0.0,0.0,0.0,0.0,0.0,0.0,0.0,0.0,0.0,0.0,0.0,0.0,0.0,0.0,0.0,0.0,0.0,0.0,0.0,0.0,0.0,0.0,-1.7201,0.0,0.0,0.0,0.0,0.0,0.0,0.0,0.0,0.0,0.0,0.0,-1.0556,0.0,0.0,-1.0481,-1.0331,-1.0293,-1.018,-0.9765,-0.9841,-0.9841,-0.9382,-0.9458,-0.9539,-0.9344,-0.9306,-0.9344,0.0,0.0,0.0,-0.9008,-0.8594,0.0,-0.7863,-0.7484,0.0,0.0,0.0,-0.663,-0.5699,-0.5467,0.0,0.0,-0.3295,-0.2943,-0.2511,-0.2117,-0.1764,-0.1452,-0.1359,-0.1291,-0.1291,-0.1681,-0.199,-0.2251,-0.3017,-0.3767,-0.4468,-0.4772,-0.5203,-0.5807,-0.5838,-0.594,-0.6119,-0.6151,-0.6254,-0.6384,-0.6384,-0.6384,-0.6384,-0.6384,-0.6384,-0.634,0.0,0.0,0.0,0.0,0.0,0.0,0.0,0.0,0.0,0.0,0.0,0.0,0.0,0.0,0.0,0.0,0.0,0.0,0.0,0.0,0.0,0.0,0.0,0.0,0.0,0.0,0.0,0.0,0.0,0.0,0.0,0.0,0.0,0.0,0.0,0.0,0.0,0.0,0.0,0.0,0.0,0.0,0.0,0.0,0.0,0.0,0.0,0.0,0.0,0.0,0.0,-1.2769,-1.1855,-1.1037,-1.0368,-1.0255,0.0,-1.0218,-1.0105,-1.0067,-1.003,-0.9922,-0.9884,-0.9884,-0.9884,-0.9884,-0.9884,-0.9884,-0.9884,0.0,0.0,0.0,0.0,0.0,0.0,0.0,-0.7829,-0.7599,-0.7484,0.0,-0.7484,0.0,-0.6514,-0.6205,-0.5741,0.0,-0.4036,-0.3295,-0.3098,-0.2732,-0.231,-0.1874,-0.1713,-0.1652,-0.1652,-0.1941,-0.2303,-0.2729,-0.3526,-0.4301,-0.4964,-0.549,-0.5964,-0.6384,0.0,-0.6561,-0.6871,-0.6871,-0.7092,-0.7363,-0.7363,-0.7363,-0.7363,-0.7363,-0.7363,-0.7363,0.0,0.0,0.0,0.0,0.0,0.0,0.0,0.0,0.0,0.0,0.0,0.0,0.0,0.0,0.0,0.0,0.0,0.0,0.0,0.0,0.0,0.0,0.0,0.0,0.0,0.0,0.0,0.0,0.0,0.0,0.0,0.0,0.0,0.0,0.0,0.0,0.0,0.0,0.0,0.0,0.0,0.0,0.0,0.0,0.0,0.0,0.0,0.0,0.0,0.0,-1.3208,-1.2409,-1.1595,-1.0775,-1.0143,-0.9954,-0.9884,-0.9884,-0.9884,-0.9884,-0.9884,-0.9884,-0.9884,-0.9884,-0.9884,-0.9884,-0.9884,-0.9884,0.0,0.0,-0.9884,0.0,-0.9695,-0.9284,0.0,-0.8475,-0.8063,-0.7714,-0.7484,-0.7484,-0.7484,-0.7484,-0.7407,-0.6907,-0.657,-0.6514,-0.4992,-0.4016,-0.3859,-0.3502,-0.3144,-0.2788,-0.2508,-0.2367,-0.25,-0.2547,-0.3008,-0.3792,-0.4522,-0.5139,-0.568,-0.6299,-0.6605,-0.6697,-0.6697,0.0,-0.7669,-0.7669,-0.8025,-0.8612,-0.8612,-0.8612,-0.8612,-0.8612,-0.8612,-0.8612,0.0,0.0,0.0,0.0,0.0,0.0,0.0,0.0,0.0,0.0,0.0,0.0,0.0,0.0,0.0,0.0,0.0,0.0,0.0,0.0,0.0,0.0,0.0,0.0,0.0,0.0,0.0,0.0,0.0,0.0,0.0,0.0,0.0,0.0,0.0,0.0,0.0,0.0,0.0,0.0,0.0,0.0,0.0,0.0,0.0,0.0,0.0,0.0,0.0,0.0,-1.3084,-1.2168,-1.1217,-1.0481,-0.9954,-0.9922,-0.9884,-0.9884,-0.9884,-0.9884,-0.9884,-0.9884,-0.9884,-0.9884,-0.9884,-0.9884,0.0,0.0,0.0,-0.9884,-0.9884,-0.962,0.0,-0.8856,0.0,0.0,0.0,0.0,-0.7484,0.0,0.0,0.0,0.0,0.0,0.0,0.0,0.0,-0.5114,-0.4192,-0.3669,-0.3451,-0.3685,-0.3614,-0.3866,-0.4504,-0.4872,-0.5147,-0.5326,-0.5838,-0.6473,-0.7136,-0.7268,-0.7625,-0.8208,-0.8208,0.0,-0.8388,-0.8388,-0.8476,-0.8612,-0.8612,-0.8612,-0.8612,-0.8612,-0.8612,-0.8612,0.0,0.0,0.0,0.0,0.0,0.0,0.0,0.0,0.0,0.0,0.0,0.0,0.0,0.0,0.0,0.0,0.0,0.0,0.0,0.0,0.0,0.0,0.0,0.0,0.0,0.0,0.0,0.0,0.0,0.0,0.0,0.0,0.0,0.0,0.0,0.0,0.0,0.0,0.0,0.0,0.0,0.0,0.0,0.0,0.0,0.0,0.0,0.0,0.0,0.0,-1.3614,-1.2124,-1.1105,-1.0406,-0.9884,-0.9884,-0.9884,-0.9884,-0.9884,-0.9884,-0.9884,-0.9884,-0.9884,-0.9884,-0.9884,0.0,0.0,0.0,0.0,-0.9884,-0.9884,0.0,0.0,0.0,0.0,0.0,0.0,0.0,0.0,0.0,0.0,0.0,0.0,0.0,0.0,0.0,0.0,-0.6172,-0.5276,-0.4801,-0.4651,-0.4833,-0.4618,-0.4773,-0.5351,-0.5573,-0.5841,-0.6068,-0.6691,-0.718,-0.7533,-0.7893,-0.8252,-0.8612,-0.8612,0.0,-0.8612,-0.8612,-0.8612,-0.8612,-0.8612,-0.8612,-0.8612,-0.8612,-0.874,-0.8915,0.0,0.0,0.0,0.0,0.0,0.0,0.0,0.0,0.0,0.0,0.0,0.0,0.0,0.0,0.0,0.0,0.0,0.0,0.0,0.0,0.0,0.0,0.0,0.0,0.0,0.0,0.0,0.0,0.0,0.0,0.0,0.0,0.0,0.0,0.0,0.0,0.0,0.0,0.0,0.0,0.0,0.0,0.0,0.0,0.0,0.0,0.0,0.0,0.0,0.0,-1.4271,-1.2455,-1.1583,-1.0657,-0.9916,-1.0067,-0.9997,-0.9884,-0.9884,-0.9884,-0.9884,-0.9884,-0.9884,-0.9884,-0.9884,-0.9884,0.0,0.0,0.0,-0.9884,-0.9884,0.0,0.0,0.0,0.0,0.0,0.0,0.0,0.0,0.0,0.0,0.0,0.0,0.0,0.0,0.0,0.0,0.0,-0.6285,-0.5955,-0.5877,-0.606,-0.5708,-0.5797,-0.6331,-0.6331,-0.6511,-0.6874,-0.7448,-0.7757,-0.7757,-0.834,-0.8612,-0.8612,-0.8612,0.0,0.0,-0.8612,-0.8612,-0.8612,-0.8612,-0.8652,-0.874,-0.874,-0.9043,-0.9388,0.0,0.0,0.0,0.0,0.0,0.0,0.0,0.0,0.0,0.0,0.0,0.0,0.0,0.0,0.0,0.0,0.0,0.0,0.0,0.0,0.0,0.0,0.0,0.0,0.0,0.0,0.0,0.0,0.0,0.0,0.0,0.0,0.0,0.0,0.0,0.0,0.0,0.0,0.0,0.0,0.0,0.0,0.0,0.0,0.0,0.0,0.0,0.0,0.0,0.0,0.0,-1.3484,-1.3084,-1.1545,-0.9992,-1.055,0.0,0.0,-0.9884,-0.9884,-0.9884,-0.9884,-0.9884,-0.9884,-0.9884,0.0,0.0,0.0,-0.9884,-0.9884,-0.9884,0.0,0.0,0.0,0.0,0.0,0.0,0.0,0.0,0.0,0.0,0.0,0.0,0.0,0.0,0.0,0.0,0.0,-0.6439,-0.636,-0.6637,-0.7309,-0.7309,-0.7625,-0.834,-0.8344,-0.8344,-0.8388,-0.8476,-0.8476,-0.852,-0.8564,-0.8612,-0.8612,-0.8612,0.0,0.0,-0.8612,-0.8612,-0.8612,-0.8612,-0.8872,-0.9218,-0.9218,-0.9519,-0.9907,0.0,0.0,0.0,0.0,0.0,0.0,0.0,0.0,0.0,0.0,0.0,0.0,0.0,0.0,0.0,0.0,0.0,0.0,0.0,0.0,0.0,0.0,0.0,0.0,0.0,0.0,0.0,0.0,0.0,0.0,0.0,0.0,0.0,0.0,0.0,0.0,0.0,0.0,0.0,0.0,0.0,0.0,0.0,0.0,0.0,0.0,0.0,0.0,0.0,0.0,0.0,0.0,-1.3716,-1.2469,0.0,0.0,-1.0368,-0.9884,-0.9884,-0.9884,-0.9884,-0.9884,-0.9884,-0.9884,-0.9884,0.0,0.0,-0.9884,-0.9884,-0.9884,-0.9884,-1.0406,0.0,0.0,0.0,0.0,0.0,0.0,0.0,0.0,0.0,0.0,0.0,0.0,0.0,0.0,0.0,0.0,-0.7764,-0.772,-0.7852,-0.816,-0.816,-0.8296,-0.8612,-0.8612,-0.8612,-0.8612,-0.8612,-0.8612,-0.8612,-0.8612,-0.8612,-0.8612,-0.8612,0.0,0.0,-0.8612,-0.8784,-0.8999,-0.8999,-0.9305,-0.9738,-0.9738,-0.999,-1.0337,0.0,0.0,0.0,0.0,0.0,0.0,0.0,0.0,0.0,0.0,0.0,0.0,0.0,0.0,0.0,0.0,0.0,0.0,0.0,0.0,0.0,0.0,0.0,0.0,0.0,0.0,0.0,0.0,0.0,0.0,0.0,0.0,0.0,0.0,0.0,0.0,0.0,0.0,0.0,0.0,0.0,0.0,0.0,0.0,0.0,0.0,0.0,0.0,0.0,0.0,0.0,0.0,0.0,0.0,0.0,0.0,-1.0625,-1.0143,-0.9954,-0.9884,-0.9884,-0.9884,-0.9884,-0.9884,0.0,0.0,0.0,-0.9884,-0.9884,-0.9954,-1.0143,-1.0519,-1.0663,0.0,0.0,0.0,0.0,0.0,0.0,0.0,0.0,0.0,0.0,0.0,0.0,0.0,0.0,0.0,-0.8612,-0.8612,-0.8612,-0.8612,-0.8612,-0.8612,-0.8612,-0.8612,-0.8612,-0.8612,-0.8612,-0.8612,-0.8612,-0.8612,-0.8612,-0.8612,-0.8612,0.0,0.0,-0.8828,-0.9087,-0.9519,-0.9738,-1.0081,-1.0511,-1.0722,-1.1063,-1.137,0.0,0.0,0.0,0.0,0.0,0.0,0.0,0.0,0.0,0.0,0.0,0.0,0.0,0.0,0.0,0.0,0.0,0.0,0.0,0.0,0.0,0.0,0.0,0.0,0.0,0.0,0.0,0.0,0.0,0.0,0.0,0.0,0.0,0.0,0.0,0.0,0.0,0.0,0.0,0.0,0.0,0.0,0.0,0.0,0.0,0.0,0.0,0.0,0.0,0.0,0.0,0.0,0.0,0.0,0.0,0.0,-1.126,-1.0663,-1.0067,-0.9884,-0.9884,-0.9884,-0.9884,-0.9884,0.0,0.0,0.0,-0.9884,-0.9884,-1.0067,-1.0663,-1.0812,-1.0812,-1.0775,0.0,0.0,0.0,0.0,0.0,0.0,0.0,0.0,0.0,0.0,0.0,0.0,0.0,0.0,-0.8612,-0.8612,-0.8612,-0.8612,-0.8612,-0.8612,-0.8612,-0.8612,-0.8612,-0.8612,-0.8612,-0.8612,-0.8612,-0.8612,-0.8612,0.0,0.0,0.0,0.0,-0.9305,-0.9563,-1.0081,-1.0722,-1.1284,-1.1757,-1.2425,-1.2991,-1.3355,0.0,0.0,0.0,0.0,0.0,0.0,0.0,0.0,0.0,0.0,0.0,0.0,0.0,0.0,0.0,0.0,0.0,0.0,0.0,0.0,0.0,0.0,0.0,0.0,0.0,0.0,0.0,0.0,0.0,0.0,0.0,0.0,0.0,0.0,0.0,0.0,0.0,0.0,0.0,0.0,0.0,0.0,0.0,0.0,0.0,0.0,0.0,0.0,0.0,0.0,0.0,0.0,0.0,0.0,0.0,0.0,0.0,0.0,-0.9954,-0.9884,-0.9884,-0.9884,-0.9884,-0.9884,-0.9884,0.0,0.0,-0.9884,-0.9884,-1.0067,-1.07,-1.0812,-1.0812,-1.0812,-1.0812,0.0,0.0,0.0,0.0,0.0,0.0,0.0,0.0,0.0,0.0,0.0,0.0,0.0,-0.8612,-0.8612,-0.8612,-0.8612,-0.8612,-0.8612,-0.8612,-0.8612,-0.8612,-0.8612,-0.8612,-0.8612,-0.8612,-0.8612,-0.8612,0.0,0.0,0.0,0.0,-1.0837,-1.144,-1.1869,-1.2083,-1.2437,-1.2875,-1.3082,-1.3258,-1.3398,0.0,0.0,0.0,0.0,0.0,0.0,0.0,0.0,0.0,0.0,0.0,0.0,0.0,0.0,0.0,0.0,0.0,0.0,0.0,0.0,0.0,0.0,0.0,0.0,0.0,0.0,0.0,0.0,0.0,0.0,0.0,0.0,0.0,0.0,0.0,0.0,0.0,0.0,0.0,0.0,0.0,0.0,-1.7964,0.0,0.0,0.0,0.0,0.0,0.0,0.0,0.0,0.0,0.0,0.0,0.0,0.0,0.0,0.0,0.0,-0.9884,-0.9884,-0.9884,-0.9884,0.0,0.0,0.0,0.0,-0.9884,-1.0067,-1.0406,-1.1037,-1.0962,-1.085,-1.1111,-1.0775,0.0,0.0,0.0,0.0,0.0,0.0,0.0,0.0,0.0,0.0,0.0,0.0,0.0,-0.913,-0.8784,-0.8612,-0.8612,-0.8612,-0.8612,-0.8612,-0.8612,-0.8612,-0.8612,-0.8911,-0.9087,-0.9087,-0.9471,-0.9689,0.0,0.0,0.0,0.0,-1.1986,-1.2547,-1.2984,-1.3233,-1.3499,-1.3815,-1.4068,-1.4159,-1.4159,0.0,0.0,0.0,0.0,0.0,0.0,0.0,0.0,0.0,0.0,0.0,0.0,0.0,0.0,0.0,0.0,0.0,0.0,0.0,0.0,0.0,0.0,0.0,0.0,0.0,0.0,0.0,0.0,-1.8677,-1.8499,-1.8476,0.0,0.0,0.0,0.0,0.0,0.0,0.0,0.0,0.0,-1.8566,-1.8172,0.0,0.0,0.0,0.0,0.0,0.0,0.0,0.0,0.0,0.0,0.0,0.0,0.0,0.0,0.0,0.0,0.0,0.0,0.0,0.0,0.0,0.0,0.0,0.0,0.0,0.0,0.0,-1.0962,-1.1595,-1.1223,-1.0999,-1.1595,-1.07,0.0,0.0,0.0,0.0,0.0,0.0,0.0,0.0,0.0,0.0,0.0,0.0,0.0,-0.9903,-0.913,-0.8696,-0.8696,-0.8696,-0.8652,-0.8612,-0.8652,-0.8696,-0.874,-0.9602,-1.0028,-1.0072,-1.0933,-1.1488,0.0,0.0,0.0,0.0,-1.2845,-1.316,-1.361,-1.423,-1.4482,-1.4566,-1.5173,-1.5389,-1.5389,0.0,0.0,0.0,0.0,0.0,0.0,0.0,0.0,0.0,0.0,0.0,0.0,0.0,0.0,0.0,0.0,0.0,0.0,0.0,0.0,0.0,0.0,0.0,0.0,0.0,0.0,0.0,-1.9011,-1.8911,-1.861,-1.8138,-1.8633,0.0,0.0,0.0,0.0,-1.8944,-1.8269,-1.8056,-1.8182,-1.8003,-1.7491,0.0,0.0,0.0,0.0,-1.6,-1.5903,0.0,0.0,0.0,0.0,0.0,0.0,0.0,0.0,0.0,0.0,0.0,0.0,0.0,0.0,0.0,0.0,0.0,0.0,0.0,0.0,0.0,-1.0962,-1.1595,-1.1223,-1.0999,-1.1595,0.0,0.0,0.0,0.0,0.0,0.0,0.0,0.0,0.0,0.0,0.0,0.0,0.0,-1.1413,-0.999,-0.9685,-0.9602,-0.9602,-0.9602,-0.9257,-0.8612,-0.9257,-0.968,-0.9932,-1.0837,-1.1348,-1.152,-1.1735,-1.1858,0.0,0.0,0.0,-1.3529,-1.4391,-1.4831,-1.4964,-1.509,-1.5173,-1.5166,-1.5347,-1.5389,-1.5389,0.0,0.0,0.0,0.0,0.0,0.0,0.0,0.0,0.0,0.0,0.0,0.0,0.0,0.0,0.0,0.0,0.0,0.0,0.0,0.0,0.0,0.0,0.0,0.0,0.0,0.0,0.0,0.0,0.0,-1.7842,0.0,0.0,0.0,0.0,0.0,0.0,-1.8012,-1.7818,-1.7647,-1.7491,-1.7638,0.0,0.0,0.0,0.0,0.0,-1.5805,-1.5805,0.0,-1.5805,-1.5541,-1.524,0.0,0.0,0.0,0.0,-1.1589,0.0,0.0,0.0,0.0,0.0,0.0,0.0,0.0,0.0,0.0,0.0,0.0,0.0,0.0,0.0,0.0,0.0,0.0,0.0,0.0,0.0,0.0,0.0,0.0,0.0,0.0,0.0,0.0,0.0,0.0,-1.2314,-1.1354,-1.0923,-1.0712,-1.0712,-1.0837,-1.0539,-0.9864,-1.0414,-1.0794,-1.0956,-1.1986,-1.2547,-1.2674,-1.3057,-1.3317,0.0,0.0,0.0,-1.4524,-1.5166,-1.5389,-1.5389,-1.5389,-1.5389,-1.5389,-1.5389,-1.5389,-1.5389,0.0,0.0,0.0,0.0,0.0,0.0,0.0,0.0,0.0,0.0,0.0,0.0,0.0,0.0,0.0,0.0,0.0,0.0,0.0,0.0,0.0,0.0,0.0,0.0,0.0,0.0,0.0,0.0,0.0,0.0,0.0,0.0,0.0,0.0,0.0,0.0,-1.6934,-1.7569,-1.7364,-1.6638,-1.7295,0.0,0.0,0.0,0.0,0.0,0.0,0.0,0.0,-1.5805,-1.5355,-1.4867,-1.5319,0.0,0.0,0.0,0.0,0.0,0.0,0.0,0.0,0.0,0.0,0.0,0.0,0.0,0.0,0.0,0.0,0.0,0.0,0.0,0.0,0.0,0.0,0.0,0.0,0.0,0.0,0.0,0.0,0.0,0.0,0.0,0.0,0.0,0.0,-1.3033,-1.3057,-1.2376,-1.1943,-1.1943,-1.2114,-1.2077,-1.1837,-1.1912,-1.1992,-1.2029,-1.3148,-1.3669,-1.3747,-1.4475,-1.4915,-1.5131,0.0,0.0,-1.5389,-1.5389,-1.5389,-1.5389,-1.5389,-1.5389,-1.5389,-1.5389,-1.5389,-1.5389,0.0,0.0,0.0,0.0,0.0,0.0,0.0,0.0,0.0,0.0,0.0,0.0,0.0,0.0,0.0,0.0,0.0,0.0,0.0,0.0,0.0,0.0,0.0,0.0,0.0,0.0,0.0,0.0,0.0,0.0,-1.6908,-1.6908,-1.6908,0.0,0.0,-1.6908,-1.6908,-1.7003,-1.689,-1.6603,0.0,0.0,0.0,0.0,0.0,0.0,0.0,0.0,0.0,-1.5805,-1.5726,-1.539,-1.4222,0.0,0.0,0.0,0.0,0.0,0.0,0.0,0.0,0.0,0.0,0.0,0.0,0.0,0.0,0.0,0.0,0.0,0.0,0.0,0.0,0.0,0.0,0.0,0.0,0.0,0.0,0.0,0.0,0.0,0.0,0.0,0.0,0.0,0.0,-1.4097,-1.336,-1.319,-1.3148,-1.3148,-1.3148,-1.3493,-1.4181,-1.3493,-1.3233,-1.3402,-1.4398,-1.4915,-1.5082,-1.5215,-1.5305,-1.5347,0.0,-1.5389,-1.5389,-1.5389,-1.5389,-1.5389,-1.5389,-1.5389,-1.5389,-1.5389,-1.5389,-1.5389,0.0,0.0,0.0,0.0,0.0,0.0,0.0,0.0,0.0,0.0,0.0,0.0,0.0,0.0,0.0,0.0,0.0,0.0,0.0,0.0,0.0,0.0,0.0,0.0,0.0,0.0,0.0,0.0,0.0,-1.6908,-1.6908,-1.6908,-1.6908,-1.6908,0.0,-1.6908,-1.6908,-1.6908,-1.6839,-1.676,0.0,0.0,0.0,0.0,0.0,0.0,0.0,0.0,0.0,0.0,-1.5505,-1.5018,-1.4322,0.0,0.0,0.0,0.0,0.0,0.0,0.0,0.0,0.0,0.0,0.0,0.0,0.0,0.0,0.0,0.0,0.0,0.0,0.0,0.0,0.0,0.0,0.0,0.0,0.0,0.0,0.0,0.0,0.0,0.0,0.0,0.0,0.0,0.0,0.0,-1.4314,-1.4314,-1.4314,-1.4314,-1.4433,-1.4657,-1.5082,-1.4692,-1.4482,-1.4482,-1.4999,-1.5305,-1.5389,-1.5389,-1.5389,-1.5389,0.0,-1.5389,-1.5389,-1.5389,-1.5389,-1.5389,-1.5389,-1.5389,-1.5389,-1.5389,-1.5389,-1.5389,0.0,0.0,0.0,0.0,0.0,0.0,0.0,0.0,0.0,0.0,0.0,0.0,0.0,0.0,0.0,0.0,0.0,0.0,0.0,0.0,0.0,0.0,0.0,0.0,0.0,0.0,0.0,-1.7046,-1.7147,-1.7138,-1.7037,-1.6945,-1.6908,0.0,-1.6908,-1.6908,-1.6908,-1.6908,-1.6908,-1.6908,0.0,0.0,0.0,0.0,0.0,0.0,0.0,0.0,0.0,0.0,0.0,0.0,0.0,0.0,0.0,0.0,0.0,-1.1037,-1.0663,0.0,0.0,0.0,0.0,0.0,0.0,0.0,0.0,0.0,0.0,0.0,0.0,0.0,0.0,0.0,0.0,0.0,0.0,0.0,0.0,0.0,0.0,0.0,0.0,0.0,0.0,0.0,0.0,0.0,-1.5173,-1.5173,-1.5173,-1.5173,-1.5305,-1.5389,-1.5389,-1.5389,-1.5305,-1.5173,-1.534,-1.5389,-1.5389,-1.5389,-1.5389,-1.5389,-1.5389,-1.5389,-1.5389,-1.5389,-1.5389,-1.5389,-1.5389,-1.5389,-1.5389,-1.5389,-1.5389,-1.5389,0.0,0.0,0.0,0.0,0.0,0.0,0.0,0.0,0.0,0.0,0.0,0.0,0.0,0.0,0.0,0.0,0.0,0.0,0.0,0.0,0.0,0.0,0.0,0.0,0.0,-1.7266,-1.7449,-1.7449,-1.7844,-1.7834,-1.7449,-1.7073,-1.6908,-1.6908,-1.6908,-1.6908,-1.6908,-1.6908,-1.6908,-1.6908,-1.6908,0.0,0.0,0.0,0.0,0.0,0.0,0.0,0.0,0.0,0.0,0.0,0.0,0.0,0.0,0.0,0.0,-1.1037,-1.085,-1.0625,0.0,0.0,0.0,0.0,0.0,0.0,0.0,0.0,0.0,0.0,0.0,0.0,0.0,0.0,0.0,0.0,0.0,0.0,0.0,0.0,0.0,0.0,0.0,0.0,0.0,0.0,0.0,0.0,-1.5389,-1.5389,-1.5389,-1.5389,-1.5389,-1.5389,-1.5389,-1.5389,-1.5389,-1.5389,-1.5389,-1.5389,-1.5389,-1.5389,-1.5389,-1.5389,-1.5389,-1.5389,-1.5389,-1.5389,-1.5389,-1.5389,-1.5389,-1.5389,-1.5389,-1.5389,-1.5389,-1.5389,0.0,0.0,0.0,0.0,0.0,0.0,0.0,0.0,0.0,0.0,0.0,0.0,0.0,0.0,0.0,0.0,0.0,0.0,0.0,0.0,0.0,0.0,0.0,-1.7944,-1.7633,-1.7807,-1.7889,-1.7889,-1.8045,-1.7999,-1.788,-1.7734,0.0,0.0,-1.766,-1.7513,-1.7266,-1.7266,-1.7128,-1.6908,-1.6908,-1.6839,0.0,0.0,0.0,0.0,0.0,0.0,0.0,0.0,0.0,0.0,0.0,0.0,0.0,0.0,0.0,0.0,-1.1298,-1.085,0.0,0.0,0.0,0.0,0.0,0.0,0.0,0.0,0.0,0.0,0.0,0.0,0.0,0.0,0.0,0.0,0.0,0.0,0.0,0.0,0.0,0.0,0.0,0.0,0.0,0.0,0.0,0.0,-1.5389,-1.5389,-1.5389,-1.5389,-1.5389,-1.5389,-1.5389,-1.5389,-1.5389,-1.5389,-1.5389,-1.5389,-1.5389,-1.5389,-1.5389,-1.5389,-1.5389,-1.5389,-1.5389,-1.5389,-1.5389,-1.5389,-1.5389,-1.5389,-1.5389,-1.5389,-1.5389,-1.5389,0.0,0.0,0.0,0.0,0.0,0.0,0.0,0.0,0.0,0.0,0.0,0.0,0.0,0.0,0.0,0.0,0.0,0.0,0.0,0.0,0.0,0.0,0.0,-1.8495,-1.8495,-1.8495,-1.844,-1.8274,-1.8274,-1.8274,-1.8311,0.0,0.0,0.0,-1.8091,-1.7963,-1.7697,-1.7697,-1.7541,-1.7293,-1.7293,-1.7293,0.0,0.0,0.0,0.0,0.0,0.0,0.0,0.0,0.0,0.0,0.0,0.0,0.0,0.0,0.0,0.0,-1.1669,-1.0999,0.0,0.0,0.0,0.0,0.0,0.0,0.0,0.0,0.0,0.0,0.0,0.0,0.0,0.0,0.0,0.0,0.0,0.0,0.0,0.0,0.0,0.0,0.0,0.0,0.0,0.0,0.0,0.0,0.0,-1.5389,-1.5389,-1.5389,-1.5389,-1.5389,-1.5389,-1.5389,-1.5389,-1.5389,-1.5389,-1.5389,-1.5389,-1.5389,-1.5389,-1.5389,-1.5389,-1.5389,-1.5389,-1.5389,-1.5389,-1.5389,-1.5389,-1.5389,-1.5389,-1.5389,-1.5389,-1.5389,0.0,0.0,0.0,0.0,0.0,0.0,0.0,0.0,0.0,0.0,0.0,0.0,0.0,0.0,0.0,0.0,0.0,0.0,0.0,0.0,0.0,0.0,0.0,-1.9301,-1.9301,-1.9301,-1.9109,-1.8715,-1.8715,-1.8715,-1.8705,-1.832,0.0,0.0,0.0,-1.81,-1.8091,-1.8091,-1.8091,-1.8091,-1.8091,-1.8091,-1.8053,0.0,0.0,0.0,0.0,0.0,0.0,0.0,0.0,0.0,0.0,0.0,0.0,0.0,0.0,-1.2003,0.0,0.0,0.0,0.0,0.0,0.0,0.0,0.0,0.0,0.0,0.0,0.0,0.0,0.0,0.0,0.0,0.0,0.0,0.0,0.0,0.0,0.0,0.0,0.0,0.0,0.0,0.0,0.0,0.0,0.0,0.0,-1.5389,-1.5389,-1.5389,-1.5389,-1.5389,-1.5389,-1.5389,-1.5389,-1.5389,-1.5431,-1.5431,-1.5389,-1.5389,-1.5389,-1.5389,-1.5389,-1.5389,-1.5389,-1.5389,-1.5389,-1.5389,-1.5389,-1.5389,-1.5389,-1.5389,-1.5389,-1.5389,0.0,0.0,0.0,0.0,0.0,0.0,0.0,0.0,0.0,0.0,0.0,0.0,0.0,0.0,0.0,0.0,0.0,0.0,0.0,0.0,0.0,0.0,0.0,0.0,0.0,0.0,-1.9246,-1.9127,-1.9127,-1.9127,0.0,0.0,0.0,-1.8953,0.0,0.0,0.0,-1.854,-1.8375,-1.8091,-1.8091,-1.8091,-1.8091,0.0,0.0,0.0,0.0,0.0,0.0,0.0,0.0,0.0,0.0,0.0,0.0,0.0,-1.3382,-1.2526,0.0,0.0,0.0,0.0,0.0,0.0,0.0,0.0,0.0,0.0,0.0,0.0,0.0,0.0,0.0,0.0,0.0,0.0,0.0,0.0,0.0,0.0,0.0,0.0,0.0,0.0,0.0,0.0,0.0,0.0,0.0,-1.5389,-1.5389,-1.5389,-1.5389,-1.5389,-1.5389,-1.5389,-1.5389,-1.5431,-1.6023,-1.5982,-1.5389,-1.5389,-1.5389,-1.5389,-1.5389,-1.5389,-1.5389,-1.5389,-1.5389,-1.5389,-1.5389,-1.5389,-1.5389,-1.5389,-1.5389,-1.5389,0.0,0.0,0.0,0.0,0.0,0.0,0.0,0.0,0.0,0.0,0.0,0.0,0.0,0.0,0.0,0.0,0.0,0.0,0.0,0.0,0.0,0.0,0.0,0.0,0.0,-1.9301,-1.9301,0.0,0.0,0.0,0.0,0.0,0.0,-1.9301,0.0,-1.9164,0.0,0.0,-1.8806,-1.8586,-1.8586,-1.8586,-1.8557,0.0,0.0,0.0,0.0,0.0,0.0,0.0,0.0,0.0,0.0,0.0,0.0,0.0,-1.3962,-1.3062,0.0,0.0,0.0,0.0,0.0,0.0,0.0,0.0,0.0,0.0,0.0,0.0,0.0,0.0,0.0,0.0,0.0,0.0,0.0,0.0,0.0,0.0,0.0,0.0,0.0,0.0,0.0,0.0,0.0,0.0,0.0,-1.5389,-1.5389,-1.5389,-1.5389,-1.5389,-1.5389,-1.5389,-1.559,-1.5906,-1.646,-1.6624,-1.6435,-1.6064,-1.5906,-1.5906,-1.5548,-1.5582,-1.5906,-1.5548,-1.5389,-1.5423,-1.5782,-1.5906,-1.5906,-1.5906,-1.5906,-1.5865,0.0,0.0,0.0,0.0,0.0,0.0,0.0,0.0,0.0,0.0,0.0,0.0,0.0,0.0,0.0,0.0,0.0,0.0,0.0,0.0,0.0,0.0,0.0,0.0,0.0,0.0,0.0,0.0,0.0,0.0,0.0,0.0,-1.9301,-1.9301,0.0,-1.9301,0.0,-1.9301,-1.9301,-1.9301,-1.9301,-1.9301,-1.9262,-1.9112,0.0,0.0,0.0,0.0,0.0,0.0,0.0,0.0,0.0,0.0,0.0,0.0,0.0,0.0,0.0,0.0,0.0,0.0,0.0,0.0,0.0,0.0,0.0,0.0,0.0,0.0,0.0,0.0,0.0,0.0,0.0,0.0,0.0,0.0,0.0,0.0,0.0,0.0,0.0,0.0,0.0,0.0,0.0,0.0,0.0,-1.5389,-1.5389,-1.5389,-1.5389,-1.5431,-1.5506,-1.5506,-1.5948,-1.6813,-1.6903,-1.735,-1.8078,-1.7229,-1.6821,-1.678,-1.5989,-1.6105,-1.6739,-1.5948,-1.5631,-1.5707,-1.6501,-1.678,-1.678,-1.678,-1.6739,-1.6583,0.0,0.0,0.0,0.0,0.0,0.0,0.0,0.0,0.0,0.0,0.0,0.0,0.0,0.0,0.0,0.0,0.0,0.0,0.0,0.0,0.0,0.0,0.0,0.0,0.0,0.0,0.0,0.0,0.0,0.0,0.0,0.0,0.0,-1.9301,0.0,-1.9301,0.0,-1.9301,-1.9301,-1.9301,-1.9301,-1.9301,-1.9301,-1.9262,-1.8613,0.0,0.0,0.0,0.0,0.0,0.0,0.0,0.0,-1.4322,-1.4078,-1.4573,0.0,0.0,0.0,0.0,0.0,0.0,0.0,0.0,0.0,0.0,0.0,0.0,0.0,0.0,0.0,0.0,0.0,0.0,0.0,0.0,0.0,0.0,0.0,0.0,0.0,0.0,0.0,0.0,0.0,0.0,0.0,0.0,-1.5389,-1.5389,-1.5389,-1.5389,-1.5389,-1.5748,-1.6419,-1.6419,-1.6862,0.0,-1.8407,-1.8856,-1.8975,-1.8118,-1.7715,-1.7715,-1.7521,-1.7553,-1.7715,-1.7521,-1.744,-1.748,-1.7634,-1.7513,-1.7229,-1.7229,-1.7041,-1.6681,0.0,0.0,0.0,0.0,0.0,0.0,0.0,0.0,0.0,0.0,0.0,0.0,0.0,0.0,0.0,0.0,0.0,0.0,0.0,0.0,0.0,0.0,0.0,0.0,0.0,0.0,0.0,0.0,0.0,0.0,0.0,0.0,0.0,-1.9301,0.0,-1.9301,-1.9301,-1.9301,-1.9301,-1.9301,-1.9301,-1.9301,-1.9301,-1.9301,-1.869,-1.7765,-1.7643,0.0,0.0,0.0,0.0,0.0,0.0,0.0,-1.3998,0.0,0.0,0.0,0.0,0.0,0.0,0.0,0.0,0.0,0.0,0.0,0.0,0.0,0.0,0.0,0.0,0.0,0.0,0.0,0.0,0.0,0.0,0.0,0.0,0.0,0.0,0.0,0.0,0.0,0.0,0.0,0.0,-1.5389,-1.5389,-1.5389,-1.5389,-1.5389,-1.5782,-1.6221,-1.6698,-1.7107,-1.7755,-1.8647,-1.9094,-1.9539,-1.9893,-1.9006,-1.8607,-1.8607,-1.8158,-1.8238,-1.8607,-1.8158,-1.8078,-1.8189,-1.8598,-1.8519,-1.8158,-1.8158,-1.7804,-1.7245,0.0,0.0,0.0,0.0,0.0,0.0,0.0,0.0,0.0,0.0,0.0,0.0,0.0,0.0,0.0,0.0,0.0,0.0,0.0,0.0,0.0,0.0,0.0,0.0,0.0,0.0,0.0,0.0,0.0,0.0,0.0,0.0,0.0,-1.9301,0.0,0.0,-1.9301,-1.9301,-1.9301,-1.9301,-1.9301,-1.9301,-1.9301,-1.9301,-1.8727,-1.7864,-1.7669,-1.6996,-1.6042,-1.5106,0.0,0.0,0.0,0.0,0.0,0.0,0.0,0.0,0.0,0.0,0.0,0.0,0.0,0.0,0.0,0.0,0.0,0.0,0.0,0.0,0.0,0.0,0.0,0.0,0.0,0.0,0.0,0.0,0.0,0.0,0.0,0.0,0.0,0.0,0.0,0.0,0.0,-1.5389,-1.5389,-1.5389,-1.5465,-1.5624,-1.6337,-1.6854,-1.7139,-1.7876,-1.8647,-1.9539,-1.9539,-1.9893,-2.0566,-1.9854,-1.9539,-1.9539,-1.8807,-1.8926,-1.9578,-1.8847,-1.863,-1.8859,-1.9481,-1.9481,-1.9085,-1.9006,-1.8567,-1.7925,0.0,0.0,0.0,0.0,0.0,0.0,0.0,0.0,0.0,0.0,0.0,0.0,0.0,0.0,0.0,0.0,0.0,0.0,0.0,0.0,0.0,0.0,0.0,0.0,0.0,0.0,0.0,0.0,0.0,0.0,0.0,0.0,0.0,0.0,0.0,0.0,0.0,-1.9301,-1.9301,-1.9301,-1.9301,-1.9301,-1.9301,-1.9301,-1.887,-1.826,-1.7767,-1.7135,-1.6442,-1.5828,-1.524,0.0,0.0,0.0,0.0,0.0,0.0,0.0,0.0,0.0,0.0,0.0,0.0,0.0,0.0,0.0,0.0,0.0,0.0,0.0,0.0,0.0,0.0,0.0,0.0,0.0,0.0,0.0,0.0,0.0,0.0,0.0,0.0,0.0,0.0,0.0,-1.5389,-1.5389,-1.5389,-1.5389,-1.5748,-1.6501,-1.6657,-1.7432,-1.8935,-1.9054,-1.9569,-2.045,-2.045,-2.0489,-2.0605,-2.0479,-2.0527,-2.0664,-2.0547,-2.0693,-2.0935,-2.0809,-2.0799,-2.076,-2.0381,-1.9932,-1.9441,-1.8922,-1.8442,-1.8072,0.0,0.0,0.0,0.0,0.0,0.0,0.0,0.0,0.0,0.0,0.0,0.0,0.0,0.0,0.0,0.0,0.0,0.0,0.0,0.0,0.0,0.0,0.0,0.0,0.0,0.0,0.0,0.0,0.0,0.0,0.0,-1.9301,-1.9301,0.0,0.0,0.0,0.0,0.0,0.0,-1.9301,-1.9301,-1.9301,-1.9301,-1.9301,-1.8946,-1.8332,-1.7794,-1.7171,-1.6512,-1.5961,-1.5576,-1.5196,-1.4752,0.0,0.0,0.0,0.0,0.0,0.0,0.0,0.0,0.0,0.0,0.0,0.0,0.0,0.0,0.0,0.0,0.0,0.0,0.0,0.0,0.0,0.0,0.0,0.0,0.0,0.0,0.0,0.0,0.0,0.0,0.0,0.0,0.0,-1.5389,-1.5389,-1.5389,-1.5389,-1.5782,-1.6657,-1.718,-1.8037,-1.9301,-1.9775,-2.0206,-2.0605,-2.0605,-2.0605,-2.0605,-2.0605,-2.0644,-2.0731,-2.0867,-2.0945,-2.1022,-2.1167,-2.1282,-2.1359,-2.1079,-2.0722,-2.0313,-2.001,-1.9569,-1.9125,0.0,0.0,0.0,0.0,0.0,0.0,0.0,0.0,0.0,0.0,0.0,0.0,0.0,0.0,0.0,0.0,0.0,0.0,0.0,0.0,0.0,0.0,0.0,0.0,0.0,0.0,0.0,0.0,0.0,0.0,-1.9152,-1.9152,-1.9152,0.0,-1.9262,0.0,0.0,0.0,0.0,0.0,0.0,-1.9301,0.0,0.0,0.0,0.0,0.0,-1.7274,-1.6586,-1.6098,-1.5882,-1.5691,-1.5089,-1.4903,0.0,0.0,0.0,0.0,0.0,0.0,0.0,0.0,0.0,0.0,0.0,0.0,0.0,0.0,0.0,0.0,0.0,0.0,0.0,0.0,0.0,0.0,0.0,0.0,0.0,0.0,0.0,0.0,0.0,0.0,0.0,0.0,-1.5389,-1.5389,-1.5389,-1.5631,-1.6147,-1.6984,-1.7876,-1.8767,-1.9618,-2.0284,-2.0605,-2.0605,-2.0605,-2.0605,-2.0605,-2.0605,-2.0605,-2.0605,-2.0819,-2.0945,-2.1061,-2.1205,-2.1397,-2.154,-2.1425,-2.1146,-2.0867,-2.0702,-2.0343,-1.9943,0.0,0.0,0.0,0.0,0.0,0.0,0.0,0.0,0.0,0.0,0.0,0.0,0.0,0.0,0.0,0.0,0.0,0.0,0.0,0.0,0.0,0.0,0.0,0.0,0.0,0.0,0.0,0.0,0.0,0.0,-1.874,-1.874,-1.874,-1.874,-1.9112,-1.9301,-1.9301,0.0,0.0,0.0,0.0,0.0,0.0,0.0,0.0,0.0,0.0,0.0,-1.6833,-1.6402,-1.6043,-1.5797,-1.5761,-1.5726,0.0,0.0,0.0,0.0,0.0,0.0,0.0,0.0,0.0,0.0,0.0,0.0,0.0,0.0,0.0,0.0,0.0,0.0,0.0,0.0,0.0,0.0,0.0,0.0,0.0,0.0,0.0,0.0,0.0,0.0,0.0,0.0,-1.5389,-1.5389,-1.5389,-1.618,-1.7025,-1.7917,-1.8767,-1.9657,-2.0527,-2.0566,-2.0605,-2.0605,-2.0605,-2.0605,-2.0605,-2.0605,-2.0605,-2.0605,-2.0819,-2.1138,-2.1474,-2.1464,-2.1617,-2.1731,-2.1136,-2.0905,-2.0818,-2.0187,-1.9943,-1.9982,0.0,0.0,0.0,0.0,0.0,0.0,0.0,0.0,0.0,0.0,0.0,0.0,0.0,0.0,0.0,0.0,0.0,0.0,0.0,0.0,0.0,0.0,0.0,0.0,0.0,0.0,0.0,0.0,0.0,-1.8891,-1.87,-1.87,-1.87,-1.87,-1.9002,-1.9112,-1.9112,-1.9271,0.0,0.0,0.0,0.0,0.0,0.0,0.0,0.0,0.0,0.0,0.0,0.0,0.0,-1.615,0.0,0.0,0.0,0.0,0.0,0.0,0.0,0.0,0.0,0.0,0.0,0.0,0.0,0.0,0.0,0.0,0.0,0.0,0.0,0.0,0.0,0.0,0.0,0.0,0.0,0.0,0.0,0.0,0.0,0.0,0.0,0.0,0.0,0.0,0.0,-1.5499,-1.618,-1.6535,-1.7107,-1.7957,-1.8856,-1.9736,-2.0605,-2.0605,-2.0605,-2.0605,-2.0605,-2.0654,-2.078,-2.078,-2.0858,-2.1012,-2.1051,-2.1167,-2.132,-2.1578,-2.1731,-2.1769,-2.1568,-2.1492,-2.1454,-2.1213,-2.1126,-2.1165,0.0,0.0,0.0,0.0,0.0,0.0,0.0,0.0,0.0,0.0,0.0,0.0,0.0,0.0,0.0,0.0,0.0,0.0,0.0,0.0,0.0,0.0,0.0,0.0,0.0,0.0,0.0,0.0,0.0,0.0,0.0,0.0,-1.8451,-1.8491,-1.8683,0.0,0.0,0.0,0.0,-1.9073,0.0,0.0,-1.9073,0.0,0.0,0.0,0.0,0.0,0.0,0.0,0.0,0.0,0.0,0.0,0.0,0.0,0.0,0.0,0.0,0.0,0.0,0.0,0.0,0.0,0.0,0.0,0.0,0.0,0.0,0.0,0.0,0.0,0.0,0.0,0.0,0.0,0.0,0.0,0.0,0.0,0.0,0.0,0.0,0.0,0.0,0.0,0.0,0.0,-1.7058,-1.7147,-1.7666,-1.8838,-1.945,-2.001,-2.0605,-2.0605,-2.0644,-2.0693,-2.0693,-2.0819,-2.0984,-2.0984,-2.1051,-2.1205,-2.1282,-2.132,-2.132,-2.1578,-2.1731,-2.1807,-2.1807,-2.1807,-2.1807,-2.1807,-2.1807,-2.1807,0.0,0.0,0.0,0.0,0.0,0.0,0.0,0.0,0.0,0.0,0.0,0.0,0.0,0.0,0.0,0.0,0.0,0.0,0.0,0.0,0.0,0.0,0.0,0.0,0.0,0.0,0.0,0.0,0.0,0.0,0.0,0.0,-1.8,0.0,-1.8282,-1.8482,-1.87,0.0,-1.8891,-1.87,0.0,-1.87,-1.87,0.0,0.0,0.0,-1.878,-1.8279,0.0,0.0,0.0,0.0,0.0,0.0,0.0,0.0,0.0,0.0,0.0,0.0,0.0,0.0,0.0,0.0,0.0,0.0,0.0,0.0,0.0,0.0,0.0,0.0,0.0,0.0,0.0,0.0,0.0,0.0,0.0,0.0,0.0,0.0,0.0,0.0,0.0,0.0,-1.5616,-1.594,-1.7917,-1.8037,-1.8838,-2.0566,-2.0605,-2.0605,-2.0605,-2.0605,-2.0693,-2.0906,-2.0906,-2.1022,-2.1205,-2.1205,-2.1205,-2.1244,-2.1436,-2.1502,-2.1502,-2.1502,-2.1617,-2.1807,-2.1807,-2.1807,-2.1807,-2.1807,-2.1807,-2.1807,0.0,0.0,0.0,0.0,0.0,0.0,0.0,0.0,0.0,0.0,0.0,0.0,0.0,0.0,0.0,0.0,0.0,0.0,0.0,0.0,0.0,0.0,0.0,0.0,0.0,0.0,0.0,0.0,0.0,0.0,0.0,0.0,0.0,0.0,-1.8282,-1.8322,-1.8201,-1.8612,0.0,0.0,-1.8523,-1.8571,0.0,0.0,0.0,0.0,0.0,-1.8432,0.0,0.0,-1.7369,-1.6458,0.0,0.0,0.0,0.0,0.0,0.0,-1.204,0.0,0.0,0.0,0.0,0.0,0.0,0.0,0.0,0.0,0.0,0.0,0.0,0.0,0.0,0.0,0.0,0.0,0.0,0.0,0.0,0.0,0.0,0.0,0.0,0.0,0.0,0.0,-1.5858,-1.6221,-1.8807,-1.8935,-1.945,-2.0566,-2.0605,-2.0654,-2.0819,-2.0819,-2.0935,-2.1138,-2.1138,-2.1205,-2.1436,-2.1436,-2.1502,-2.1655,-2.1693,-2.1731,-2.1731,-2.1731,-2.1769,-2.1807,-2.1807,-2.1807,-2.1807,-2.1807,-2.1807,-2.1807,0.0,0.0,0.0,0.0,0.0,0.0,0.0,0.0,0.0,0.0,0.0,0.0,0.0,0.0,0.0,0.0,0.0,0.0,0.0,0.0,0.0,0.0,0.0,0.0,0.0,0.0,0.0,0.0,0.0,0.0,0.0,0.0,0.0,0.0,0.0,0.0,0.0,0.0,0.0,0.0,-1.8282,0.0,0.0,-1.8282,-1.8233,0.0,0.0,0.0,-1.8374,-1.8477,-1.7705,0.0,0.0,0.0,0.0,0.0,0.0,0.0,0.0,0.0,0.0,0.0,0.0,0.0,0.0,-0.9884,0.0,0.0,0.0,0.0,0.0,0.0,0.0,0.0,0.0,0.0,0.0,0.0,0.0,0.0,0.0,0.0,0.0,-1.3903,-1.5165,-1.7309,-1.6345,-1.6714,-1.9183,-1.9657,-2.0089,-2.0566,-2.0605,-2.0693,-2.0906,-2.0819,-2.0974,-2.132,-2.1244,-2.1359,-2.1617,-2.1617,-2.1693,-2.1807,-2.1807,-2.1807,-2.1807,-2.1807,-2.1807,-2.1807,-2.1807,-2.1807,-2.1807,-2.1807,-2.1807,-2.1807,0.0,0.0,0.0,0.0,0.0,0.0,0.0,0.0,0.0,0.0,0.0,0.0,0.0,0.0,0.0,0.0,0.0,0.0,0.0,0.0,0.0,0.0,0.0,0.0,0.0,0.0,0.0,0.0,0.0,0.0,0.0,0.0,0.0,0.0,0.0,0.0,0.0,0.0,0.0,-1.8,-1.8,-1.8,0.0,0.0,-1.8,0.0,-1.8408,-1.834,-1.8162,-1.8795,-1.8029,0.0,0.0,0.0,0.0,0.0,-1.4124,0.0,0.0,0.0,0.0,0.0,0.0,0.0,-0.996,-0.9916,-0.9884,0.0,0.0,0.0,0.0,0.0,0.0,0.0,0.0,0.0,0.0,0.0,0.0,0.0,0.0,0.0,-1.35,-1.4029,-1.5249,-1.7543,-1.7188,-1.7561,-1.9222,-2.0128,-2.0605,-2.0605,-2.0605,-2.0693,-2.0906,-2.0731,-2.0915,-2.1502,-2.132,-2.1436,-2.1807,-2.1807,-2.1807,-2.1807,-2.1807,-2.1807,-2.1807,-2.1807,-2.1807,-2.1807,-2.1807,-2.1807,-2.1807,-2.1807,-2.1807,-2.1807,0.0,0.0,0.0,0.0,0.0,0.0,0.0,0.0,0.0,0.0,0.0,0.0,0.0,0.0,0.0,0.0,0.0,0.0,0.0,0.0,0.0,0.0,0.0,0.0,0.0,0.0,0.0,0.0,0.0,0.0,0.0,0.0,0.0,0.0,0.0,0.0,0.0,0.0,0.0,-1.8,-1.8,0.0,-1.8,-1.8,-1.8,-1.8008,-1.8076,-1.8288,-1.8419,0.0,-1.7697,-1.7414,0.0,0.0,0.0,0.0,0.0,0.0,0.0,0.0,0.0,0.0,0.0,0.0,-1.0143,-1.003,-0.9884,0.0,0.0,0.0,0.0,0.0,0.0,0.0,0.0,0.0,0.0,0.0,0.0,0.0,0.0,0.0,-1.3722,-1.4195,-1.5376,-1.7527,-1.8988,-1.9648,-1.9301,-2.0128,-2.0605,-2.0605,-2.0605,-2.0693,-2.0906,-2.0867,-2.1051,-2.1502,-2.1474,-2.1589,-2.1807,-2.1807,-2.1807,-2.1807,-2.1807,-2.1807,-2.1807,-2.1807,-2.1807,-2.1807,-2.1807,-2.1807,-2.1807,-2.1807,-2.1807,-2.1807,0.0,0.0,0.0,0.0,0.0,0.0,0.0,0.0,0.0,0.0,0.0,0.0,0.0,0.0,0.0,0.0,0.0,0.0,0.0,0.0,0.0,0.0,0.0,0.0,0.0,0.0,0.0,0.0,0.0,0.0,0.0,0.0,0.0,0.0,0.0,0.0,0.0,0.0,-1.8,-1.8,-1.8,0.0,-1.8,-1.8,-1.8,-1.8,-1.8,-1.8271,-1.8546,-1.8079,-1.7838,0.0,0.0,-1.5848,-1.5701,0.0,-1.4638,-1.4358,0.0,0.0,0.0,-1.1037,0.0,0.0,0.0,-1.0218,-1.0143,-0.996,0.0,0.0,0.0,0.0,0.0,0.0,0.0,0.0,0.0,0.0,0.0,0.0,0.0,0.0,-1.4571,-1.4574,-1.5426,-1.7688,-1.9559,-2.0401,-1.9971,-2.0372,-2.0605,-2.0605,-2.0605,-2.0693,-2.0906,-2.0819,-2.1002,-2.1502,-2.1397,-2.1502,-2.1807,-2.1807,-2.1807,-2.1807,-2.1807,-2.1807,-2.1807,-2.1807,-2.1807,-2.1807,-2.1807,-2.1807,-2.1807,-2.1807,-2.1807,-2.1807,0.0,0.0,0.0,0.0,0.0,0.0,0.0,0.0,0.0,0.0,0.0,0.0,0.0,0.0,0.0,0.0,0.0,0.0,0.0,0.0,0.0,0.0,0.0,-1.8273,0.0,0.0,0.0,0.0,0.0,0.0,0.0,0.0,0.0,0.0,0.0,0.0,0.0,0.0,0.0,-1.8,0.0,-1.8,-1.8,-1.8,-1.8,-1.8,-1.8,-1.8228,-1.8477,-1.8477,0.0,-1.7388,-1.6974,-1.6564,0.0,0.0,0.0,0.0,0.0,0.0,0.0,0.0,0.0,-1.07,0.0,0.0,0.0,-1.0067,0.0,0.0,0.0,0.0,0.0,0.0,0.0,0.0,0.0,0.0,0.0,0.0,0.0,0.0,0.0,-1.5287,-1.6023,-1.7883,-1.9683,-2.0693,-2.0605,-2.0605,-2.0605,-2.0605,-2.0605,-2.0693,-2.0906,-2.0731,-2.0925,-2.1502,-2.1359,-2.1464,-2.1807,-2.1807,-2.1807,-2.1807,-2.1807,-2.1807,-2.1807,-2.1807,-2.1807,-2.1807,-2.1807,-2.1807,-2.1807,-2.1807,-2.1807,-2.1807,0.0,0.0,0.0,0.0,0.0,0.0,0.0,0.0,0.0,0.0,0.0,0.0,0.0,0.0,0.0,0.0,0.0,0.0,-1.87,0.0,0.0,0.0,0.0,0.0,-1.8,0.0,0.0,0.0,0.0,0.0,0.0,0.0,0.0,0.0,-1.8,0.0,0.0,0.0,-1.8,0.0,-1.8,-1.8,0.0,-1.8,-1.8,-1.8,-1.8,-1.8025,-1.8059,0.0,-1.8019,-1.7759,0.0,-1.6675,0.0,0.0,0.0,0.0,0.0,0.0,0.0,0.0,-1.1109,0.0,0.0,0.0,-1.0475,-1.0443,0.0,0.0,0.0,0.0,0.0,0.0,0.0,0.0,0.0,0.0,0.0,0.0,0.0,0.0,0.0,-1.675,-1.8091,-1.8014,-1.9953,-2.0986,-2.0625,-2.0605,-2.0605,-2.0605,-2.0605,-2.0693,-2.0906,-2.0867,-2.1089,-2.1502,-2.1474,-2.1578,-2.1807,-2.1807,-2.1807,-2.1807,-2.1807,-2.1807,-2.1807,-2.1807,-2.1807,-2.1807,-2.1807,-2.1807,-2.1807,-2.1807,-2.1807,-2.1807,0.0,0.0,0.0,0.0,0.0,0.0,0.0,0.0,0.0,0.0,0.0,0.0,0.0,0.0,0.0,0.0,0.0,-1.8834,0.0,0.0,0.0,0.0,0.0,0.0,0.0,0.0,0.0,0.0,-1.8,0.0,0.0,0.0,0.0,0.0,-1.8,0.0,-1.8,0.0,0.0,0.0,0.0,0.0,0.0,-1.8,-1.8,-1.8,-1.8,-1.8,-1.8,0.0,-1.8,0.0,0.0,0.0,0.0,0.0,0.0,0.0,0.0,0.0,0.0,0.0,0.0,0.0,-1.12,0.0,-1.0775,0.0,0.0,0.0,0.0,0.0,0.0,0.0,0.0,0.0,0.0,0.0,0.0,0.0,0.0,0.0,0.0,0.0,0.0,0.0,-2.0,-2.1035,-2.0625,-2.0605,-2.0605,-2.0605,-2.0605,-2.0644,-2.0731,-2.0829,-2.1051,-2.132,-2.1436,-2.1617,-2.1807,-2.1807,-2.1807,-2.1807,-2.1807,-2.1807,-2.1807,-2.1807,-2.1807,-2.1807,-2.1807,-2.1807,-2.1807,-2.1807,-2.1807,-2.1807,0.0,0.0,0.0,0.0,0.0,0.0,0.0,0.0,0.0,0.0,0.0,0.0,-1.8851,-1.8922,0.0,0.0,0.0,-1.9213,0.0,0.0,-1.8873,0.0,0.0,0.0,0.0,0.0,0.0,0.0,0.0,0.0,0.0,0.0,0.0,0.0,0.0,-1.8121,-1.8282,0.0,0.0,-1.8282,-1.8072,-1.8,-1.8,-1.8,-1.8,-1.8,-1.8,-1.8,-1.8,-1.8,-1.8,0.0,-1.8,0.0,0.0,0.0,0.0,0.0,-1.4227,0.0,0.0,0.0,0.0,0.0,0.0,0.0,0.0,0.0,0.0,0.0,0.0,0.0,0.0,0.0,0.0,0.0,0.0,0.0,0.0,0.0,0.0,0.0,0.0,0.0,0.0,-1.8623,-2.037,-2.1202,-2.0635,-2.0605,-2.0605,-2.0605,-2.0605,-2.0644,-2.076,-2.0896,-2.1099,-2.1359,-2.1502,-2.1655,-2.1807,-2.1807,-2.1807,-2.1807,-2.1807,-2.1807,-2.1807,-2.1807,-2.1807,-2.1807,-2.1807,-2.1807,-2.1807,-2.1807,-2.1807,-2.1807,0.0,-2.0235,0.0,0.0,0.0,0.0,0.0,0.0,0.0,0.0,0.0,0.0,0.0,0.0,0.0,0.0,0.0,-1.9864,-1.9855,0.0,-1.9262,0.0,0.0,-1.8322,0.0,0.0,0.0,0.0,0.0,0.0,0.0,0.0,0.0,0.0,0.0,-1.8362,-1.8922,-1.8282,-1.8353,-1.8922,-1.8282,-1.8,-1.8,0.0,-1.8,-1.8,-1.8,0.0,0.0,-1.8,-1.8,0.0,0.0,0.0,0.0,0.0,0.0,0.0,0.0,0.0,0.0,-1.2548,0.0,0.0,0.0,0.0,-1.1477,0.0,0.0,0.0,0.0,0.0,0.0,0.0,0.0,0.0,0.0,0.0,0.0,0.0,0.0,0.0,0.0,0.0,0.0,-1.987,-2.1306,-2.1727,-2.0654,-2.0605,-2.0605,-2.0605,-2.0605,-2.0809,-2.1167,-2.1167,-2.1397,-2.1769,-2.1807,-2.1807,-2.1807,-2.1807,-2.1807,-2.1807,-2.1807,-2.1807,-2.1807,-2.1807,-2.1807,-2.1807,-2.1807,-2.1807,-2.1807,-2.1807,-2.1807,-2.1807,0.0,0.0,0.0,0.0,0.0,0.0,0.0,-2.0265,0.0,0.0,0.0,0.0,0.0,0.0,-1.9825,0.0,0.0,-2.0382,-1.9943,-1.9717,0.0,0.0,0.0,-1.8313,0.0,0.0,-1.8,-1.8,0.0,0.0,0.0,0.0,0.0,0.0,0.0,-1.8353,0.0,0.0,0.0,0.0,0.0,-1.8241,-1.7635,0.0,-1.8,-1.8,-1.8,-1.8,0.0,-1.8,-1.8,-1.8,-1.8,-1.8,-1.7951,-1.7659,-1.7155,-1.6568,0.0,0.0,-1.5334,-1.3811,0.0,0.0,0.0,0.0,0.0,0.0,0.0,0.0,0.0,0.0,0.0,0.0,0.0,0.0,0.0,0.0,0.0,0.0,0.0,0.0,0.0,0.0,0.0,-2.0336,-2.1217,-2.1471,-2.081,-2.0819,-2.0819,-2.0819,-2.0935,-2.1051,-2.1205,-2.132,-2.1474,-2.1617,-2.1731,-2.1807,-2.1807,-2.1807,-2.1807,-2.1807,-2.1807,-2.1807,-2.1807,-2.1807,-2.1807,-2.1807,-2.1807,-2.1807,-2.1807,-2.1807,-2.1807,-2.1807,-2.2294,0.0,0.0,0.0,0.0,0.0,0.0,0.0,0.0,0.0,-2.0934,0.0,-2.0343,0.0,-2.0498,0.0,-2.0857,-2.1049,-2.0615,-2.0382,0.0,-2.0576,-1.9362,0.0,0.0,0.0,-1.8696,-1.8696,0.0,-1.8696,0.0,0.0,0.0,0.0,0.0,0.0,0.0,0.0,-1.9648,0.0,0.0,-1.8705,0.0,0.0,-1.8121,-1.7797,0.0,-1.8,-1.8,-1.8,-1.8,-1.8,-1.8,-1.8,-1.8,-1.8,-1.7619,-1.7074,-1.678,-1.6698,0.0,-1.488,-1.4814,0.0,-1.323,0.0,0.0,0.0,0.0,0.0,0.0,0.0,0.0,0.0,0.0,0.0,0.0,0.0,0.0,0.0,0.0,0.0,0.0,0.0,-2.0392,-2.0878,-2.1607,-2.172,0.0,0.0,-2.1022,-2.1022,-2.1138,-2.1244,-2.132,-2.1436,-2.155,-2.1617,-2.1731,-2.1807,-2.1807,-2.1807,-2.1807,-2.1807,-2.1807,-2.1807,-2.1807,-2.1807,-2.1807,-2.1807,-2.1807,-2.1807,-2.1807,-2.1807,-2.1807,-2.1807,0.0,0.0,0.0,0.0,-2.188,0.0,0.0,0.0,-2.1838,0.0,-2.1818,-2.1568,-2.1021,-2.1454,-2.1568,-2.0982,-2.1454,0.0,-2.1807,-2.1252,0.0,0.0,-2.0576,-2.0216,-2.0905,0.0,0.0,0.0,0.0,0.0,0.0,0.0,0.0,0.0,-1.9904,0.0,-2.0867,-2.0216,-2.0226,-2.0566,-1.9923,-1.9411,-1.9033,-1.9042,-1.8362,-1.7473,-1.7878,-1.8,-1.8,-1.8,-1.8,-1.8,-1.8,-1.8,-1.8,-1.8,-1.8,-1.7829,-1.6992,-1.6739,-1.6576,-1.5677,-1.5477,0.0,0.0,0.0,-1.3763,0.0,0.0,0.0,0.0,0.0,0.0,0.0,0.0,0.0,0.0,0.0,0.0,0.0,0.0,0.0,0.0,-2.0264,-2.1356,-2.1505,-2.2329,-2.2341,0.0,0.0,-2.1205,-2.1205,-2.1205,-2.132,-2.1502,-2.1502,-2.1617,-2.1807,-2.1807,-2.1807,-2.1807,-2.1807,-2.1807,-2.1807,-2.1807,-2.1807,-2.1807,-2.1807,-2.1807,-2.1807,-2.1807,-2.1807,-2.1807,-2.1807,-2.1807,-2.1807,-2.3184,-2.3184,-2.3111,0.0,-2.2832,-2.2832,0.0,0.0,0.0,0.0,-2.2025,-2.1731,-2.1568,-2.1731,-2.1731,-2.1568,-2.1731,0.0,0.0,0.0,0.0,-2.1759,-2.0576,-2.0216,-2.0905,-2.0226,0.0,-1.9904,0.0,0.0,-1.9904,0.0,0.0,0.0,0.0,0.0,-2.0905,-2.0702,-2.0702,-2.0828,-2.0634,-2.0031,0.0,0.0,-1.8696,-1.7668,-1.7919,-1.8,-1.8,-1.8,-1.8,-1.8,-1.8,-1.8,-1.8,-1.8,-1.8,-1.7951,-1.774,-1.7659,-1.7448,-1.6583,-1.637,-1.6124,0.0,0.0,0.0,0.0,0.0,0.0,0.0,0.0,0.0,0.0,0.0,0.0,0.0,0.0,0.0,0.0,0.0,0.0,-1.9366,-2.0233,-2.1053,-2.1858,-2.1909,-2.1718,-2.1446,0.0,0.0,-2.1436,-2.1578,-2.1655,-2.1731,-2.1731,-2.1769,-2.1807,-2.1807,-2.1807,-2.1807,-2.1807,-2.1807,-2.1807,-2.1807,-2.1807,-2.1807,-2.1807,-2.1807,-2.1807,-2.1807,-2.1807,-2.1807,-2.1807,-2.1807,-2.1807,-2.3774,0.0,0.0,-2.3774,0.0,0.0,-2.3246,0.0,0.0,-2.2801,-2.2397,0.0,-2.2108,-2.1921,-2.1807,-2.1807,-2.1807,0.0,-2.1807,0.0,0.0,-2.1807,-2.1126,-2.0895,-2.13,-2.0934,0.0,-2.0731,0.0,0.0,-2.0731,0.0,0.0,0.0,0.0,-2.0895,0.0,-2.1069,-2.1031,-2.1031,-2.1146,0.0,0.0,-2.0001,-1.9411,-1.8496,-1.8362,-1.804,-1.7757,-1.7959,-1.8,-1.8,-1.8,-1.8,-1.8,-1.8,-1.8,-1.8,-1.8,-1.8,-1.787,-1.7408,-1.7286,-1.7033,-1.6173,-1.5966,-1.5947,0.0,-1.5434,-1.5375,0.0,0.0,0.0,0.0,0.0,0.0,0.0,0.0,0.0,0.0,0.0,0.0,-2.0108,-2.0643,-2.1246,-2.2022,-2.1998,-2.1871,0.0,0.0,0.0,-2.1617,-2.1731,-2.1807,-2.1807,-2.1807,-2.1807,-2.1807,-2.1807,-2.1807,-2.1807,-2.1807,-2.1807,-2.1807,-2.1807,-2.1807,-2.1807,-2.1807,-2.1807,-2.1807,-2.1807,-2.1807,-2.1807,-2.1807,-2.1807,-2.1807,0.0,0.0,0.0,0.0,0.0,0.0,0.0,-2.3318,0.0,-2.3277,0.0,-2.2584,-2.2584,-2.2232,-2.1963,-2.1901,0.0,-2.1869,-2.1807,-2.1807,-2.1807,-2.1807,-2.1807,-2.1807,-2.1807,-2.1807,0.0,0.0,0.0,0.0,0.0,0.0,0.0,0.0,0.0,0.0,0.0,-2.132,-2.1244,-2.1244,-2.1474,-2.1233,-2.076,-2.0683,-2.0245,-1.9559,-1.9042,-1.8282,-1.7595,-1.7838,-1.7959,-1.7991,-1.7959,-1.7959,-1.8,-1.8,-1.8,-1.8,-1.8,-1.8,-1.8,-1.8,-1.8,-1.7789,-1.7033,-1.6862,-1.6862,-1.6862,-1.6255,-1.6221,-1.7708,0.0,0.0,0.0,0.0,0.0,0.0,0.0,0.0,0.0,0.0,0.0,0.0,-2.1384,-2.1687,-2.2073,-2.2341,-2.2294,0.0,0.0,0.0,-2.1807,-2.1807,-2.1807,-2.1807,-2.1807,-2.1807,-2.1807,-2.1807,-2.1807,-2.1807,-2.1807,-2.1807,-2.1807,-2.1807,-2.1807,-2.1807,-2.1807,-2.1807,-2.1807,-2.1807,-2.1807,-2.1807,-2.1807,-2.1807,-2.1807,0.0,0.0,0.0,0.0,0.0,-2.4445,-2.429,-2.3991,-2.3764,-2.3764,-2.336,-2.307,-2.307,-2.2987,-2.2791,-2.2408,-2.2377,0.0,0.0,0.0,0.0,-2.1807,-2.1807,-2.1807,-2.1807,-2.1807,-2.1807,0.0,-2.1807,-2.1807,0.0,0.0,0.0,0.0,0.0,0.0,-2.1282,-2.1578,0.0,-2.1474,-2.1655,-2.1693,-2.154,-2.1233,-2.0595,-1.9825,-1.9736,-1.9161,-1.8371,-1.7716,-1.7716,-1.7959,-1.7595,-1.7716,-1.8,-1.8,-1.8,-1.8,-1.8,-1.8,-1.8,-1.8,-1.8,-1.7959,-1.7829,-1.7789,-1.7789,-1.7789,-1.7659,-1.7627,-1.7951,0.0,0.0,0.0,0.0,0.0,0.0,0.0,0.0,0.0,0.0,0.0,0.0,0.0,0.0,0.0,0.0,-2.2294,0.0,0.0,0.0,0.0,-2.1807,0.0,0.0,0.0,-2.1807,-2.1807,-2.1807,-2.1807,-2.1807,-2.1807,-2.1807,-2.1807,-2.1807,-2.1807,-2.1807,-2.1807,-2.1807,-2.1807,-2.1807,-2.1807,-2.1807,-2.1807,-2.1807,-2.1807,0.0,0.0,0.0,0.0,0.0,0.0,0.0,-2.4321,0.0,-2.4219,-2.3826,-2.3546,-2.3546,-2.3329,-2.3101,-2.2873,-2.2635,-2.2397,-2.218,-2.1942,-2.1807,-2.1807,-2.1807,0.0,-2.1807,-2.1807,-2.1807,-2.1807,-2.1807,-2.1807,0.0,0.0,0.0,0.0,0.0,-2.132,0.0,0.0,0.0,-2.1079,-2.1464,-2.1578,-2.1474,-2.1177,-2.0848,-2.0518,-2.0059,-1.9636,-1.9161,-1.8063,-1.7991,-1.821,-1.731,-1.7473,-1.7959,-1.7757,-1.7838,-1.8,-1.8,-1.8,-1.8,-1.8,-1.8,-1.8,-1.8,-1.8,-1.8,-1.8,-1.8,-1.8,-1.8,-1.8,0.0,0.0,0.0,0.0,0.0,0.0,0.0,0.0,0.0,0.0,0.0,0.0,0.0,0.0,0.0,0.0,0.0,0.0,-2.1807,0.0,0.0,0.0,-2.1807,0.0,-2.1807,-2.1807,-2.1807,-2.1807,-2.1807,-2.1807,-2.1807,-2.1807,-2.1807,-2.1807,-2.1807,-2.1807,-2.1807,-2.1807,-2.1807,-2.1807,-2.1807,-2.1807,-2.1807,-2.1807,0.0,-2.4497,0.0,0.0,-2.4497,0.0,-2.4497,-2.4497,-2.4497,-2.4497,-2.4229,-2.4022,-2.4022,-2.3701,-2.3432,-2.335,-2.2998,-2.2749,-2.2646,-2.2211,-2.1952,-2.1952,-2.1859,-2.1807,-2.1807,-2.1807,-2.1807,0.0,-2.1807,-2.1859,0.0,0.0,0.0,0.0,0.0,0.0,0.0,0.0,-2.1233,-2.076,-2.1272,-2.1436,-2.132,-2.1061,-2.1061,-2.1089,-2.0381,-2.0098,-1.9854,-1.8687,-1.8385,-1.8362,-1.7294,-1.7343,-1.7708,-1.7554,-1.7676,-1.7878,-1.8,-1.8,-1.8,-1.8,-1.8,-1.8,-1.8,-1.8,-1.8,-1.8,-1.8,-1.8,-1.8,-1.8,0.0,0.0,0.0,0.0,0.0,0.0,0.0,0.0,0.0,0.0,0.0,0.0,0.0,0.0,0.0,-2.1987,-2.1818,-2.1807,-2.1807,0.0,0.0,-2.1807,-2.1807,0.0,-2.1807,-2.1807,-2.1807,-2.1807,-2.1807,-2.1807,-2.1807,-2.1807,-2.1807,-2.1807,-2.1807,-2.1807,-2.1807,-2.1807,-2.1807,-2.1807,-2.1807,-2.1807,-2.1869,-2.1952,0.0,0.0,0.0,0.0,0.0,0.0,-2.4497,-2.4497,-2.4497,-2.4497,-2.4466,-2.4435,-2.4435,-2.4394,-2.425,-2.3857,-2.3774,-2.3567,-2.3153,-2.2687,-2.2428,-2.2428,-2.2035,-2.1807,-2.1807,-2.1807,-2.1807,0.0,-2.1807,-2.2025,-2.2418,0.0,0.0,0.0,0.0,0.0,0.0,-2.1502,-2.154,-2.1167,-2.1387,-2.1617,-2.1693,-2.132,-2.1167,-2.1167,-2.0906,-2.0702,-2.0411,-1.949,-1.8687,-1.8046,-1.7925,-1.7408,-1.6984,-1.7708,-1.7716,-1.7554,-1.7919,-1.8,-1.8,-1.8,-1.8,-1.8,-1.8,-1.8,-1.8,-1.8,-1.8,-1.8,-1.8,-1.8,-1.8,0.0,0.0,0.0,0.0,0.0,0.0,0.0,0.0,0.0,0.0,0.0,0.0,0.0,0.0,-2.2629,-2.1828,-2.1807,-2.1807,-2.1807,-2.1807,-2.1807,-2.1807,-2.1807,-2.1807,-2.1807,-2.1807,-2.1807,-2.1807,-2.1807,-2.1807,-2.1807,-2.1807,-2.1807,-2.1807,-2.1807,-2.1807,-2.1807,-2.1807,-2.1807,-2.1807,-2.1807,-2.2066,-2.2428,0.0,0.0,0.0,0.0,0.0,0.0,0.0,-2.4497,-2.4497,-2.4497,-2.4497,-2.4497,-2.4497,-2.4497,-2.4425,-2.4249,-2.4033,-2.3836,-2.3619,-2.3163,-2.278,-2.2511,-2.2325,-2.2087,-2.1818,-2.1807,-2.1807,0.0,0.0,-2.1901,-2.2076,-2.189,0.0,0.0,0.0,-2.1464,-2.0945,-2.154,-2.1502,-2.1022,-2.1244,-2.1436,-2.1578,-2.1167,-2.1089,-2.1167,-2.0984,-2.078,-2.0566,-2.0216,-1.9648,-1.8935,-1.7634,-1.7529,-1.7797,-1.7343,-1.7473,-1.7797,-1.7959,-1.8,-1.8,-1.8,-1.8,-1.8,-1.8,-1.8,-1.8,-1.8,-1.8,-1.8,-1.8,-1.8,-1.8,-1.8,0.0,0.0,0.0,0.0,0.0,0.0,0.0,0.0,0.0,0.0,0.0,0.0,0.0,-2.2157,-2.1818,-2.1807,-2.1807,-2.1807,0.0,-2.1807,-2.1807,-2.1807,-2.1807,-2.1807,-2.1807,-2.1807,-2.1807,-2.1807,-2.1807,-2.1807,-2.1807,-2.1807,-2.1807,-2.1807,-2.1807,-2.1807,-2.1807,-2.1807,-2.1838,-2.2118,-2.2335,-2.2532,-2.4861,0.0,-2.4946,0.0,-2.5274,-2.5274,-2.5274,-2.5062,-2.4861,-2.4861,-2.4658,-2.4497,-2.4497,-2.4497,-2.4497,-2.4497,-2.425,-2.4074,-2.4074,-2.365,-2.3246,-2.2915,-2.277,0.0,-2.2025,-2.2004,-2.1942,-2.1807,-2.1807,-2.188,-2.2004,-2.2004,-2.1865,0.0,-2.1731,-2.154,-2.1099,-2.1578,-2.1512,-2.1099,-2.1167,-2.132,-2.1464,-2.1128,-2.1099,-2.1167,-2.1022,-2.0858,-2.0693,-2.0605,-2.0372,-1.9775,-1.7876,-1.7723,-1.8031,-1.7139,-1.7221,-1.7668,-1.791,-1.8,-1.8,-1.8,-1.8,-1.8,-1.8,-1.8,-1.808,-1.8233,-1.8273,-1.8353,-1.8545,-1.8545,-1.8616,-1.8727,0.0,0.0,0.0,0.0,0.0,0.0,-2.258,-2.2852,-2.244,0.0,0.0,0.0,0.0,0.0,-2.1959,-2.1997,-2.1921,0.0,0.0,0.0,-2.1807,-2.1807,-2.1807,-2.1807,-2.1807,-2.1807,-2.1807,-2.1807,-2.1807,-2.1807,-2.1807,-2.1807,-2.1807,-2.1807,-2.1807,-2.1818,-2.1952,-2.2004,-2.2066,-2.2532,-2.278,-2.2946,-2.5777,-2.5777,-2.6069,-2.6905,-2.7069,-2.7069,-2.7069,-2.6318,-2.5777,-2.5777,-2.502,-2.4497,-2.4497,-2.4497,-2.4497,-2.4497,-2.4497,-2.4487,-2.4487,-2.4115,-2.3909,0.0,0.0,-2.2956,-2.2501,-2.249,-2.2263,-2.1807,0.0,0.0,-2.249,-2.249,-2.2242,-2.1807,-2.1807,-2.1693,-2.1512,-2.1693,-2.1693,-2.1474,-2.1282,-2.132,-2.1464,-2.1282,-2.1205,-2.1205,-2.1205,-2.1061,-2.0867,-2.0654,-2.0605,-2.0362,-1.9094,-1.7908,-1.709,-1.7343,-1.7066,-1.6894,-1.7757,-1.8,-1.8,-1.8,-1.8,-1.8,-1.8,-1.8,-1.8201,-1.8834,-1.9002,-1.9183,-1.9747,-1.9904,-2.0012,-2.042,0.0,0.0,0.0,0.0,0.0,0.0,-2.3001,-2.2852,-2.244,0.0,0.0,0.0,0.0,0.0,0.0,0.0,0.0,-2.1807,-2.1807,0.0,-2.1807,-2.1807,-2.1807,-2.1807,-2.1807,-2.1807,-2.1807,-2.1807,-2.1807,-2.1807,-2.1807,-2.1807,-2.1807,-2.1807,-2.1807,-2.1849,-2.2304,-2.249,-2.2542,-2.3008,-2.3463,-2.3857,-2.7864,-2.7053,-2.6672,-2.7554,-2.6885,-2.64,-2.7028,-2.6853,-2.67,-2.67,-2.5913,-2.5379,-2.5379,-2.4861,-2.4497,0.0,-2.4497,-2.4497,0.0,-2.4363,-2.4198,-2.3888,-2.3743,-2.3443,-2.2977,-2.2967,-2.2739,-2.2273,0.0,0.0,0.0,-2.2025,-2.1942,-2.1807,-2.1807,-2.1693,-2.1502,-2.1693,-2.1693,-2.1502,-2.1436,-2.1436,-2.1464,-2.1282,-2.1205,-2.1205,-2.1205,-2.1061,-2.0906,-2.0819,-2.0819,-2.0625,-1.9608,-1.8767,-1.8118,-1.8055,-1.7627,-1.731,-1.7838,-1.8313,-1.8683,-1.8683,-1.8975,-1.9323,-1.9323,-1.8984,-1.8594,-1.8362,-1.8683,-1.9073,-1.9262,-1.9638,-1.9933,-2.009,-2.0875,0.0,-2.168,0.0,0.0,0.0,-2.3001,-2.2964,-2.2815,-2.2665,0.0,0.0,0.0,0.0,0.0,0.0,0.0,0.0,-2.1807,0.0,-2.1807,-2.1807,-2.1807,-2.1807,-2.1807,-2.1807,-2.1807,-2.1807,-2.1807,-2.1807,-2.1807,-2.1983,-2.2273,-2.2273,-2.247,-2.276,-2.2915,-2.2967,-2.3018,-2.3484,-2.3753,-2.3919,-2.9296,-2.8572,-2.8238,-2.9118,-2.8351,-2.7807,-2.8348,-2.7968,-2.7637,-2.7637,-2.6853,-2.6152,-2.583,-2.5295,0.0,-2.454,-2.4497,-2.4497,-2.4497,-2.4497,-2.4373,-2.4136,-2.4126,-2.3919,-2.3453,-2.3443,0.0,-2.2749,-2.2749,-2.2522,-2.2066,-2.2066,-2.1973,-2.1807,-2.1807,-2.1731,-2.1617,-2.1731,-2.1731,-2.1617,-2.154,-2.1502,-2.1512,-2.1359,-2.132,-2.132,-2.132,-2.1244,-2.1099,-2.1022,-2.1022,-2.0935,-2.0362,-1.9687,-1.8975,-1.8647,-1.8296,-1.8103,-1.8505,-1.8984,-1.9341,-1.9341,-1.9599,-1.9904,-1.9904,-1.9599,-1.9301,-1.9134,-1.942,-1.9775,-2.001,-2.0352,-2.0653,-2.0798,-2.1385,-2.189,-2.2042,0.0,-2.3446,0.0,0.0,0.0,0.0,-2.2927,-2.2815,0.0,0.0,0.0,0.0,0.0,-2.1959,-2.1807,-2.1807,-2.1807,-2.1807,-2.1807,-2.1807,-2.1807,-2.1807,-2.1807,-2.1818,-2.1983,-2.2066,-2.2076,-2.2252,-2.249,-2.2749,-2.2749,-2.2925,-2.3205,-2.3381,-2.3443,-2.3505,-2.396,-2.4126,-2.4167,-3.0326,-3.0248,-3.0433,0.0,-3.0982,-3.0578,-3.058,-2.9512,-2.863,-2.8593,-2.777,-2.6894,-2.6069,-2.5872,-2.5463,-2.4658,0.0,0.0,-2.4497,-2.4497,-2.4497,-2.4497,-2.4497,-2.4301,-2.3929,-2.3929,-2.3701,-2.3236,-2.3205,-2.2967,-2.2542,-2.2542,-2.2315,-2.1901,-2.1869,-2.1859,-2.1849,-2.1818,-2.1807,-2.1769,-2.1589,-2.1502,-2.1502,-2.1502,-2.1502,-2.1502,-2.1502,-2.1502,-2.1474,-2.1282,-2.1205,-2.1205,-2.1205,-2.0527,-1.9638,-1.9244,-1.9076,-1.9076,-1.952,-1.9786,-1.9982,-1.9982,-2.0021,-2.0021,-1.9982,-1.9982,-2.0138,-2.0702,-2.0867,-2.1059,-2.1645,-2.1769,-2.1921,-2.2289,-2.2365,-2.2478,-2.2852,-2.3298,-2.3409,0.0,0.0,0.0,-2.3113,-2.3335,-2.3224,0.0,0.0,0.0,0.0,0.0,-2.2176,-2.1807,-2.1807,-2.1807,-2.1807,-2.1807,-2.1807,-2.1807,-2.1838,-2.1859,-2.1869,-2.2335,-2.2542,-2.2563,-2.2998,-2.3205,-2.3236,-2.3236,-2.3256,-2.3318,-2.3753,-2.3929,-2.3971,-2.4342,-2.4497,-2.4497,0.0,0.0,-3.098,-3.1847,-3.1025,-3.0315,-3.0551,-3.0336,-2.9967,-2.9557,-2.8712,-2.8091,-2.7879,-2.6648,-2.5704,-2.5505,-2.4903,-2.4497,-2.4497,-2.4497,-2.4497,-2.4497,-2.4497,-2.4456,-2.4342,-2.4342,-2.4167,-2.3712,-2.336,-2.3132,-2.3018,-2.3018,-2.2967,-2.2842,-2.249,-2.2335,-2.2304,-2.1952,-2.1807,-2.1807,-2.1769,-2.1655,-2.1502,-2.1502,-2.1502,-2.1502,-2.1502,-2.1502,-2.1502,-2.1436,-2.132,-2.1244,-2.1397,-2.1156,-2.0722,-2.0323,-1.9638,-1.9116,-1.9668,-2.0226,-2.0663,-2.0663,-2.1021,-2.1252,-2.0779,-2.0663,-2.0547,-2.0226,-2.0537,-2.0944,-2.1098,-2.1492,-2.1845,-2.1921,-2.1959,-2.1997,-2.2063,-2.2703,-2.3113,0.0,-2.3446,-2.3677,-2.3482,-2.3001,-2.2628,0.0,0.0,0.0,-2.1807,-2.1883,-2.1921,-2.1807,-2.1807,-2.1807,-2.1807,-2.1807,-2.1807,-2.1807,-2.2159,-2.2335,-2.2346,-2.2811,-2.3018,-2.3029,-2.3143,-2.3391,-2.3712,-2.3712,-2.3919,-2.4187,-2.4301,-2.4342,-2.4352,-2.4456,-2.4497,-2.4497,-3.3124,-3.2475,-3.2037,-3.2519,-3.1749,-3.1124,-3.1304,-3.0934,-3.0507,-3.0206,-2.9539,-2.8961,-2.8542,-2.7637,-2.6689,-2.5861,-2.502,-2.4497,-2.4497,-2.4497,-2.4497,-2.4497,-2.4497,-2.4497,-2.4497,-2.4497,-2.4373,-2.4178,-2.3929,-2.3701,-2.3505,-2.3505,-2.3391,-2.3174,-2.2925,-2.2811,-2.2801,-2.2542,-2.2315,-2.2118,-2.2118,-2.1917,-2.1655,-2.1655,-2.1655,-2.1655,-2.1655,-2.1655,-2.1655,-2.1655,-2.154,-2.1474,-2.1502,-2.1436,-2.1282,-2.1079,-2.0595,-2.0196,-2.0537,-2.0982,-2.129,-2.129,-2.1568,-2.1731,-2.1377,-2.129,-2.1213,-2.0857,-2.1059,-2.129,-2.129,-2.1568,-2.1807,-2.1807,-2.1807,-2.1911,-2.2289,-2.274,-2.3075,-2.3261,-2.3482,-2.353,-2.3335,-2.2927,-2.259,-2.2402,-2.2214,0.0,-2.1807,-2.1807,-2.1807,-2.1807,-2.1807,-2.1807,-2.1807,-2.2014,-2.2118,-2.2128,-2.2594,-2.2811,-2.2832,-2.3298,-2.3505,-2.3515,-2.3722,-2.395,-2.4178,-2.4178,-2.428,-2.4497,-2.4497,-2.4497,-2.4497,-2.4497,-2.4497,-2.4497,-3.3124,-3.3124,-3.3124,-3.3124,-3.2667,-3.2315,-3.2227,-3.1436,-3.0796,-3.0633,-3.0206,-2.9594,-2.8803,-2.8581,-2.7879,-2.6359,-2.539,-2.4828,-2.47,-2.47,-2.47,-2.47,-2.47,-2.4615,-2.4497,-2.4615,-2.47,-2.47,-2.47,-2.447,-2.3981,-2.3981,-2.3764,-2.3391,-2.3318,-2.3298,-2.3287,-2.3215,-2.2956,-2.2604,-2.2604,-2.2366,-2.2004,-2.1932,-2.1911,-2.1901,-2.1828,-2.1807,-2.1807,-2.1807,-2.1807,-2.1769,-2.1617,-2.154,-2.154,-2.154,-2.154,-2.154,-2.154,-2.1655,-2.1807,-2.1807,-2.1807,-2.1807,-2.1807,-2.1807,-2.1807,-2.1807,-2.1807,-2.1807,-2.1807,-2.1807,-2.1807,-2.1807,-2.1845,-2.2138,-2.2815,0.0,-2.3113,-2.3482,-2.3519,-2.3335,-2.2964,-2.2964,-2.2815,-2.244,-2.2478,-2.2327,-2.1921,-2.1883,-2.1845,-2.1807,-2.1807,-2.1838,-2.1901,-2.2304,-2.2532,-2.2604,-2.307,-2.3298,-2.3308,-2.3764,-2.3981,-2.4002,-2.4332,-2.4497,-2.4497,-2.4497,-2.4497,-2.4497,-2.4497,-2.4497,-2.4497,-2.4497,-2.4497,-2.4497,-3.3124,-3.3124,-3.3124,-3.3124,-3.3006,-3.278,-3.229,-3.2077,-3.1637,-3.0733,-3.0545,-3.0267,-2.9674,-2.8961,-2.8383,-2.8091,-2.7232,-2.637,-2.5663,-2.5579,-2.5579,-2.5579,-2.5579,-2.5263,-2.4497,-2.5221,-2.5579,-2.5579,-2.5579,-2.5189,-2.4394,-2.4394,-2.4363,-2.427,-2.3939,-2.3774,-2.3784,-2.335,-2.3143,-2.308,-2.308,-2.3039,-2.2925,-2.2542,-2.2387,-2.2335,-2.1942,-2.1807,-2.1807,-2.1807,-2.1807,-2.1807,-2.1769,-2.1769,-2.1769,-2.1769,-2.1769,-2.1769,-2.1769,-2.1769,-2.1807,-2.1807,-2.1807,-2.1807,-2.1807,-2.1807,-2.1807,-2.1807,-2.1807,-2.1807,-2.1807,-2.1807,-2.1807,-2.1807,-2.2111,-2.2365,-2.2478,0.0,-2.3038,-2.3075,-2.3075,-2.2927,-2.2515,-2.2815,-2.2815,-2.244,-2.2703,-2.274,-2.2327,-2.2327,-2.2138,-2.1807,-2.1807,-2.1994,-2.2387,-2.2459,-2.2687,-2.3091,-2.3557,-2.3774,-2.3826,-2.4229,-2.4394,-2.4404,-2.4466,-2.4497,-2.4497,-2.4497,-2.4497,-2.4497,-2.4497,-2.4497,-2.4497,-2.4497,-2.4497,-2.4497,-3.3283,-3.3154,-3.3124,-3.3124,-3.3124,-3.2993,-3.2717,-3.2416,-3.2039,-3.1537,-3.0972,-3.052,-3.0269,-2.9591,-2.9,-2.8542,-2.8091,-2.7678,-2.7261,-2.6771,-2.6483,-2.6483,-2.6027,-2.5621,-2.5221,-2.5579,-2.6027,-2.6483,-2.6483,-2.6287,-2.5883,-2.5883,-2.5631,-2.5168,-2.5008,-2.4672,-2.4219,-2.4012,-2.3784,-2.3598,-2.3598,-2.3452,-2.3163,-2.2946,-2.2873,-2.2811,-2.2346,-2.218,-2.2139,-2.189,-2.1807,-2.1807,-2.1807,-2.1807,-2.1807,-2.1807,-2.1807,-2.1807,-2.1807,-2.1807,-2.1807,-2.1807,-2.1807,-2.1807,-2.1807,-2.1807,-2.1807,-2.1807,-2.1807,-2.1807,-2.1807,-2.1807,-2.1807,-2.1807,-2.1959,-2.2138,-2.2365,-2.274,-2.3075,-2.3298,-2.3335,-2.3261,-2.3075,-2.3001,-2.2815,-2.244,-2.2553,-2.2515,-2.2101,-2.2073,-2.2102,-2.217,-2.218,-2.2397,-2.2863,-2.3122,-2.335,-2.3567,-2.4022,-2.4229,-2.424,-2.4404,-2.4497,-2.4497,-2.4497,-2.4497,-2.4497,-2.4497,-2.4497,-2.4497,-2.4497,-2.4497,-2.4497,-2.4497,-2.4497,-2.4497,-3.3471,-3.3313,-3.3154,-3.3154,-3.3111,-3.3124,-3.3124,-3.2704,-3.2365,-3.2227,-3.1499,-3.0934,-3.0809,-3.0306,-2.9733,-2.9065,-2.8864,-2.8791,-2.8791,-2.8131,-2.7637,-2.7435,-2.6565,-2.6193,-2.6442,-2.6442,-2.6771,-2.7435,-2.7435,-2.7313,-2.711,-2.711,-2.673,-2.611,-2.611,-2.5715,-2.5073,-2.4903,-2.4619,-2.4305,-2.4106,-2.3815,-2.3484,-2.3391,-2.335,-2.3287,-2.2822,-2.2656,-2.2584,-2.2118,-2.1963,-2.1952,-2.1838,-2.1807,-2.1807,-2.1807,-2.1807,-2.1807,-2.1807,-2.1807,-2.1807,-2.1807,-2.1807,-2.1807,-2.1807,-2.1807,-2.1807,-2.1807,-2.1807,-2.1807,-2.1807,-2.1807,-2.1807,-2.1807,0.0,-2.2063,-2.2478,-2.2815,-2.315,-2.3556,-2.3446,-2.3335,-2.3335,-2.3038,-2.274,-2.244,-2.2478,-2.2418,-2.2116,-2.2116,-2.2299,-2.2801,-2.2718,-2.2884,-2.335,-2.3701,-2.3929,-2.4033,-2.4332,-2.4497,-2.4497,-2.4497,-2.4497,-2.4497,-2.4497,-2.4497,-2.4497,-2.4497,-2.4497,-2.4497,-2.4497,-2.4497,-2.4497,-2.4497,-2.4497,-2.4497,-3.367,-3.3513,-3.3398,-3.3398,-3.324,-3.3124,-3.3124,-3.3043,-3.2817,-3.2277,-3.2139,-3.1901,-3.1386,-3.0871,-3.0518,-3.0465,-3.0002,-2.9714,-2.9714,-2.9624,-2.9248,-2.8422,-2.7516,-2.7395,-2.8291,-2.8291,-2.8331,-2.8422,-2.8422,-2.7971,-2.711,-2.711,-2.7069,-2.6987,-2.6987,-2.6987,-2.6864,-2.6038,-2.5683,-2.5577,-2.4766,-2.4435,-2.4352,-2.3981,-2.3867,-2.3805,-2.3298,-2.3143,-2.307,-2.2604,-2.2449,-2.2366,-2.1942,-2.1807,-2.1807,-2.1807,-2.1807,-2.1807,-2.1807,-2.1807,-2.1807,-2.1807,-2.1807,-2.1807,-2.1807,-2.1807,-2.1807,-2.1807,-2.1807,-2.1807,-2.1807,-2.1807,-2.1807,-2.1807,0.0,0.0,-2.2889,-2.2964,-2.315,-2.3556,-2.2927,-2.2478,-2.2478,-2.2478,-2.244,-2.2402,-2.274,-2.2972,-2.3002,-2.2984,-2.325,-2.3795,-2.336,-2.336,-2.3826,-2.3857,-2.4084,-2.4456,-2.4487,-2.4497,-2.4497,-2.4497,-2.4497,-2.4497,-2.4497,-2.4497,-2.4497,-2.4497,-2.4497,-2.4497,-2.4497,-2.4497,-2.4497,-2.4497,-2.4497,-2.4497,-3.3937,-3.3768,-3.3598,-3.3598,-3.3441,-3.3283,-3.3283,-3.3197,-3.3006,-3.278,-3.2441,-3.2127,-3.1926,-3.1424,-3.0972,-3.0645,-3.0419,-3.0156,-2.9817,-2.9792,-2.9417,-2.8542,-2.8171,-2.8131,-2.8502,-2.8502,-2.8752,-2.93,-2.93,-2.9131,-2.8752,-2.8752,-2.8502,-2.7971,-2.7971,-2.7354,-2.6276,-2.5944,-2.5505,-2.4978,-2.4615,-2.4497,-2.4476,-2.4311,-2.4291,-2.4229,-2.3784,-2.3619,-2.3546,-2.308,-2.2925,-2.2842,-2.2377,-2.2232,-2.218,-2.189,-2.1807,-2.1807,-2.1807,-2.1807,-2.1807,-2.1807,-2.1807,-2.1807,-2.1807,-2.1807,-2.1807,-2.1807,-2.1807,-2.1807,-2.1807,-2.1807,-2.1807,-2.1807,0.0,-2.2063,-2.2214,-2.2478,-2.2665,-2.2852,-2.2815,-2.2777,-2.2777,-2.2777,-2.2784,-2.2828,-2.3003,-2.309,-2.3173,-2.3437,-2.3679,-2.3909,-2.3971,-2.4073,-2.4291,-2.4291,-2.4332,-2.4497,-2.4497,-2.4497,-2.4497,-2.4497,-2.4497,-2.4497,-2.4497,-2.4497,-2.4497,-2.4497,-2.4497,-2.4497,-2.4497,-2.4497,-2.4497,-2.4497,-2.4497,-2.4497,-3.4202,-3.3992,-3.381,-3.381,-3.3641,-3.3471,-3.3471,-3.3398,-3.3283,-3.3197,-3.2814,-3.2563,-3.2491,-3.1989,-3.1499,-3.1148,-3.0959,-3.0633,-3.0093,-2.9892,-2.9534,-2.8922,-2.8922,-2.8922,-2.8922,-2.8922,-2.9209,-2.9792,-2.9792,-2.9792,-2.9792,-2.9792,-2.9495,-2.8922,-2.8922,-2.8211,-2.7017,-2.6442,-2.5872,-2.5274,-2.47,-2.4497,-2.4497,-2.4497,-2.4497,-2.4456,-2.4198,-2.4084,-2.4012,-2.3557,-2.3412,-2.3329,-2.2863,-2.2615,-2.2439,-2.2118,-2.1921,-2.1807,-2.1807,-2.1807,-2.1807,-2.1807,-2.1807,-2.1807,-2.1807,-2.1807,-2.1807,-2.1807,-2.1807,-2.1807,-2.1807,-2.1807,-2.1807,-2.1807,-2.1807,-2.1845,-2.1959,-2.2327,-2.259,-2.259,-2.2815,-2.3018,-2.3031,-2.3031,-2.3123,-2.3324,-2.3445,-2.362,-2.3817,-2.4116,-2.4294,-2.4294,-2.4417,-2.4497,-2.4497,-2.4497,-2.4497,-2.4497,-2.4497,-2.4497,-2.4497,-2.4497,-2.4497,-2.4497,-2.4497,-2.4497,-2.4497,-2.4497,-2.4497,-2.4497,-2.4497,-2.4497,-2.4497,-2.4497,-2.4497,-2.4497,-3.4397,-3.4243,-3.4118,-3.4118,-3.3894,-3.3713,-3.3713,-3.3713,-3.3641,-3.3441,-3.3398,-3.3313,-3.3111,-3.2566,-3.2215,-3.2215,-3.1712,-3.1173,-3.0658,-3.0105,-2.9792,-2.9792,-2.9792,-2.9792,-2.9792,-2.9792,-2.9792,-2.9792,-2.9792,-2.9792,-2.9792,-2.9792,-2.9792,-2.9792,-2.9792,-2.9792,-2.9663,-2.7851,-2.711,-2.6946,-2.5189,-2.4497,-2.4497,-2.4497,-2.4497,-2.4497,-2.4497,-2.4497,-2.4435,-2.4033,-2.3888,-2.3805,-2.3339,-2.2873,-2.2501,-2.2501,-2.218,-2.1818,-2.1818,-2.1818,-2.1807,-2.1807,-2.1807,-2.1807,-2.1807,-2.1807,-2.1807,-2.1807,-2.1807,-2.1807,-2.1807,-2.1807,-2.1807,-2.1807,-2.1807,-2.1949,-2.2327,-2.274,-2.3001,-2.3012,-2.3001,-2.3047,-2.3111,-2.3193,-2.3364,-2.3793,-2.4245,-2.4701,-2.5153,-2.5206,-2.52,-2.52,-2.4743,-2.4497,-2.4497,-2.4497,-2.4497,-2.4497,-2.4497,-2.4497,-2.4497,-2.4497,-2.4497,-2.4497,-2.4497,-2.4497,-2.4497,-2.4497,-2.4497,-2.4497,-2.4497,-2.4497,-2.4497,-2.4497,-2.4497,-2.4497,-3.4397,-3.4356,-3.4314,-3.4314,-3.4118,-3.3992,-3.3992,-3.381,-3.367,-3.3641,-3.3598,-3.3598,-3.3513,-3.3246,-3.2895,-3.2503,-3.2147,-3.1587,-3.067,-3.0457,-3.0193,-2.9817,-2.9792,-2.9792,-2.9792,-2.9792,-2.9792,-2.9792,-2.9792,-2.9792,-2.9792,-2.9792,-2.9792,-2.9792,-2.9792,-2.9456,-2.8831,-2.8303,-2.7678,-2.6987,-2.5872,-2.5421,-2.5421,-2.5421,-2.502,-2.4583,-2.5179,-2.502,-2.4476,-2.4342,-2.4301,-2.426,-2.3815,-2.336,-2.2977,-2.2977,-2.2884,-2.2708,-2.2377,-2.2294,-2.2211,-2.189,-2.1807,-2.1807,-2.1807,-2.1807,-2.1807,-2.1807,-2.1807,-2.1807,-2.1807,-2.1807,-2.1807,-2.1807,-2.2025,-2.2252,-2.2365,-2.274,-2.3121,-2.3498,-2.3275,-2.3354,-2.4024,-2.382,-2.3934,-2.47,-2.5232,-2.5276,-2.4746,-2.4999,-2.5031,-2.47,-2.4583,-2.4497,-2.4497,-2.4497,-2.4497,-2.4497,-2.4497,-2.4497,-2.4497,-2.4497,-2.4497,-2.4497,-2.4497,-2.4497,-2.4497,-2.4497,-2.4497,-2.4497,-2.4497,-2.4497,-2.4497,-2.4497,-2.4497,-2.4497,-3.4397,-3.4397,-3.4397,-3.4397,-3.4314,-3.4243,-3.4243,-3.4063,-3.3937,-3.3852,-3.3852,-3.381,-3.3713,-3.3598,-3.3386,-3.3084,-3.2604,-3.2063,-3.142,-3.1087,-3.0683,-3.0143,-3.0118,-3.0018,-2.9792,-2.9792,-2.9792,-2.9792,-2.9792,-2.9792,-2.9792,-2.9792,-2.9792,-2.9792,-2.9792,-2.9495,-2.9,-2.8673,-2.8171,-2.7597,-2.6689,-2.6318,-2.6276,-2.5944,-2.5704,-2.5558,-2.5746,-2.5673,-2.5474,-2.5147,-2.4786,-2.4456,-2.4229,-2.3826,-2.3463,-2.3463,-2.3329,-2.3122,-2.2842,-2.277,-2.2708,-2.2418,-2.2076,-2.1807,-2.1807,-2.1807,-2.1807,-2.1807,-2.1807,-2.1807,-2.1807,-2.1952,-2.2087,-2.2087,-2.2425,-2.2734,-2.2734,-2.3043,-2.3382,-2.3545,-2.347,-2.3623,-2.4213,-2.4153,-2.4467,-2.5426,-2.5732,-2.5644,-2.5094,-2.5168,-2.5073,-2.4786,-2.4583,-2.4497,-2.4497,-2.4497,-2.4497,-2.4497,-2.4497,-2.4497,-2.4497,-2.4497,-2.4497,-2.4497,-2.4497,-2.4497,-2.4497,-2.4497,-2.4497,-2.4497,-2.4497,-2.4497,-2.4497,-2.4497,-2.4497,-2.4497,-3.4397,-3.4397,-3.4397,-3.4397,-3.4397,-3.4397,-3.4397,-3.4397,-3.4314,-3.416,-3.4118,-3.4021,-3.381,-3.3755,-3.3755,-3.3755,-3.3097,-3.2666,-3.2615,-3.1956,-3.1276,-3.0748,-3.0723,-3.0432,-2.988,-2.9817,-2.9792,-2.9792,-2.9792,-2.9792,-2.9792,-2.9792,-2.9792,-2.9792,-2.9792,-2.9792,-2.9753,-2.8961,-2.8633,-2.8542,-2.7597,-2.7232,-2.7151,-2.6359,-2.6483,-2.7028,-2.6318,-2.6483,-2.6987,-2.6069,-2.5263,-2.4615,-2.454,-2.426,-2.3939,-2.3939,-2.3639,-2.3298,-2.3256,-2.3246,-2.3236,-2.3194,-2.2553,-2.1932,-2.1932,-2.2008,-2.2036,-2.1921,-2.1932,-2.1932,-2.1932,-2.2273,-2.2563,-2.2563,-2.2955,-2.3265,-2.3265,-2.3587,-2.3718,-2.3398,-2.365,-2.3911,-2.4096,-2.449,-2.5074,-2.5779,-2.5895,-2.5895,-2.577,-2.5422,-2.52,-2.5158,-2.47,-2.4497,-2.4497,-2.4497,-2.4497,-2.4497,-2.4497,-2.4497,-2.4497,-2.4497,-2.4497,-2.4497,-2.4497,-2.4497,-2.4497,-2.4497,-2.4497,-2.4497,-2.4497,-2.4497,-2.4497,-2.4497,-2.4497,-2.4497,-3.4397,-3.4397,-3.4397,-3.4397,-3.4397,-3.4397,-3.4397,-3.4397,-3.4397,-3.4356,-3.4314,-3.4314,-3.4272,-3.4105,-3.3992,-3.3992,-3.3665,-3.327,-3.2864,-3.2682,-3.2294,-3.1584,-3.1519,-3.1185,-3.0444,-3.0018,-2.9792,-2.9792,-2.9792,-2.9792,-2.9792,-2.9792,-2.9792,-2.9792,-2.9792,-2.9792,-2.9792,-2.9585,-2.9507,-2.9456,-2.8542,-2.8211,-2.8171,-2.8011,-2.7597,-2.7191,-2.7718,-2.7557,-2.6987,-2.6069,-2.5663,-2.5379,-2.4743,-2.4435,-2.4352,-2.4352,-2.429,-2.4135,-2.3826,-2.3774,-2.3639,-2.3277,-2.3039,-2.2884,-2.2884,-2.3409,-2.3713,-2.3033,-2.2884,-2.2884,-2.2884,-2.2967,-2.3039,-2.3039,-2.3404,-2.3668,-2.3668,-2.4028,-2.4386,-2.4662,-2.4431,-2.4705,-2.5832,-2.6341,-2.6262,-2.5411,-2.5999,-2.5915,-2.4839,-2.5084,-2.5031,-2.4658,-2.454,-2.4497,-2.4497,-2.4497,-2.4497,-2.4497,-2.4497,-2.4497,-2.4497,-2.4497,-2.4497,-2.4497,-2.4497,-2.4497,-2.4497,-2.4497,-2.4497,-2.4497,-2.4497,-2.4497,-2.4497,-2.4497,-2.4497,-2.4497,-3.4397,-3.4397,-3.4397,-3.4397,-3.4397,-3.4397,-3.4397,-3.4397,-3.4397,-3.4397,-3.4397,-3.4397,-3.4397,-3.4314,-3.4243,-3.4243,-3.4021,-3.3766,-3.3482,-3.336,-3.2992,-3.2347,-3.2322,-3.1945,-3.1211,-3.0907,-3.0424,-2.9792,-2.9792,-2.9792,-2.9792,-2.9792,-2.9792,-2.9792,-2.9792,-2.9792,-2.9792,-2.9792,-2.9792,-2.9753,-2.9287,-2.9131,-2.9079,-2.8673,-2.8462,-2.8383,-2.8462,-2.7891,-2.711,-2.7098,-2.6524,-2.5788,-2.5757,-2.5715,-2.5715,-2.5715,-2.5715,-2.5588,-2.4975,-2.4786,-2.4733,-2.4519,-2.4742,-2.4746,-2.348,-2.3566,-2.3756,-2.3305,-2.3184,-2.3184,-2.3184,-2.337,-2.3515,-2.3515,-2.3856,-2.4199,-2.4436,-2.4641,-2.485,-2.5128,-2.513,-2.5393,-2.6144,-2.6437,-2.6271,-2.5591,-2.5748,-2.5664,-2.5179,-2.5211,-2.52,-2.5179,-2.4956,-2.4828,-2.4828,-2.4625,-2.4497,-2.4497,-2.4497,-2.4497,-2.4497,-2.4497,-2.4497,-2.4497,-2.4497,-2.4497,-2.4497,-2.4497,-2.4497,-2.4497,-2.4497,-2.4497,-2.4497,-2.4497,-2.4497,-2.4497,-3.4397,-3.4397,-3.4397,-3.4397,-3.4397,-3.4397,-3.4397,-3.4397,-3.4397,-3.4397,-3.4397,-3.4397,-3.4397,-3.4397,-3.4397,-3.4397,-3.4243,-3.416,-3.416,-3.3937,-3.3592,-3.3129,-3.3104,-3.2764,-3.2011,-3.1998,-3.1291,-2.993,-2.993,-2.988,-2.9792,-2.9792,-2.9792,-2.9792,-2.9792,-2.9792,-2.9792,-2.9792,-2.9792,-2.9792,-2.9792,-2.9792,-2.9702,-2.9,-2.917,-2.9714,-2.8961,-2.8211,-2.7649,-2.8291,-2.7504,-2.6359,-2.6935,-2.711,-2.711,-2.711,-2.711,-2.6946,-2.6235,-2.6027,-2.6027,-2.6069,-2.6648,-2.6608,-2.4484,-2.3919,-2.3808,-2.3687,-2.3575,-2.3534,-2.3422,-2.3815,-2.4106,-2.4106,-2.4334,-2.4658,-2.5115,-2.5115,-2.5073,-2.5073,-2.5559,-2.5853,-2.5686,-2.5853,-2.5895,-2.5686,-2.538,-2.5327,-2.5644,-2.5295,-2.5253,-2.5644,-2.5295,-2.5073,-2.5073,-2.47,-2.4497,-2.4497,-2.4497,-2.4497,-2.4497,-2.4497,-2.4497,-2.4497,-2.4497,-2.4497,-2.4497,-2.4497,-2.4497,-2.4497,-2.4497,-2.4497,-2.4497,-2.4497,-2.4497,-2.4497,-3.4397,-3.4397,-3.4397,-3.4397,-3.4397,-3.4397,-3.4397,-3.4397,-3.4397,-3.4397,-3.4397,-3.4397,-3.4397,-3.4397,-3.4397,-3.4397,-3.4397,-3.4356,-3.4356,-3.4314,-3.4204,-3.3959,-3.3917,-3.3563,-3.2777,-3.2764,-3.2024,-3.0507,-3.0507,-3.0256,-2.9792,-2.9792,-2.9792,-2.9792,-2.9792,-2.9792,-2.9792,-2.9792,-2.9792,-2.9792,-2.9792,-2.9792,-2.9792,-2.9663,-2.9714,-2.9792,-2.9663,-2.9546,-2.9339,-2.8712,-2.8331,-2.7999,-2.7313,-2.711,-2.711,-2.711,-2.711,-2.7069,-2.6946,-2.6935,-2.6976,-2.7221,-2.7342,-2.7389,-2.7226,-2.6852,-2.6374,-2.5592,-2.5166,-2.4809,-2.4396,-2.4692,-2.502,-2.502,-2.4754,-2.4658,-2.5115,-2.4871,-2.4583,-2.4583,-2.5391,-2.5601,-2.4754,-2.5748,-2.5946,-2.4796,-2.4999,-2.5031,-2.4711,-2.4625,-2.4625,-2.4668,-2.4625,-2.4583,-2.4583,-2.454,-2.4497,-2.4497,-2.4497,-2.4497,-2.4497,-2.4497,-2.4497,-2.4497,-2.4497,-2.4497,-2.4497,-2.4497,-2.4497,-2.4497,-2.4497,-2.4497,-2.4497,-2.4497,-2.4497,-2.4497,-3.4397,-3.4397,-3.4397,-3.4397,-3.4397,-3.4397,-3.4397,-3.4397,-3.4397,-3.4397,-3.4397,-3.4397,-3.4397,-3.4397,-3.4397,-3.4397,-3.4397,-3.4397,-3.4397,-3.4397,-3.4356,-3.4285,-3.4285,-3.403,-3.3576,-3.3563,-3.2998,-3.1879,-3.1481,-3.0903,-3.0256,-3.0256,-3.0093,-2.9792,-2.9792,-2.9792,-2.9792,-2.9792,-2.9792,-2.9792,-2.9792,-2.9792,-2.9792,-2.9792,-2.9792,-2.9792,-2.9792,-2.9507,-2.9079,-2.9209,-2.891,-2.8502,-2.8593,-2.8593,-2.8593,-2.8593,-2.8593,-2.8502,-2.8011,-2.7879,-2.7931,-2.8051,-2.8051,-2.8211,-2.8779,-2.8371,-2.7718,-2.7035,-2.6483,-2.6121,-2.6307,-2.6513,-2.6637,-2.6637,-2.6163,-2.5966,-2.6412,-2.5977,-2.5706,-2.5968,-2.5937,-2.5937,-2.601,-2.6093,-2.5999,-2.5653,-2.5369,-2.5454,-2.5988,-2.5737,-2.5737,-2.5988,-2.5737,-2.5369,-2.4914,-2.4625,-2.4497,-2.4497,-2.4497,-2.4497,-2.4497,-2.4497,-2.4497,-2.4497,-2.4497,-2.4497,-2.4497,-2.4497,-2.4497,-2.4497,-2.4497,-2.4497,-2.4497,-2.4497,-2.4497,-2.4497]},{"header":{"parameterUnit":"m.s-1","parameterCategory":1,"la1":30.6,"la2":28.766,"lo1":-90.7593,"lo2":-88.6598,"dx":0.0162,"dy":0.0183,"nx":116,"ny":114,"refTime":"2023-02-08T06:00:00:Z","depth":0,"parameterNumber":3,"parameterNumberName":"V-component_of_WINDS"},"data":[0.0,0.0,0.0,0.0,0.0,0.0,0.0,0.0,0.0,0.0,0.0,0.0,0.0,0.0,0.0,0.0,0.0,0.0,0.0,0.0,0.0,0.0,0.0,0.0,0.0,0.0,0.0,0.0,0.0,0.0,0.0,0.0,0.0,0.0,0.0,0.0,0.0,0.0,0.0,0.0,0.0,0.0,0.0,0.0,0.0,0.0,0.0,0.0,0.0,0.0,0.0,0.0,0.0,0.0,0.0,0.0,0.0,0.0,0.0,0.0,0.0,0.0,0.0,0.0,0.0,0.0,0.0,0.0,0.0,0.0,0.0,0.0,0.0,0.0,0.0,0.0,0.0,0.0,0.0,0.0,0.0,0.0,0.0,0.0,0.0,0.0,0.0,0.0,0.0,0.0,0.0,0.0,0.0,0.0,0.0,0.0,0.0,0.0,0.0,0.0,0.0,0.0,0.0,0.0,0.0,0.0,0.0,0.0,0.0,0.0,0.0,0.0,0.0,0.0,0.0,0.0,0.0,0.0,0.0,0.0,0.0,0.0,0.0,0.0,0.0,0.0,0.0,0.0,0.0,0.0,0.0,0.0,0.0,0.0,0.0,0.0,0.0,0.0,0.0,0.0,0.0,0.0,0.0,0.0,0.0,0.0,0.0,0.0,0.0,0.0,0.0,0.0,0.0,0.0,0.0,0.0,0.0,0.0,0.0,0.0,0.0,0.0,0.0,0.0,0.0,0.0,0.0,0.0,0.0,0.0,0.0,0.0,0.0,0.0,0.0,0.0,0.0,0.0,0.0,0.0,0.0,0.0,0.0,0.0,0.0,0.0,0.0,0.0,0.0,0.0,0.0,0.0,0.0,0.0,0.0,0.0,0.0,0.0,0.0,0.0,0.0,0.0,0.0,0.0,0.0,0.0,0.0,0.0,0.0,0.0,0.0,0.0,0.0,0.0,0.0,0.0,0.0,0.0,0.0,0.0,0.0,0.0,0.0,0.0,0.0,0.0,0.0,0.0,0.0,0.0,0.0,0.0,0.0,0.0,0.0,0.0,0.0,0.0,0.0,0.0,0.0,0.0,0.0,0.0,0.0,0.0,0.0,0.0,0.0,0.0,0.0,0.0,0.0,0.0,0.0,0.0,0.0,0.0,0.0,0.0,0.0,0.0,0.0,0.0,0.0,0.0,0.0,0.0,0.0,0.0,0.0,0.0,0.0,0.0,0.0,0.0,0.0,0.0,0.0,0.0,0.0,0.0,0.0,0.0,0.0,0.0,0.0,0.0,0.0,0.0,0.0,0.0,0.0,0.0,0.0,0.0,0.0,0.0,0.0,0.0,0.0,0.0,0.0,0.0,0.0,0.0,0.0,0.0,0.0,0.0,0.0,0.0,0.0,0.0,0.0,0.0,0.0,0.0,0.0,0.0,0.0,0.0,0.0,0.0,0.0,0.0,0.0,0.0,0.0,0.0,0.0,0.0,0.0,0.0,0.0,0.0,0.0,0.0,0.0,0.0,0.0,0.0,0.0,0.0,0.0,0.0,0.0,0.0,0.0,0.0,0.0,0.0,0.0,0.0,0.0,0.0,0.0,0.0,0.0,0.0,0.0,0.0,0.0,0.0,0.0,0.0,0.0,0.0,0.0,0.0,0.0,0.0,0.0,0.0,0.0,0.0,0.0,0.0,0.0,0.0,0.0,0.0,0.0,0.0,0.0,0.0,0.0,0.0,0.0,0.0,0.0,0.0,0.0,0.0,0.0,0.0,0.0,0.0,0.0,0.0,0.0,0.0,0.0,0.0,0.0,0.0,0.0,0.0,0.0,0.0,0.0,0.0,0.0,0.0,0.0,0.0,0.0,0.0,0.0,0.0,0.0,0.0,0.0,0.0,0.0,0.0,0.0,0.0,0.0,0.0,0.0,0.0,0.0,0.0,0.0,0.0,0.0,0.0,0.0,0.0,0.0,0.0,0.0,0.0,0.0,0.0,0.0,0.0,0.0,0.0,0.0,0.0,0.0,0.0,0.0,0.0,0.0,0.0,0.0,0.0,0.0,0.0,0.0,0.0,0.0,0.0,0.0,0.0,0.0,0.0,0.0,0.0,0.0,0.0,0.0,0.0,0.0,0.0,0.0,0.0,0.0,0.0,0.0,0.0,0.0,0.0,0.0,0.0,0.0,0.0,0.0,0.0,0.0,0.0,0.0,0.0,0.0,0.0,0.0,0.0,0.0,0.0,0.0,0.0,0.0,0.0,0.0,0.0,0.0,0.0,0.0,0.0,0.0,0.0,0.0,0.0,0.0,0.0,0.0,0.0,0.0,0.0,0.0,0.0,0.0,0.0,0.0,0.0,0.0,0.0,0.0,0.0,0.0,0.0,0.0,0.0,0.0,0.0,0.0,0.0,0.0,0.0,0.0,0.0,0.0,0.0,0.0,0.0,0.0,0.0,0.0,0.0,0.0,0.0,0.0,0.0,0.0,0.0,0.0,0.0,0.0,0.0,0.0,0.0,0.0,0.0,0.0,0.0,0.0,0.0,0.0,0.0,0.0,0.0,0.0,0.0,0.0,0.0,0.0,0.0,0.0,0.0,0.0,0.0,0.0,0.0,0.0,0.0,0.0,0.0,0.0,0.0,0.0,0.0,0.0,0.0,0.0,0.0,0.0,0.0,0.0,0.0,0.0,0.0,0.0,0.0,0.0,0.0,0.0,0.0,0.0,0.0,0.0,0.0,0.0,0.0,0.0,0.0,0.0,0.0,0.0,0.0,0.0,0.0,0.0,0.0,0.0,0.0,0.0,0.0,0.0,0.0,0.0,0.0,0.0,0.0,0.0,0.0,0.0,0.0,0.0,0.0,0.0,0.0,0.0,0.0,0.0,0.0,0.0,0.0,0.0,0.0,0.0,0.0,0.0,0.0,0.0,0.0,0.0,0.0,0.0,0.0,0.0,0.0,0.0,0.0,0.0,0.0,0.0,0.0,0.0,0.0,0.0,0.0,0.0,0.0,0.0,0.0,0.0,0.0,0.0,0.0,0.0,0.0,0.0,0.0,0.0,0.0,0.0,0.0,0.0,0.0,0.0,0.0,0.0,0.0,0.0,0.0,0.0,0.0,0.0,0.0,0.0,0.0,0.0,0.0,0.0,0.0,0.0,0.0,0.0,0.0,0.0,0.0,0.0,0.0,0.0,0.0,0.0,0.0,0.0,0.0,0.0,0.0,0.0,0.0,0.0,0.0,0.0,0.0,0.0,0.0,0.0,0.0,0.0,0.0,0.0,0.0,0.0,0.0,0.0,0.0,0.0,0.0,0.0,0.0,0.0,0.0,0.0,0.0,0.0,0.0,0.0,0.0,0.0,0.0,0.0,0.0,0.0,0.0,0.0,0.0,0.0,0.0,0.0,0.0,0.0,0.0,0.0,0.0,0.0,0.0,0.0,0.0,0.0,0.0,0.0,0.0,0.0,0.0,0.0,0.0,0.0,0.0,0.0,0.0,0.0,0.0,0.0,0.0,0.0,0.0,0.0,0.0,0.0,0.0,0.0,0.0,0.0,0.0,0.0,0.0,0.0,0.0,0.0,0.0,0.0,0.0,0.0,0.0,0.0,0.0,0.0,0.0,0.0,0.0,0.0,0.0,0.0,0.0,0.0,0.0,0.0,0.0,0.0,0.0,0.0,0.0,0.0,0.0,0.0,0.0,0.0,0.0,0.0,0.0,0.0,0.0,0.0,0.0,0.0,0.0,0.0,0.0,0.0,0.0,0.0,0.0,0.0,0.0,0.0,0.0,0.0,0.0,0.0,0.0,0.0,0.0,0.0,0.0,0.0,0.0,0.0,0.0,0.0,0.0,0.0,0.0,0.0,0.0,0.0,0.0,0.0,0.0,0.0,0.0,0.0,0.0,0.0,0.0,0.0,0.0,0.0,0.0,0.0,0.0,0.0,0.0,0.0,0.0,0.0,0.0,0.0,0.0,0.0,0.0,0.0,0.0,0.0,0.0,0.0,0.0,0.0,0.0,0.0,0.0,0.0,0.0,0.0,0.0,0.0,0.0,0.0,0.0,0.0,0.0,0.0,0.0,0.0,0.0,0.0,0.0,0.0,0.0,0.0,0.0,0.0,0.0,0.0,0.0,0.0,0.0,0.0,0.0,0.0,0.0,0.0,0.0,0.0,0.0,0.0,0.0,0.0,0.0,0.0,0.0,0.0,0.0,0.0,0.0,0.0,0.0,0.0,0.0,0.0,0.0,0.0,0.0,0.0,0.0,0.0,0.0,0.0,0.0,0.0,0.0,0.0,0.0,0.0,0.0,0.0,0.0,0.0,0.0,0.0,0.0,0.0,0.0,0.0,0.0,0.0,0.0,0.0,0.0,0.0,0.0,0.0,0.0,0.0,0.0,0.0,0.0,0.0,0.0,0.0,0.0,0.0,0.0,0.0,0.0,0.0,0.0,0.0,0.0,0.0,0.0,0.0,0.0,0.0,0.0,0.0,0.0,0.0,0.0,0.0,0.0,0.0,0.0,0.0,0.0,0.0,0.0,0.0,0.0,0.0,0.0,0.0,0.0,0.0,0.0,0.0,0.0,0.0,0.0,0.0,0.0,0.0,0.0,0.0,0.0,0.0,0.0,0.0,0.0,0.0,0.0,0.0,0.0,0.0,0.0,0.0,0.0,0.0,0.0,0.0,0.0,0.0,0.0,0.0,0.0,0.0,0.0,0.0,0.0,0.0,0.0,0.0,0.0,0.0,0.0,0.0,0.0,0.0,0.0,0.0,0.0,0.0,0.0,0.0,0.0,0.0,0.0,0.0,0.0,0.0,0.0,0.0,0.0,0.0,0.0,0.0,0.0,0.0,0.0,0.0,0.0,0.0,0.0,0.0,0.0,0.0,0.0,0.0,0.0,0.0,0.0,0.0,0.0,0.0,0.0,0.0,0.0,0.0,0.0,0.0,0.0,0.0,0.0,0.0,0.0,0.0,0.0,0.0,0.0,0.0,0.0,0.0,0.0,0.0,0.0,0.0,0.0,0.0,0.0,0.0,0.0,0.0,0.0,0.0,0.0,0.0,0.0,0.0,0.0,0.0,0.0,0.0,0.0,0.0,0.0,0.0,0.0,0.0,0.0,0.0,0.0,0.0,0.0,0.0,0.0,0.0,0.0,0.0,0.0,0.0,0.0,0.0,0.0,0.0,0.0,0.0,0.0,0.0,0.0,0.0,0.0,0.0,0.0,0.0,0.0,0.0,0.0,0.0,0.0,0.0,0.0,0.0,0.0,0.0,0.0,0.0,0.0,0.0,0.0,0.0,0.0,0.0,0.0,0.0,0.0,0.0,0.0,0.0,0.0,0.0,0.0,0.0,0.0,0.0,0.0,0.0,0.0,0.0,0.0,0.0,0.0,0.0,0.0,0.0,0.0,0.0,0.0,0.0,0.0,0.0,0.0,0.0,0.0,0.0,0.0,0.0,0.0,0.0,0.0,0.0,0.0,0.0,0.0,0.0,0.0,0.0,0.0,0.0,0.0,0.0,0.0,0.0,0.0,0.0,0.0,0.0,0.0,0.0,0.0,0.0,0.0,0.0,0.0,0.0,0.0,0.0,0.0,0.0,0.0,0.0,0.0,0.0,0.0,0.0,0.0,0.0,0.0,0.0,0.0,0.0,0.0,0.0,0.0,0.0,0.0,0.0,0.0,0.0,0.0,0.0,0.0,0.0,0.0,0.0,0.0,0.0,0.0,0.0,0.0,0.0,0.0,0.0,0.0,0.0,0.0,0.0,0.0,0.0,0.0,0.0,0.0,0.0,0.0,0.0,0.0,0.0,0.0,0.0,0.0,0.0,0.0,0.0,0.0,0.0,0.0,0.0,0.0,0.0,0.0,0.0,0.0,0.0,0.0,0.0,0.0,0.0,0.0,0.0,0.0,0.0,0.0,0.0,0.0,0.0,0.0,0.0,0.0,0.0,0.0,0.0,0.0,0.0,0.0,0.0,0.0,0.0,0.0,0.0,0.0,0.0,0.0,0.0,0.0,0.0,0.0,0.0,0.0,0.0,0.0,0.0,0.0,0.0,0.0,0.0,0.0,0.0,0.0,0.0,0.0,0.0,0.0,0.0,0.0,0.0,0.0,3.0647,0.0,0.0,0.0,0.0,0.0,0.0,0.0,0.0,0.0,0.0,0.0,0.0,0.0,0.0,0.0,0.0,0.0,0.0,0.0,0.0,0.0,0.0,0.0,0.0,0.0,0.0,0.0,0.0,0.0,0.0,0.0,0.0,0.0,0.0,0.0,0.0,0.0,0.0,0.0,0.0,0.0,0.0,0.0,0.0,0.0,0.0,0.0,0.0,0.0,0.0,0.0,0.0,0.0,0.0,0.0,0.0,0.0,0.0,0.0,0.0,0.0,0.0,0.0,0.0,0.0,0.0,0.0,0.0,0.0,0.0,0.0,0.0,0.0,0.0,0.0,0.0,0.0,0.0,0.0,0.0,0.0,0.0,0.0,0.0,0.0,0.0,0.0,0.0,0.0,0.0,0.0,0.0,0.0,0.0,0.0,0.0,0.0,0.0,0.0,0.0,0.0,0.0,0.0,0.0,0.0,0.0,0.0,0.0,0.0,0.0,0.0,0.0,0.0,0.0,0.0,0.0,3.0725,0.0,0.0,0.0,0.0,0.0,0.0,0.0,0.0,0.0,0.0,0.0,0.0,0.0,0.0,0.0,0.0,0.0,0.0,0.0,0.0,0.0,0.0,0.0,0.0,0.0,0.0,0.0,0.0,0.0,0.0,0.0,0.0,0.0,0.0,0.0,0.0,0.0,0.0,0.0,0.0,0.0,0.0,0.0,0.0,0.0,0.0,0.0,0.0,0.0,0.0,0.0,0.0,0.0,0.0,0.0,0.0,0.0,0.0,0.0,0.0,0.0,0.0,0.0,0.0,0.0,0.0,0.0,0.0,0.0,0.0,0.0,0.0,0.0,0.0,0.0,0.0,0.0,0.0,0.0,0.0,0.0,0.0,0.0,0.0,0.0,0.0,0.0,0.0,0.0,0.0,0.0,0.0,0.0,0.0,0.0,0.0,0.0,0.0,0.0,0.0,0.0,0.0,0.0,0.0,0.0,0.0,0.0,0.0,3.0798,3.0827,3.0827,3.082,3.0822,3.0817,3.0813,3.0808,3.0798,3.0798,0.0,0.0,0.0,0.0,0.0,0.0,0.0,0.0,0.0,0.0,0.0,0.0,0.0,0.0,0.0,0.0,0.0,0.0,0.0,0.0,0.0,0.0,0.0,0.0,0.0,0.0,0.0,0.0,0.0,0.0,0.0,0.0,0.0,0.0,0.0,0.0,0.0,0.0,0.0,0.0,0.0,0.0,0.0,0.0,0.0,0.0,0.0,0.0,0.0,0.0,0.0,0.0,0.0,0.0,0.0,0.0,0.0,0.0,0.0,0.0,0.0,0.0,0.0,0.0,0.0,0.0,0.0,0.0,0.0,0.0,0.0,0.0,0.0,0.0,0.0,0.0,0.0,0.0,0.0,0.0,0.0,0.0,0.0,0.0,0.0,0.0,3.3345,3.3796,0.0,0.0,0.0,0.0,0.0,0.0,0.0,0.0,0.0,0.0,0.0,0.0,0.0,3.2449,3.1982,3.1874,3.1511,3.087,3.0871,3.0892,3.0892,3.0892,3.0893,3.0892,3.0891,0.0,3.0798,3.0796,0.0,0.0,0.0,0.0,0.0,0.0,0.0,0.0,0.0,0.0,0.0,0.0,0.0,0.0,0.0,0.0,0.0,0.0,0.0,0.0,0.0,0.0,0.0,0.0,0.0,0.0,0.0,0.0,0.0,0.0,0.0,0.0,0.0,0.0,0.0,0.0,0.0,0.0,0.0,0.0,0.0,0.0,0.0,0.0,0.0,0.0,0.0,0.0,0.0,0.0,0.0,0.0,0.0,0.0,0.0,0.0,0.0,0.0,0.0,0.0,0.0,0.0,0.0,0.0,0.0,0.0,0.0,0.0,0.0,0.0,0.0,0.0,0.0,0.0,0.0,0.0,0.0,0.0,0.0,0.0,0.0,0.0,0.0,0.0,0.0,3.4565,3.4563,3.4841,3.4445,3.4182,0.0,0.0,0.0,0.0,0.0,0.0,0.0,0.0,0.0,3.389,3.342,3.3278,3.3516,3.3032,3.2396,3.162,3.162,3.1366,3.0898,3.0898,3.0897,3.0896,3.0896,3.0873,3.0863,3.0863,3.086,3.0854,0.0,0.0,0.0,0.0,3.0867,3.0868,0.0,0.0,0.0,0.0,0.0,0.0,0.0,0.0,0.0,0.0,0.0,0.0,0.0,0.0,0.0,0.0,0.0,0.0,0.0,0.0,0.0,0.0,0.0,0.0,0.0,0.0,0.0,0.0,0.0,0.0,0.0,0.0,0.0,0.0,0.0,0.0,0.0,0.0,0.0,0.0,0.0,0.0,0.0,0.0,0.0,0.0,0.0,0.0,0.0,0.0,0.0,0.0,0.0,0.0,0.0,0.0,0.0,0.0,0.0,0.0,0.0,0.0,0.0,0.0,0.0,0.0,0.0,0.0,0.0,0.0,0.0,0.0,0.0,0.0,0.0,0.0,0.0,3.5293,3.5393,3.5493,3.5474,3.5462,0.0,0.0,0.0,0.0,0.0,0.0,3.374,3.377,3.4117,3.4915,3.4296,3.4198,3.4706,3.4061,3.332,3.2519,3.2519,3.2051,3.123,3.123,3.1113,3.0897,3.0897,3.0897,3.0896,3.0895,3.0894,3.0894,3.0894,3.0894,3.0894,3.0895,3.0895,3.0895,0.0,0.0,0.0,0.0,0.0,0.0,0.0,0.0,0.0,0.0,0.0,0.0,0.0,0.0,0.0,0.0,0.0,0.0,0.0,0.0,0.0,0.0,0.0,0.0,0.0,0.0,0.0,0.0,0.0,0.0,0.0,0.0,0.0,0.0,0.0,0.0,0.0,0.0,0.0,0.0,0.0,0.0,0.0,0.0,0.0,0.0,0.0,0.0,0.0,0.0,0.0,0.0,0.0,0.0,0.0,0.0,0.0,0.0,0.0,0.0,0.0,0.0,0.0,0.0,0.0,0.0,0.0,0.0,0.0,0.0,0.0,0.0,0.0,0.0,0.0,0.0,0.0,0.0,0.0,3.5507,3.5547,0.0,0.0,0.0,0.0,3.554,3.5488,3.5466,3.5471,3.5523,3.5654,3.5828,3.5798,3.5429,3.4706,3.4668,3.4199,3.334,3.334,3.293,3.2129,3.2129,3.168,3.0898,3.0898,3.0898,3.0898,3.0896,3.0894,3.0894,3.0894,3.0894,3.0895,3.0896,3.0897,3.0897,0.0,0.0,0.0,0.0,0.0,0.0,0.0,0.0,0.0,0.0,0.0,0.0,0.0,0.0,0.0,0.0,0.0,0.0,0.0,0.0,0.0,0.0,0.0,0.0,0.0,0.0,0.0,0.0,0.0,0.0,0.0,0.0,0.0,0.0,0.0,0.0,0.0,0.0,0.0,0.0,0.0,0.0,0.0,0.0,0.0,0.0,0.0,0.0,0.0,0.0,0.0,0.0,0.0,0.0,0.0,0.0,0.0,0.0,0.0,0.0,0.0,0.0,0.0,0.0,0.0,0.0,0.0,0.0,0.0,0.0,0.0,0.0,0.0,0.0,0.0,0.0,0.0,0.0,0.0,3.556,3.5579,0.0,3.556,3.559,3.5618,3.5654,3.5664,3.5702,3.5794,3.5817,3.5864,3.597,3.5952,3.5837,3.5547,3.5547,3.5097,3.4238,3.4237,3.3787,3.2966,3.2966,3.2791,3.2478,3.1913,3.1679,3.1621,3.1113,3.0898,3.0898,3.0898,3.0898,3.0898,3.0898,3.0898,3.0976,0.0,0.0,0.0,0.0,0.0,0.0,0.0,0.0,0.0,0.0,0.0,0.0,0.0,0.0,0.0,0.0,0.0,0.0,0.0,0.0,0.0,0.0,0.0,0.0,0.0,0.0,0.0,0.0,0.0,0.0,0.0,0.0,0.0,0.0,0.0,0.0,0.0,0.0,0.0,0.0,0.0,0.0,3.1951,0.0,0.0,0.0,0.0,0.0,0.0,0.0,0.0,0.0,0.0,0.0,0.0,0.0,0.0,0.0,0.0,0.0,0.0,0.0,0.0,0.0,0.0,0.0,0.0,0.0,0.0,0.0,0.0,0.0,0.0,0.0,0.0,0.0,0.0,0.0,3.561,3.5598,3.5616,3.5622,3.5596,3.562,3.5648,3.5706,3.5718,3.5774,3.5896,3.5926,3.5954,3.5995,3.5995,3.5995,3.5995,3.5994,3.5701,3.5134,3.5133,3.4682,3.3842,3.3842,3.3686,3.3374,3.279,3.2537,3.2498,3.1952,3.1738,3.1718,3.1445,3.1504,3.1738,3.1738,3.1738,3.1836,0.0,0.0,0.0,0.0,0.0,0.0,0.0,0.0,0.0,0.0,0.0,0.0,0.0,0.0,0.0,0.0,0.0,0.0,0.0,0.0,0.0,0.0,0.0,0.0,0.0,0.0,0.0,0.0,0.0,0.0,0.0,0.0,0.0,0.0,0.0,0.0,0.0,0.0,0.0,0.0,0.0,0.0,3.2747,0.0,0.0,0.0,0.0,0.0,0.0,0.0,0.0,0.0,0.0,0.0,0.0,0.0,0.0,0.0,0.0,0.0,0.0,0.0,0.0,0.0,0.0,0.0,0.0,0.0,0.0,0.0,0.0,0.0,0.0,0.0,0.0,0.0,3.5604,3.5608,3.5595,3.5604,3.5651,3.5679,3.5606,3.5654,3.5693,3.5693,3.5775,3.5821,3.5906,3.5957,3.5994,3.5991,3.5991,3.5991,3.5991,3.5991,3.5991,3.5991,3.5991,3.5561,3.4741,3.4741,3.4271,3.3471,3.3451,3.3432,3.3432,3.3412,3.3413,3.3355,3.2558,3.2715,3.3398,3.3398,3.3418,3.3437,0.0,0.0,0.0,0.0,0.0,0.0,0.0,0.0,0.0,0.0,0.0,0.0,0.0,0.0,0.0,0.0,0.0,0.0,0.0,0.0,0.0,0.0,0.0,0.0,0.0,0.0,0.0,0.0,0.0,0.0,0.0,0.0,0.0,0.0,0.0,0.0,0.0,0.0,0.0,0.0,0.0,0.0,3.2453,0.0,0.0,0.0,0.0,0.0,0.0,0.0,0.0,0.0,0.0,0.0,0.0,0.0,0.0,0.0,0.0,0.0,0.0,0.0,0.0,0.0,0.0,0.0,0.0,0.0,0.0,0.0,0.0,0.0,0.0,0.0,0.0,3.5601,3.5595,3.5637,3.5673,3.5662,3.5695,3.5687,3.5679,3.5697,3.5722,3.5761,3.5822,3.59,3.5969,3.5996,3.5992,3.5991,3.5991,3.5991,3.5991,3.6008,3.6006,3.6006,3.6001,3.5862,3.5647,3.5647,3.5509,3.5256,3.4617,3.4345,3.4287,3.3665,3.3764,3.4253,3.3397,3.3202,3.3398,3.3398,3.3809,3.4336,0.0,0.0,0.0,0.0,0.0,0.0,0.0,0.0,0.0,0.0,0.0,0.0,0.0,0.0,0.0,0.0,0.0,0.0,0.0,0.0,0.0,0.0,0.0,0.0,0.0,0.0,0.0,0.0,0.0,0.0,0.0,0.0,0.0,0.0,0.0,0.0,0.0,0.0,0.0,0.0,0.0,0.0,3.2369,3.2682,3.3016,3.3288,3.3243,3.3346,3.3508,3.3508,0.0,0.0,0.0,0.0,0.0,0.0,0.0,0.0,0.0,0.0,0.0,0.0,0.0,0.0,0.0,0.0,0.0,0.0,0.0,0.0,0.0,0.0,0.0,0.0,3.5643,3.5643,3.5643,3.5679,3.569,3.5701,3.5697,3.5707,3.5702,3.5708,3.5726,3.5783,3.5855,3.5926,3.5992,3.5995,3.6007,3.6004,3.6004,3.6004,3.6004,3.6001,3.6,3.6,3.5995,3.5992,3.5992,3.5992,3.5992,3.5973,3.5451,3.5237,3.5218,3.4694,3.4793,0.0,0.0,0.0,0.0,0.0,3.4804,3.5234,0.0,0.0,0.0,0.0,0.0,0.0,0.0,0.0,0.0,0.0,0.0,0.0,0.0,0.0,0.0,0.0,0.0,0.0,0.0,0.0,0.0,0.0,0.0,0.0,0.0,0.0,0.0,0.0,0.0,0.0,0.0,0.0,0.0,0.0,0.0,0.0,0.0,0.0,0.0,0.0,0.0,0.0,3.2453,3.27,3.3016,3.3364,3.3652,3.3793,3.382,3.3788,0.0,0.0,0.0,0.0,0.0,0.0,0.0,0.0,0.0,0.0,0.0,0.0,0.0,0.0,0.0,0.0,0.0,0.0,0.0,0.0,0.0,0.0,0.0,0.0,3.5704,3.5704,3.5704,3.5709,3.5701,3.5702,3.5693,3.5703,3.5704,3.5713,3.573,3.581,3.5855,3.5923,3.5991,0.0,0.0,0.0,0.0,3.5992,3.5992,3.5992,3.5992,3.5992,3.5992,3.5992,3.5992,3.5992,3.5992,3.5992,3.5992,3.5992,3.5992,3.5992,3.5992,3.5916,3.5147,3.5327,3.5993,3.5993,3.5994,3.5995,0.0,0.0,0.0,0.0,0.0,0.0,0.0,0.0,0.0,0.0,0.0,0.0,0.0,0.0,0.0,0.0,0.0,0.0,0.0,0.0,0.0,0.0,0.0,0.0,0.0,0.0,0.0,0.0,0.0,0.0,0.0,0.0,0.0,0.0,0.0,0.0,0.0,0.0,0.0,0.0,0.0,0.0,3.2571,3.2621,3.3003,3.3545,3.3563,3.3698,3.3868,3.382,3.3807,3.3807,3.3807,0.0,0.0,0.0,0.0,0.0,0.0,0.0,0.0,0.0,0.0,0.0,0.0,0.0,0.0,0.0,0.0,0.0,0.0,0.0,0.0,3.5684,3.5704,3.5704,3.5704,3.5706,3.5702,3.5707,3.5708,3.5699,3.5704,3.5741,3.5782,3.5801,3.5853,3.5904,3.5916,3.5912,3.5917,3.5917,3.5964,3.5992,3.5992,3.5992,3.5992,3.5992,0.0,0.0,3.5992,3.5992,3.5992,3.5992,3.5992,3.5992,3.5992,3.5992,3.5992,3.5974,3.5807,3.5858,3.5994,3.5994,3.5967,3.5928,0.0,0.0,0.0,0.0,0.0,0.0,0.0,0.0,0.0,0.0,0.0,0.0,0.0,0.0,0.0,0.0,0.0,0.0,0.0,0.0,0.0,0.0,0.0,0.0,0.0,0.0,0.0,0.0,0.0,0.0,0.0,0.0,0.0,0.0,0.0,0.0,0.0,0.0,0.0,0.0,0.0,0.0,3.2524,3.2573,3.2912,3.3371,3.3506,3.3726,3.3947,3.3908,3.3895,3.3895,3.3895,3.3895,3.3895,0.0,0.0,0.0,0.0,0.0,0.0,0.0,0.0,0.0,0.0,0.0,0.0,0.0,0.0,3.5608,0.0,0.0,3.5648,3.5684,3.5701,3.5706,3.5706,3.5693,3.5708,3.5708,3.5728,3.5751,3.5741,3.5782,3.5791,3.5797,3.5866,3.5908,3.5908,3.5893,3.5895,3.5898,3.5935,3.5966,3.5992,3.5992,3.5992,3.5992,3.5992,3.5992,3.5992,3.5992,3.5992,3.5992,3.5992,3.5992,3.5992,3.5992,3.598,3.5951,3.5953,3.5957,3.5955,3.5948,3.5936,3.59,0.0,0.0,0.0,0.0,0.0,0.0,0.0,0.0,0.0,0.0,0.0,0.0,0.0,0.0,0.0,0.0,0.0,0.0,0.0,0.0,0.0,0.0,0.0,0.0,0.0,0.0,0.0,0.0,0.0,0.0,0.0,0.0,0.0,0.0,0.0,0.0,0.0,0.0,0.0,0.0,0.0,0.0,3.2405,3.2523,3.2768,3.3081,3.3324,3.3652,3.3934,3.3921,3.3959,3.3998,3.3998,3.3998,3.3998,3.3998,3.3998,0.0,0.0,0.0,0.0,0.0,0.0,0.0,0.0,0.0,3.534,3.556,3.5608,3.5612,3.5612,3.5654,3.5709,3.5695,3.5692,3.5707,3.5693,3.5718,3.5713,3.5713,3.577,3.5788,3.5795,3.5795,3.5795,3.5795,3.5859,3.5872,3.5872,3.5884,3.5897,3.5895,3.5897,3.5937,3.5982,3.598,3.5998,3.5992,3.5992,3.5995,3.598,3.598,3.5984,3.5987,3.5987,3.5987,3.5987,3.5987,3.5955,3.5897,3.5896,3.5895,3.5894,3.5895,3.588,3.5888,0.0,0.0,0.0,0.0,0.0,0.0,0.0,0.0,0.0,0.0,0.0,0.0,0.0,0.0,0.0,0.0,0.0,0.0,0.0,0.0,0.0,0.0,0.0,0.0,0.0,0.0,0.0,0.0,0.0,0.0,0.0,0.0,0.0,0.0,0.0,0.0,0.0,0.0,0.0,0.0,0.0,0.0,3.2406,3.2405,3.2589,3.2844,3.2814,3.3202,3.3726,3.3657,3.3788,3.3998,3.3998,3.3998,3.3998,3.3998,0.0,3.3998,3.3998,3.4383,0.0,3.5149,3.5346,3.5474,0.0,0.0,3.556,3.5589,3.5643,3.5684,3.5684,3.5684,3.5695,3.5697,3.5707,3.5698,3.5699,3.5742,3.5799,3.5799,3.5799,3.5788,3.5795,3.5795,3.5795,3.5795,3.5803,3.5811,3.5811,3.5866,3.5902,3.5907,3.5905,3.5891,3.5918,3.5918,3.5933,3.5992,3.5992,3.5965,3.5918,3.5918,3.5917,3.5903,3.5903,3.5903,3.5903,3.5903,3.5902,3.5897,3.5903,3.5907,3.5907,3.5902,3.5862,3.5803,0.0,0.0,0.0,0.0,0.0,0.0,0.0,0.0,0.0,0.0,0.0,0.0,0.0,0.0,0.0,0.0,0.0,0.0,0.0,0.0,0.0,0.0,0.0,0.0,0.0,0.0,0.0,0.0,0.0,0.0,0.0,0.0,0.0,0.0,0.0,0.0,0.0,0.0,0.0,0.0,0.0,0.0,3.2406,3.2406,3.2473,3.2589,3.27,3.3063,0.0,0.0,3.3793,3.3908,3.4074,3.4124,3.4124,3.4124,3.4124,0.0,3.4305,0.0,0.0,0.0,3.5346,3.552,3.5541,3.5585,3.561,3.5656,3.5583,3.5565,3.5673,3.5509,3.5398,0.0,3.5532,3.5513,3.5629,3.5703,3.5757,3.5797,3.5801,3.5806,3.5795,3.5795,3.5826,3.5853,3.5811,3.5819,3.5866,3.5879,3.5908,3.589,3.5907,3.5905,3.5897,3.5897,3.5917,3.5937,3.5937,3.5935,3.5891,3.5891,3.5906,3.5895,3.5895,3.5895,3.5895,3.5895,3.6176,3.6601,3.6598,3.6917,3.7288,3.6782,3.6585,3.6634,0.0,0.0,0.0,0.0,0.0,0.0,0.0,0.0,0.0,0.0,0.0,0.0,0.0,0.0,0.0,0.0,0.0,0.0,0.0,0.0,0.0,0.0,0.0,0.0,0.0,0.0,0.0,0.0,0.0,0.0,0.0,0.0,0.0,0.0,0.0,0.0,0.0,0.0,0.0,0.0,0.0,0.0,3.2406,3.2406,3.2406,3.2422,3.2621,3.2892,0.0,0.0,3.3652,3.3829,3.4036,3.4136,3.4197,3.4197,3.4197,3.4257,3.4528,0.0,0.0,3.5149,3.5281,3.5379,3.556,3.556,3.556,3.5687,3.5577,3.5515,3.5608,3.5378,0.0,3.5463,3.5378,3.5353,3.5525,3.5632,3.5728,3.576,3.5782,3.5795,3.5795,3.5795,3.5834,3.5898,3.5853,3.5845,3.5906,3.5908,3.5906,3.59,3.59,3.5892,3.5909,3.5909,3.5907,3.5901,3.5901,3.5895,3.59,3.5888,3.5862,3.5882,3.6135,3.6233,3.6252,3.6486,3.6932,3.7459,3.7459,3.7836,3.8348,3.7955,3.7664,3.7547,0.0,0.0,0.0,0.0,0.0,0.0,0.0,0.0,0.0,0.0,0.0,0.0,0.0,0.0,0.0,0.0,0.0,0.0,0.0,0.0,0.0,0.0,0.0,0.0,0.0,0.0,0.0,0.0,0.0,0.0,0.0,0.0,0.0,0.0,0.0,0.0,0.0,0.0,0.0,0.0,0.0,0.0,3.2406,3.2406,3.2406,3.2406,3.2405,0.0,0.0,0.0,3.3273,3.3807,3.382,3.3985,0.0,3.4197,3.4197,0.0,0.0,0.0,3.4701,3.5092,3.5066,3.5039,3.5489,3.5496,3.5468,3.5656,3.5704,3.5626,3.5451,3.5398,3.5357,3.5239,3.5254,3.5318,3.5398,3.5581,3.5707,3.5693,3.5756,3.5795,0.0,3.5795,3.5834,3.5898,3.5901,3.5895,3.5908,3.5908,3.5908,3.5892,3.5892,3.5897,3.5895,3.5895,3.5902,3.5893,3.5893,3.5896,3.5908,3.5822,3.5803,3.5842,3.6701,3.707,3.7128,3.7983,3.8333,3.8352,3.8352,3.8387,3.8503,3.9315,3.9082,3.8367,0.0,0.0,0.0,0.0,0.0,0.0,0.0,0.0,0.0,0.0,0.0,0.0,0.0,0.0,0.0,0.0,0.0,0.0,0.0,0.0,0.0,0.0,0.0,0.0,0.0,0.0,0.0,0.0,0.0,0.0,0.0,0.0,0.0,0.0,0.0,0.0,0.0,0.0,0.0,0.0,0.0,0.0,3.2406,3.2406,3.2406,3.2406,0.0,0.0,0.0,0.0,0.0,0.0,3.3666,0.0,0.0,3.4148,0.0,0.0,0.0,0.0,3.4632,3.4832,3.4925,3.5024,3.5216,3.5235,3.5219,3.5292,3.5232,3.5176,3.5205,3.5013,3.4944,3.5155,3.5122,3.5119,3.5367,3.5463,3.5528,3.5556,3.559,0.0,0.0,0.0,0.0,3.5898,3.5901,3.5905,3.5892,3.5895,3.5923,3.5955,3.5976,3.5937,3.5898,3.5898,3.5894,3.5908,3.5895,3.6181,3.6709,3.6678,3.6984,3.7547,3.7838,3.7959,3.7998,3.8289,3.8732,3.9256,3.9256,3.9587,4.0092,4.0383,4.0305,4.0053,0.0,0.0,0.0,0.0,0.0,0.0,0.0,0.0,0.0,0.0,0.0,0.0,0.0,0.0,0.0,0.0,0.0,0.0,0.0,0.0,0.0,0.0,0.0,0.0,0.0,0.0,0.0,0.0,0.0,0.0,0.0,0.0,0.0,0.0,0.0,0.0,0.0,0.0,0.0,0.0,0.0,0.0,3.2214,3.2108,3.2143,0.0,0.0,0.0,0.0,0.0,0.0,0.0,0.0,0.0,0.0,0.0,0.0,0.0,0.0,3.4424,3.4559,3.4713,3.4783,3.486,3.5069,3.5051,3.5034,3.5089,3.5032,3.499,3.5024,3.4851,3.4771,3.4964,3.4945,3.4982,3.519,3.5327,3.5415,3.5451,3.5496,0.0,0.0,0.0,0.0,3.5898,3.5901,3.5905,3.5892,3.5903,3.5914,3.5963,3.5989,3.5988,3.5937,3.5937,3.6079,3.6376,3.6658,3.7058,3.7564,3.756,3.7882,3.8425,3.8732,3.8835,3.8831,3.9136,3.9567,4.002,4.002,4.0336,4.0782,4.0782,4.0782,4.0793,0.0,0.0,0.0,0.0,0.0,0.0,0.0,0.0,0.0,0.0,0.0,0.0,0.0,0.0,0.0,0.0,0.0,0.0,0.0,0.0,0.0,0.0,0.0,0.0,0.0,0.0,0.0,0.0,0.0,0.0,0.0,0.0,0.0,0.0,0.0,0.0,0.0,0.0,0.0,0.0,0.0,0.0,3.184,3.1598,0.0,0.0,0.0,0.0,0.0,0.0,0.0,0.0,0.0,0.0,0.0,0.0,0.0,3.4386,3.4397,3.4416,3.4465,3.4732,3.4649,3.4618,3.4996,3.499,3.4926,3.5047,3.5081,3.5049,0.0,0.0,3.484,3.4655,3.4781,3.4917,3.4908,3.519,3.5398,0.0,0.0,0.0,0.0,0.0,0.0,3.5872,0.0,3.5895,3.5908,3.5895,3.5908,3.5908,3.6004,3.607,3.607,3.6108,3.6501,3.7275,3.804,3.8428,3.846,3.846,3.8475,3.8568,3.9398,3.9664,3.9613,4.044,4.072,4.0595,4.0595,4.0595,4.0595,4.0595,4.0595,4.0622,0.0,0.0,0.0,0.0,0.0,0.0,0.0,0.0,0.0,0.0,0.0,0.0,0.0,0.0,0.0,0.0,0.0,0.0,0.0,0.0,0.0,0.0,0.0,0.0,0.0,0.0,0.0,0.0,0.0,0.0,0.0,0.0,0.0,0.0,0.0,0.0,0.0,0.0,0.0,0.0,0.0,0.0,3.1598,0.0,0.0,0.0,0.0,0.0,0.0,0.0,0.0,0.0,0.0,0.0,3.4393,0.0,0.0,3.4416,3.4461,3.4473,3.4506,3.4626,3.4604,3.4604,3.4711,3.4691,3.4689,3.4722,3.4732,3.4722,0.0,0.0,0.0,3.4831,3.4955,0.0,3.5107,3.5209,0.0,0.0,0.0,3.534,3.5483,3.5519,0.0,0.0,3.5864,3.5895,3.5908,3.5895,3.5914,3.5967,3.6615,3.697,3.697,3.756,3.7975,3.8176,3.8338,3.8684,3.9219,3.9222,3.9522,4.005,4.0262,4.0346,4.0339,4.0552,4.0635,4.0595,4.0595,4.0595,4.0595,4.0595,4.0595,4.0602,0.0,0.0,0.0,0.0,0.0,0.0,0.0,0.0,0.0,0.0,0.0,0.0,0.0,0.0,0.0,0.0,0.0,0.0,0.0,0.0,0.0,0.0,0.0,0.0,0.0,0.0,0.0,0.0,0.0,0.0,0.0,0.0,0.0,0.0,0.0,0.0,0.0,0.0,0.0,0.0,0.0,0.0,0.0,0.0,0.0,0.0,0.0,0.0,0.0,0.0,0.0,3.3592,3.3947,3.4221,3.445,3.4484,0.0,3.4495,3.4528,3.4539,3.455,3.4602,3.4612,3.4612,3.4612,3.4612,3.4612,3.4612,3.4612,0.0,0.0,0.0,0.0,0.0,0.0,0.0,3.5134,3.5185,3.5209,0.0,3.5209,0.0,3.5362,3.5417,3.5496,0.0,3.5769,3.5864,3.5862,3.6225,3.647,3.6514,3.7363,3.7835,3.7835,3.8643,3.9053,3.9026,3.9315,3.967,4.0065,4.0016,4.0205,4.0595,0.0,4.0566,4.0515,4.0515,4.0477,4.0468,4.0468,4.0468,4.0468,4.0468,4.0468,4.0468,0.0,0.0,0.0,0.0,0.0,0.0,0.0,0.0,0.0,0.0,0.0,0.0,0.0,0.0,0.0,0.0,0.0,0.0,0.0,0.0,0.0,0.0,0.0,0.0,0.0,0.0,0.0,0.0,0.0,0.0,0.0,0.0,0.0,0.0,0.0,0.0,0.0,0.0,0.0,0.0,0.0,0.0,0.0,0.0,0.0,0.0,0.0,0.0,0.0,0.0,3.3422,3.3748,3.4036,3.4305,3.4517,3.4572,3.4612,3.4612,3.4612,3.4612,3.4612,3.4612,3.4612,3.4612,3.4612,3.4612,3.4612,3.4612,0.0,0.0,3.4612,0.0,3.4666,3.4798,0.0,3.4964,3.5101,3.516,3.5209,3.5209,3.5209,3.5209,3.5226,3.5327,3.5451,3.558,3.5806,3.5948,3.5965,3.6787,3.7348,3.7514,3.8258,3.8697,3.8787,3.9527,3.9887,3.9839,4.0471,4.0751,4.0739,4.0628,4.0559,4.0564,4.0564,0.0,4.0392,4.0392,4.0342,4.0301,4.0301,4.0301,4.0301,4.0301,4.0301,4.0301,0.0,0.0,0.0,0.0,0.0,0.0,0.0,0.0,0.0,0.0,0.0,0.0,0.0,0.0,0.0,0.0,0.0,0.0,0.0,0.0,0.0,0.0,0.0,0.0,0.0,0.0,0.0,0.0,0.0,0.0,0.0,0.0,0.0,0.0,0.0,0.0,0.0,0.0,0.0,0.0,0.0,0.0,0.0,0.0,0.0,0.0,0.0,0.0,0.0,0.0,3.3429,3.3773,3.4142,3.4416,3.4572,3.4602,3.4612,3.4612,3.4612,3.4612,3.4612,3.4612,3.4612,3.4612,3.4612,3.4612,0.0,0.0,0.0,3.4612,3.4612,3.4687,0.0,3.487,0.0,0.0,0.0,0.0,3.5209,0.0,0.0,0.0,0.0,0.0,0.0,0.0,0.0,3.6676,3.6793,3.7673,3.8478,3.9163,3.9326,3.9695,4.0315,4.041,4.0455,4.0452,4.0578,4.0581,4.0469,4.0446,4.04,4.0345,4.0345,0.0,4.0328,4.0328,4.031,4.0301,4.0301,4.0301,4.0301,4.0301,4.0301,4.0301,0.0,0.0,0.0,0.0,0.0,0.0,0.0,0.0,0.0,0.0,0.0,0.0,0.0,0.0,0.0,0.0,0.0,0.0,0.0,0.0,0.0,0.0,0.0,0.0,0.0,0.0,0.0,0.0,0.0,0.0,0.0,0.0,0.0,0.0,0.0,0.0,0.0,0.0,0.0,0.0,0.0,0.0,0.0,0.0,0.0,0.0,0.0,0.0,0.0,0.0,3.3174,3.3768,3.4179,3.4439,3.4612,3.4612,3.4612,3.4612,3.4612,3.4612,3.4612,3.4612,3.4612,3.4612,3.4612,0.0,0.0,0.0,0.0,3.4612,3.4612,0.0,0.0,0.0,0.0,0.0,0.0,0.0,0.0,0.0,0.0,0.0,0.0,0.0,0.0,0.0,0.0,3.7899,3.7541,3.8412,3.9296,4.0081,4.0145,4.0324,4.0645,4.0615,4.0597,4.0604,4.0526,4.0462,4.0397,4.0368,4.0336,4.0301,4.0301,0.0,4.0301,4.0301,4.0301,4.0301,4.0301,4.0301,4.0301,4.0301,4.0253,4.0215,0.0,0.0,0.0,0.0,0.0,0.0,0.0,0.0,0.0,0.0,0.0,0.0,0.0,0.0,0.0,0.0,0.0,0.0,0.0,0.0,0.0,0.0,0.0,0.0,0.0,0.0,0.0,0.0,0.0,0.0,0.0,0.0,0.0,0.0,0.0,0.0,0.0,0.0,0.0,0.0,0.0,0.0,0.0,0.0,0.0,0.0,0.0,0.0,0.0,0.0,3.2919,3.3648,3.3999,3.4321,3.4583,3.4539,3.458,3.4612,3.4612,3.4612,3.4612,3.4612,3.4612,3.4612,3.4612,3.4612,0.0,0.0,0.0,3.4612,3.4612,0.0,0.0,0.0,0.0,0.0,0.0,0.0,0.0,0.0,0.0,0.0,0.0,0.0,0.0,0.0,0.0,0.0,3.8593,3.9258,3.9921,4.0546,4.0616,4.0604,4.0544,4.0544,4.0535,4.0534,4.0433,4.0375,4.0375,4.0318,4.0301,4.0301,4.0301,0.0,0.0,4.0301,4.0301,4.0301,4.0301,4.0272,4.0253,4.0253,4.0166,4.0067,0.0,0.0,0.0,0.0,0.0,0.0,0.0,0.0,0.0,0.0,0.0,0.0,0.0,0.0,0.0,0.0,0.0,0.0,0.0,0.0,0.0,0.0,0.0,0.0,0.0,0.0,0.0,0.0,0.0,0.0,0.0,0.0,0.0,0.0,0.0,0.0,0.0,0.0,0.0,0.0,0.0,0.0,0.0,0.0,0.0,0.0,0.0,0.0,0.0,0.0,0.0,3.327,3.3429,3.4012,3.4561,3.4374,0.0,0.0,3.4612,3.4612,3.4612,3.4612,3.4612,3.4612,3.4612,0.0,0.0,0.0,3.4612,3.4612,3.4612,0.0,0.0,0.0,0.0,0.0,0.0,0.0,0.0,0.0,0.0,0.0,0.0,0.0,0.0,0.0,0.0,0.0,4.0369,4.044,4.0475,4.0419,4.0419,4.04,4.0318,4.0337,4.0337,4.0328,4.031,4.031,4.0301,4.0291,4.0301,4.0301,4.0301,0.0,0.0,4.0301,4.0301,4.0301,4.0301,4.0225,4.0127,4.0127,4.0036,3.9922,0.0,0.0,0.0,0.0,0.0,0.0,0.0,0.0,0.0,0.0,0.0,0.0,0.0,0.0,0.0,0.0,0.0,0.0,0.0,0.0,0.0,0.0,0.0,0.0,0.0,0.0,0.0,0.0,0.0,0.0,0.0,0.0,0.0,0.0,0.0,0.0,0.0,0.0,0.0,0.0,0.0,0.0,0.0,0.0,0.0,0.0,0.0,0.0,0.0,0.0,0.0,0.0,3.3217,3.3684,0.0,0.0,3.445,3.4612,3.4612,3.4612,3.4612,3.4612,3.4612,3.4612,3.4612,0.0,0.0,3.4612,3.4612,3.4612,3.4612,3.4439,0.0,0.0,0.0,0.0,0.0,0.0,0.0,0.0,0.0,0.0,0.0,0.0,0.0,0.0,0.0,0.0,4.0413,4.0422,4.0396,4.0335,4.0335,4.0327,4.0301,4.0301,4.0301,4.0301,4.0301,4.0301,4.0301,4.0301,4.0301,4.0301,4.0301,0.0,0.0,4.0301,4.0244,4.0176,4.0176,4.0106,3.9984,3.9984,3.9881,3.9792,0.0,0.0,0.0,0.0,0.0,0.0,0.0,0.0,0.0,0.0,0.0,0.0,0.0,0.0,0.0,0.0,0.0,0.0,0.0,0.0,0.0,0.0,0.0,0.0,0.0,0.0,0.0,0.0,0.0,0.0,0.0,0.0,0.0,0.0,0.0,0.0,0.0,0.0,0.0,0.0,0.0,0.0,0.0,0.0,0.0,0.0,0.0,0.0,0.0,0.0,0.0,0.0,0.0,0.0,0.0,0.0,3.4351,3.4517,3.4572,3.4612,3.4612,3.4612,3.4612,3.4612,0.0,0.0,0.0,3.4612,3.4612,3.4572,3.4517,3.4404,3.434,0.0,0.0,0.0,0.0,0.0,0.0,0.0,0.0,0.0,0.0,0.0,0.0,0.0,0.0,0.0,4.0301,4.0301,4.0301,4.0301,4.0301,4.0301,4.0301,4.0301,4.0301,4.0301,4.0301,4.0301,4.0301,4.0301,4.0301,4.0301,4.0301,0.0,0.0,4.0234,4.0157,4.0036,3.9984,3.9878,3.9747,3.967,3.9556,3.9489,0.0,0.0,0.0,0.0,0.0,0.0,0.0,0.0,0.0,0.0,0.0,0.0,0.0,0.0,0.0,0.0,0.0,0.0,0.0,0.0,0.0,0.0,0.0,0.0,0.0,0.0,0.0,0.0,0.0,0.0,0.0,0.0,0.0,0.0,0.0,0.0,0.0,0.0,0.0,0.0,0.0,0.0,0.0,0.0,0.0,0.0,0.0,0.0,0.0,0.0,0.0,0.0,0.0,0.0,0.0,0.0,3.4148,3.434,3.4539,3.4612,3.4612,3.4612,3.4612,3.4612,0.0,0.0,0.0,3.4612,3.4612,3.4539,3.434,3.4293,3.4293,3.4305,0.0,0.0,0.0,0.0,0.0,0.0,0.0,0.0,0.0,0.0,0.0,0.0,0.0,0.0,4.0301,4.0301,4.0301,4.0301,4.0301,4.0301,4.0301,4.0301,4.0301,4.0301,4.0301,4.0301,4.0301,4.0301,4.0301,0.0,0.0,0.0,0.0,4.0106,4.0026,3.9878,3.967,3.9514,3.9376,3.9109,3.8966,3.8925,0.0,0.0,0.0,0.0,0.0,0.0,0.0,0.0,0.0,0.0,0.0,0.0,0.0,0.0,0.0,0.0,0.0,0.0,0.0,0.0,0.0,0.0,0.0,0.0,0.0,0.0,0.0,0.0,0.0,0.0,0.0,0.0,0.0,0.0,0.0,0.0,0.0,0.0,0.0,0.0,0.0,0.0,0.0,0.0,0.0,0.0,0.0,0.0,0.0,0.0,0.0,0.0,0.0,0.0,0.0,0.0,0.0,0.0,3.4572,3.4612,3.4612,3.4612,3.4612,3.4612,3.4612,0.0,0.0,3.4612,3.4612,3.4539,3.4328,3.4293,3.4293,3.4293,3.4293,0.0,0.0,0.0,0.0,0.0,0.0,0.0,0.0,0.0,0.0,0.0,0.0,0.0,4.0301,4.0301,4.0301,4.0301,4.0301,4.0301,4.0301,4.0301,4.0301,4.0301,4.0301,4.0301,4.0301,4.0301,4.0301,0.0,0.0,0.0,0.0,3.9578,3.9408,3.9281,3.9216,3.9146,3.9045,3.8956,3.8917,3.891,0.0,0.0,0.0,0.0,0.0,0.0,0.0,0.0,0.0,0.0,0.0,0.0,0.0,0.0,0.0,0.0,0.0,0.0,0.0,0.0,0.0,0.0,0.0,0.0,0.0,0.0,0.0,0.0,0.0,0.0,0.0,0.0,0.0,0.0,0.0,0.0,0.0,0.0,0.0,0.0,0.0,0.0,3.1193,0.0,0.0,0.0,0.0,0.0,0.0,0.0,0.0,0.0,0.0,0.0,0.0,0.0,0.0,0.0,0.0,3.4612,3.4612,3.4612,3.4612,0.0,0.0,0.0,0.0,3.4612,3.4539,3.4439,3.4221,3.4245,3.4281,3.4197,3.4305,0.0,0.0,0.0,0.0,0.0,0.0,0.0,0.0,0.0,0.0,0.0,0.0,0.0,4.0147,4.0244,4.0301,4.0301,4.0301,4.0301,4.0301,4.0301,4.0301,4.0301,4.0196,4.0157,4.0157,4.0027,3.9975,0.0,0.0,0.0,0.0,3.9205,3.9049,3.8947,3.8843,3.8792,3.8743,3.8652,3.864,3.864,0.0,0.0,0.0,0.0,0.0,0.0,0.0,0.0,0.0,0.0,0.0,0.0,0.0,0.0,0.0,0.0,0.0,0.0,0.0,0.0,0.0,0.0,0.0,0.0,0.0,0.0,0.0,0.0,3.0703,3.0788,3.0825,0.0,0.0,0.0,0.0,0.0,0.0,0.0,0.0,0.0,3.0747,3.1004,0.0,0.0,0.0,0.0,0.0,0.0,0.0,0.0,0.0,0.0,0.0,0.0,0.0,0.0,0.0,0.0,0.0,0.0,0.0,0.0,0.0,0.0,0.0,0.0,0.0,0.0,0.0,3.4245,3.4036,3.4161,3.4233,3.4036,3.4328,0.0,0.0,0.0,0.0,0.0,0.0,0.0,0.0,0.0,0.0,0.0,0.0,0.0,3.9903,4.0147,4.0263,4.0263,4.0263,4.0272,4.0301,4.0272,4.0263,4.0253,3.9996,3.9851,3.984,3.9592,3.9414,0.0,0.0,0.0,0.0,3.8952,3.8909,3.8837,3.8572,3.8478,3.8446,3.8274,3.8209,3.8209,0.0,0.0,0.0,0.0,0.0,0.0,0.0,0.0,0.0,0.0,0.0,0.0,0.0,0.0,0.0,0.0,0.0,0.0,0.0,0.0,0.0,0.0,0.0,0.0,0.0,0.0,0.0,3.0497,3.0559,3.0744,3.1024,3.0707,0.0,0.0,0.0,0.0,3.0539,3.1015,3.1117,3.1021,3.1103,3.1393,0.0,0.0,0.0,0.0,3.2267,3.2336,0.0,0.0,0.0,0.0,0.0,0.0,0.0,0.0,0.0,0.0,0.0,0.0,0.0,0.0,0.0,0.0,0.0,0.0,0.0,0.0,0.0,3.4245,3.4036,3.4161,3.4233,3.4036,0.0,0.0,0.0,0.0,0.0,0.0,0.0,0.0,0.0,0.0,0.0,0.0,0.0,3.9477,3.9881,3.9956,3.9996,3.9996,3.9996,4.0098,4.0301,4.0098,3.9937,3.9835,3.9578,3.9414,3.9364,3.9301,3.9244,0.0,0.0,0.0,3.8741,3.8491,3.8387,3.8356,3.8307,3.8274,3.8256,3.8225,3.8209,3.8209,0.0,0.0,0.0,0.0,0.0,0.0,0.0,0.0,0.0,0.0,0.0,0.0,0.0,0.0,0.0,0.0,0.0,0.0,0.0,0.0,0.0,0.0,0.0,0.0,0.0,0.0,0.0,0.0,0.0,3.1218,0.0,0.0,0.0,0.0,0.0,0.0,3.112,3.1254,3.1351,3.1393,3.1334,0.0,0.0,0.0,0.0,0.0,3.2406,3.2406,0.0,3.2406,3.249,3.2589,0.0,0.0,0.0,0.0,3.4018,0.0,0.0,0.0,0.0,0.0,0.0,0.0,0.0,0.0,0.0,0.0,0.0,0.0,0.0,0.0,0.0,0.0,0.0,0.0,0.0,0.0,0.0,0.0,0.0,0.0,0.0,0.0,0.0,0.0,0.0,3.9205,3.9433,3.9555,3.9632,3.9632,3.9578,3.9679,3.9933,3.9732,3.959,3.9505,3.9205,3.9049,3.9008,3.8882,3.8814,0.0,0.0,0.0,3.8462,3.8256,3.8209,3.8209,3.8209,3.8209,3.8209,3.8209,3.8209,3.8209,0.0,0.0,0.0,0.0,0.0,0.0,0.0,0.0,0.0,0.0,0.0,0.0,0.0,0.0,0.0,0.0,0.0,0.0,0.0,0.0,0.0,0.0,0.0,0.0,0.0,0.0,0.0,0.0,0.0,0.0,0.0,0.0,0.0,0.0,0.0,0.0,3.1764,3.1372,3.1487,3.1876,3.1524,0.0,0.0,0.0,0.0,0.0,0.0,0.0,0.0,3.2406,3.2557,3.2718,3.2574,0.0,0.0,0.0,0.0,0.0,0.0,0.0,0.0,0.0,0.0,0.0,0.0,0.0,0.0,0.0,0.0,0.0,0.0,0.0,0.0,0.0,0.0,0.0,0.0,0.0,0.0,0.0,0.0,0.0,0.0,0.0,0.0,0.0,0.0,3.8952,3.8882,3.9104,3.9218,3.9218,3.9165,3.9197,3.9331,3.9268,3.9223,3.9192,3.8872,3.8733,3.8685,3.846,3.8354,3.829,0.0,0.0,3.8209,3.8209,3.8209,3.8209,3.8209,3.8209,3.8209,3.8209,3.8209,3.8209,0.0,0.0,0.0,0.0,0.0,0.0,0.0,0.0,0.0,0.0,0.0,0.0,0.0,0.0,0.0,0.0,0.0,0.0,0.0,0.0,0.0,0.0,0.0,0.0,0.0,0.0,0.0,0.0,0.0,0.0,3.18,3.18,3.18,0.0,0.0,3.18,3.18,3.1727,3.1765,3.1894,0.0,0.0,0.0,0.0,0.0,0.0,0.0,0.0,0.0,3.2406,3.2422,3.254,3.3003,0.0,0.0,0.0,0.0,0.0,0.0,0.0,0.0,0.0,0.0,0.0,0.0,0.0,0.0,0.0,0.0,0.0,0.0,0.0,0.0,0.0,0.0,0.0,0.0,0.0,0.0,0.0,0.0,0.0,0.0,0.0,0.0,0.0,0.0,3.86,3.8799,3.8857,3.8872,3.8872,3.8872,3.8774,3.8569,3.8774,3.8843,3.8785,3.851,3.8354,3.8289,3.8257,3.8242,3.8225,0.0,3.8209,3.8209,3.8209,3.8209,3.8209,3.8209,3.8209,3.8209,3.8209,3.8209,3.8209,0.0,0.0,0.0,0.0,0.0,0.0,0.0,0.0,0.0,0.0,0.0,0.0,0.0,0.0,0.0,0.0,0.0,0.0,0.0,0.0,0.0,0.0,0.0,0.0,0.0,0.0,0.0,0.0,0.0,3.18,3.18,3.18,3.18,3.18,0.0,3.18,3.18,3.18,3.1837,3.1856,0.0,0.0,0.0,0.0,0.0,0.0,0.0,0.0,0.0,0.0,3.2507,3.267,3.2939,0.0,0.0,0.0,0.0,0.0,0.0,0.0,0.0,0.0,0.0,0.0,0.0,0.0,0.0,0.0,0.0,0.0,0.0,0.0,0.0,0.0,0.0,0.0,0.0,0.0,0.0,0.0,0.0,0.0,0.0,0.0,0.0,0.0,0.0,0.0,3.8541,3.8541,3.8541,3.8541,3.8476,3.8433,3.8289,3.8399,3.8478,3.8478,3.8322,3.8242,3.8209,3.8209,3.8209,3.8209,0.0,3.8209,3.8209,3.8209,3.8209,3.8209,3.8209,3.8209,3.8209,3.8209,3.8209,3.8209,0.0,0.0,0.0,0.0,0.0,0.0,0.0,0.0,0.0,0.0,0.0,0.0,0.0,0.0,0.0,0.0,0.0,0.0,0.0,0.0,0.0,0.0,0.0,0.0,0.0,0.0,0.0,3.2059,3.2248,3.2231,3.2041,3.1869,3.18,0.0,3.18,3.18,3.18,3.18,3.18,3.18,0.0,0.0,0.0,0.0,0.0,0.0,0.0,0.0,0.0,0.0,0.0,0.0,0.0,0.0,0.0,0.0,0.0,3.4221,3.434,0.0,0.0,0.0,0.0,0.0,0.0,0.0,0.0,0.0,0.0,0.0,0.0,0.0,0.0,0.0,0.0,0.0,0.0,0.0,0.0,0.0,0.0,0.0,0.0,0.0,0.0,0.0,0.0,0.0,3.8274,3.8274,3.8274,3.8274,3.8242,3.8209,3.8209,3.8209,3.8242,3.8274,3.8207,3.8209,3.8209,3.8209,3.8209,3.8209,3.8209,3.8209,3.8209,3.8209,3.8209,3.8209,3.8209,3.8209,3.8209,3.8209,3.8209,3.8209,0.0,0.0,0.0,0.0,0.0,0.0,0.0,0.0,0.0,0.0,0.0,0.0,0.0,0.0,0.0,0.0,0.0,0.0,0.0,0.0,0.0,0.0,0.0,0.0,0.0,3.2472,3.2817,3.2817,3.3559,3.3542,3.2817,3.211,3.18,3.18,3.18,3.18,3.18,3.18,3.18,3.18,3.18,0.0,0.0,0.0,0.0,0.0,0.0,0.0,0.0,0.0,0.0,0.0,0.0,0.0,0.0,0.0,0.0,3.4221,3.4281,3.4351,0.0,0.0,0.0,0.0,0.0,0.0,0.0,0.0,0.0,0.0,0.0,0.0,0.0,0.0,0.0,0.0,0.0,0.0,0.0,0.0,0.0,0.0,0.0,0.0,0.0,0.0,0.0,0.0,3.8209,3.8209,3.8209,3.8209,3.8209,3.8209,3.8209,3.8209,3.8209,3.8209,3.8209,3.8209,3.8209,3.8209,3.8209,3.8209,3.8209,3.8209,3.8209,3.8209,3.8209,3.8209,3.8209,3.8209,3.8209,3.8209,3.8209,3.8209,0.0,0.0,0.0,0.0,0.0,0.0,0.0,0.0,0.0,0.0,0.0,0.0,0.0,0.0,0.0,0.0,0.0,0.0,0.0,0.0,0.0,0.0,0.0,3.3837,3.325,3.349,3.3645,3.3645,3.3938,3.3941,3.3628,3.3352,0.0,0.0,3.3214,3.2938,3.2472,3.2472,3.2214,3.18,3.18,3.1837,0.0,0.0,0.0,0.0,0.0,0.0,0.0,0.0,0.0,0.0,0.0,0.0,0.0,0.0,0.0,0.0,3.4136,3.4281,0.0,0.0,0.0,0.0,0.0,0.0,0.0,0.0,0.0,0.0,0.0,0.0,0.0,0.0,0.0,0.0,0.0,0.0,0.0,0.0,0.0,0.0,0.0,0.0,0.0,0.0,0.0,0.0,3.8209,3.8209,3.8209,3.8209,3.8209,3.8209,3.8209,3.8209,3.8209,3.8209,3.8209,3.8209,3.8209,3.8209,3.8209,3.8209,3.8209,3.8209,3.8209,3.8209,3.8209,3.8209,3.8209,3.8209,3.8209,3.8209,3.8209,3.8209,0.0,0.0,0.0,0.0,0.0,0.0,0.0,0.0,0.0,0.0,0.0,0.0,0.0,0.0,0.0,0.0,0.0,0.0,0.0,0.0,0.0,0.0,0.0,3.4783,3.4783,3.4783,3.468,3.4458,3.4458,3.4458,3.4438,0.0,0.0,0.0,3.4113,3.3783,3.3283,3.3283,3.299,3.2524,3.2524,3.2524,0.0,0.0,0.0,0.0,0.0,0.0,0.0,0.0,0.0,0.0,0.0,0.0,0.0,0.0,0.0,0.0,3.4011,3.4233,0.0,0.0,0.0,0.0,0.0,0.0,0.0,0.0,0.0,0.0,0.0,0.0,0.0,0.0,0.0,0.0,0.0,0.0,0.0,0.0,0.0,0.0,0.0,0.0,0.0,0.0,0.0,0.0,0.0,3.8209,3.8209,3.8209,3.8209,3.8209,3.8209,3.8209,3.8209,3.8209,3.8209,3.8209,3.8209,3.8209,3.8209,3.8209,3.8209,3.8209,3.8209,3.8209,3.8209,3.8209,3.8209,3.8209,3.8209,3.8209,3.8209,3.8209,0.0,0.0,0.0,0.0,0.0,0.0,0.0,0.0,0.0,0.0,0.0,0.0,0.0,0.0,0.0,0.0,0.0,0.0,0.0,0.0,0.0,0.0,0.0,3.6301,3.6301,3.6301,3.5939,3.5197,3.5197,3.5197,3.518,3.4456,0.0,0.0,0.0,3.413,3.4113,3.4113,3.4113,3.4113,3.4113,3.4113,3.4133,0.0,0.0,0.0,0.0,0.0,0.0,0.0,0.0,0.0,0.0,0.0,0.0,0.0,0.0,3.3895,0.0,0.0,0.0,0.0,0.0,0.0,0.0,0.0,0.0,0.0,0.0,0.0,0.0,0.0,0.0,0.0,0.0,0.0,0.0,0.0,0.0,0.0,0.0,0.0,0.0,0.0,0.0,0.0,0.0,0.0,0.0,3.8209,3.8209,3.8209,3.8209,3.8209,3.8209,3.8209,3.8209,3.8209,3.8192,3.8192,3.8209,3.8209,3.8209,3.8209,3.8209,3.8209,3.8209,3.8209,3.8209,3.8209,3.8209,3.8209,3.8209,3.8209,3.8209,3.8209,0.0,0.0,0.0,0.0,0.0,0.0,0.0,0.0,0.0,0.0,0.0,0.0,0.0,0.0,0.0,0.0,0.0,0.0,0.0,0.0,0.0,0.0,0.0,0.0,0.0,0.0,3.6197,3.5973,3.5973,3.5973,0.0,0.0,0.0,3.5645,0.0,0.0,0.0,3.4869,3.4559,3.4113,3.4113,3.4113,3.4113,0.0,0.0,0.0,0.0,0.0,0.0,0.0,0.0,0.0,0.0,0.0,0.0,0.0,3.3332,3.3726,0.0,0.0,0.0,0.0,0.0,0.0,0.0,0.0,0.0,0.0,0.0,0.0,0.0,0.0,0.0,0.0,0.0,0.0,0.0,0.0,0.0,0.0,0.0,0.0,0.0,0.0,0.0,0.0,0.0,0.0,0.0,3.8209,3.8209,3.8209,3.8209,3.8209,3.8209,3.8209,3.8209,3.8192,3.7862,3.788,3.8209,3.8209,3.8209,3.8209,3.8209,3.8209,3.8209,3.8209,3.8209,3.8209,3.8209,3.8209,3.8209,3.8209,3.8209,3.8209,0.0,0.0,0.0,0.0,0.0,0.0,0.0,0.0,0.0,0.0,0.0,0.0,0.0,0.0,0.0,0.0,0.0,0.0,0.0,0.0,0.0,0.0,0.0,0.0,0.0,3.6301,3.6301,0.0,0.0,0.0,0.0,0.0,0.0,3.6301,0.0,3.6042,0.0,0.0,3.537,3.4956,3.4956,3.4956,3.4993,0.0,0.0,0.0,0.0,0.0,0.0,0.0,0.0,0.0,0.0,0.0,0.0,0.0,3.3093,3.348,0.0,0.0,0.0,0.0,0.0,0.0,0.0,0.0,0.0,0.0,0.0,0.0,0.0,0.0,0.0,0.0,0.0,0.0,0.0,0.0,0.0,0.0,0.0,0.0,0.0,0.0,0.0,0.0,0.0,0.0,0.0,3.8209,3.8209,3.8209,3.8209,3.8209,3.8209,3.8209,3.8106,3.7933,3.7632,3.7559,3.7685,3.7845,3.7933,3.7933,3.8123,3.8088,3.7933,3.8123,3.8209,3.8174,3.7984,3.7933,3.7933,3.7933,3.7933,3.795,0.0,0.0,0.0,0.0,0.0,0.0,0.0,0.0,0.0,0.0,0.0,0.0,0.0,0.0,0.0,0.0,0.0,0.0,0.0,0.0,0.0,0.0,0.0,0.0,0.0,0.0,0.0,0.0,0.0,0.0,0.0,0.0,3.6301,3.6301,0.0,3.6301,0.0,3.6301,3.6301,3.6301,3.6301,3.6301,3.6322,3.6423,0.0,0.0,0.0,0.0,0.0,0.0,0.0,0.0,0.0,0.0,0.0,0.0,0.0,0.0,0.0,0.0,0.0,0.0,0.0,0.0,0.0,0.0,0.0,0.0,0.0,0.0,0.0,0.0,0.0,0.0,0.0,0.0,0.0,0.0,0.0,0.0,0.0,0.0,0.0,0.0,0.0,0.0,0.0,0.0,0.0,3.8209,3.8209,3.8209,3.8209,3.8192,3.814,3.814,3.7915,3.7433,3.7414,3.7208,3.686,3.7265,3.745,3.7469,3.7898,3.7827,3.7487,3.7915,3.8089,3.8037,3.7614,3.7469,3.7469,3.7469,3.7487,3.7578,0.0,0.0,0.0,0.0,0.0,0.0,0.0,0.0,0.0,0.0,0.0,0.0,0.0,0.0,0.0,0.0,0.0,0.0,0.0,0.0,0.0,0.0,0.0,0.0,0.0,0.0,0.0,0.0,0.0,0.0,0.0,0.0,0.0,3.6301,0.0,3.6301,0.0,3.6301,3.6301,3.6301,3.6301,3.6301,3.6301,3.6322,3.5472,0.0,0.0,0.0,0.0,0.0,0.0,0.0,0.0,3.2939,3.3065,3.2829,0.0,0.0,0.0,0.0,0.0,0.0,0.0,0.0,0.0,0.0,0.0,0.0,0.0,0.0,0.0,0.0,0.0,0.0,0.0,0.0,0.0,0.0,0.0,0.0,0.0,0.0,0.0,0.0,0.0,0.0,0.0,0.0,3.8209,3.8209,3.8209,3.8209,3.8209,3.802,3.765,3.765,3.7432,0.0,3.6719,3.6512,3.6451,3.6841,3.7036,3.7036,3.715,3.7113,3.7036,3.715,3.7188,3.7169,3.7075,3.7132,3.7265,3.7265,3.7394,3.7577,0.0,0.0,0.0,0.0,0.0,0.0,0.0,0.0,0.0,0.0,0.0,0.0,0.0,0.0,0.0,0.0,0.0,0.0,0.0,0.0,0.0,0.0,0.0,0.0,0.0,0.0,0.0,0.0,0.0,0.0,0.0,0.0,0.0,3.6301,0.0,3.6301,3.6301,3.6301,3.6301,3.6301,3.6301,3.6301,3.6301,3.6301,3.5431,3.4218,3.4347,0.0,0.0,0.0,0.0,0.0,0.0,0.0,3.3078,0.0,0.0,0.0,0.0,0.0,0.0,0.0,0.0,0.0,0.0,0.0,0.0,0.0,0.0,0.0,0.0,0.0,0.0,0.0,0.0,0.0,0.0,0.0,0.0,0.0,0.0,0.0,0.0,0.0,0.0,0.0,0.0,3.8209,3.8209,3.8209,3.8209,3.8209,3.7984,3.7756,3.7505,3.7321,3.7017,3.6597,3.6388,3.6174,3.598,3.6412,3.6618,3.6618,3.6821,3.6781,3.6618,3.6821,3.686,3.6783,3.66,3.6641,3.6821,3.6821,3.7015,3.73,0.0,0.0,0.0,0.0,0.0,0.0,0.0,0.0,0.0,0.0,0.0,0.0,0.0,0.0,0.0,0.0,0.0,0.0,0.0,0.0,0.0,0.0,0.0,0.0,0.0,0.0,0.0,0.0,0.0,0.0,0.0,0.0,0.0,3.6301,0.0,0.0,3.6301,3.6301,3.6301,3.6301,3.6301,3.6301,3.6301,3.6301,3.55,3.4408,3.4399,3.3537,3.2442,3.2673,0.0,0.0,0.0,0.0,0.0,0.0,0.0,0.0,0.0,0.0,0.0,0.0,0.0,0.0,0.0,0.0,0.0,0.0,0.0,0.0,0.0,0.0,0.0,0.0,0.0,0.0,0.0,0.0,0.0,0.0,0.0,0.0,0.0,0.0,0.0,0.0,0.0,3.8209,3.8209,3.8209,3.8157,3.8071,3.7685,3.7414,3.7284,3.6958,3.6597,3.6174,3.6174,3.598,3.5622,3.6002,3.6174,3.6174,3.6516,3.6454,3.6152,3.6495,3.6563,3.6422,3.6161,3.6161,3.6371,3.6412,3.6638,3.6956,0.0,0.0,0.0,0.0,0.0,0.0,0.0,0.0,0.0,0.0,0.0,0.0,0.0,0.0,0.0,0.0,0.0,0.0,0.0,0.0,0.0,0.0,0.0,0.0,0.0,0.0,0.0,0.0,0.0,0.0,0.0,0.0,0.0,0.0,0.0,0.0,0.0,3.6301,3.6301,3.6301,3.6301,3.6301,3.6301,3.6301,3.5866,3.5171,3.459,3.3904,3.3159,3.2633,3.2589,0.0,0.0,0.0,0.0,0.0,0.0,0.0,0.0,0.0,0.0,0.0,0.0,0.0,0.0,0.0,0.0,0.0,0.0,0.0,0.0,0.0,0.0,0.0,0.0,0.0,0.0,0.0,0.0,0.0,0.0,0.0,0.0,0.0,0.0,0.0,3.8209,3.8209,3.8209,3.8209,3.802,3.7614,3.7523,3.717,3.6471,3.6409,3.6135,3.5689,3.5689,3.5667,3.56,3.565,3.5644,3.5611,3.5678,3.5571,3.5452,3.5503,3.5487,3.5509,3.5751,3.5958,3.6182,3.6544,3.6788,3.695,0.0,0.0,0.0,0.0,0.0,0.0,0.0,0.0,0.0,0.0,0.0,0.0,0.0,0.0,0.0,0.0,0.0,0.0,0.0,0.0,0.0,0.0,0.0,0.0,0.0,0.0,0.0,0.0,0.0,0.0,0.0,3.6301,3.6301,0.0,0.0,0.0,0.0,0.0,0.0,3.6301,3.6301,3.6301,3.6301,3.6301,3.5915,3.531,3.4642,3.3974,3.3299,3.2634,3.2473,3.2588,3.2749,0.0,0.0,0.0,0.0,0.0,0.0,0.0,0.0,0.0,0.0,0.0,0.0,0.0,0.0,0.0,0.0,0.0,0.0,0.0,0.0,0.0,0.0,0.0,0.0,0.0,0.0,0.0,0.0,0.0,0.0,0.0,0.0,0.0,3.8209,3.8209,3.8209,3.8209,3.7984,3.7523,3.7266,3.688,3.6301,3.6045,3.5805,3.56,3.56,3.56,3.56,3.56,3.5577,3.5549,3.5514,3.5469,3.5423,3.5314,3.5245,3.5198,3.5344,3.5532,3.5722,3.5915,3.6135,3.635,0.0,0.0,0.0,0.0,0.0,0.0,0.0,0.0,0.0,0.0,0.0,0.0,0.0,0.0,0.0,0.0,0.0,0.0,0.0,0.0,0.0,0.0,0.0,0.0,0.0,0.0,0.0,0.0,0.0,0.0,3.6402,3.6402,3.6402,0.0,3.6322,0.0,0.0,0.0,0.0,0.0,0.0,3.6301,0.0,0.0,0.0,0.0,0.0,3.4271,3.3633,3.2915,3.2564,3.244,3.2638,3.2702,0.0,0.0,0.0,0.0,0.0,0.0,0.0,0.0,0.0,0.0,0.0,0.0,0.0,0.0,0.0,0.0,0.0,0.0,0.0,0.0,0.0,0.0,0.0,0.0,0.0,0.0,0.0,0.0,0.0,0.0,0.0,0.0,3.8209,3.8209,3.8209,3.8089,3.781,3.7377,3.6958,3.6536,3.6131,3.5761,3.56,3.56,3.56,3.56,3.56,3.56,3.56,3.56,3.552,3.5469,3.54,3.5291,3.5175,3.5065,3.5135,3.5281,3.5424,3.5498,3.5683,3.5885,0.0,0.0,0.0,0.0,0.0,0.0,0.0,0.0,0.0,0.0,0.0,0.0,0.0,0.0,0.0,0.0,0.0,0.0,0.0,0.0,0.0,0.0,0.0,0.0,0.0,0.0,0.0,0.0,0.0,0.0,3.6681,3.6681,3.6681,3.6681,3.6423,3.6301,3.6301,0.0,0.0,0.0,0.0,0.0,0.0,0.0,0.0,0.0,0.0,0.0,3.4512,3.3723,3.2985,3.2388,3.2405,3.2422,0.0,0.0,0.0,0.0,0.0,0.0,0.0,0.0,0.0,0.0,0.0,0.0,0.0,0.0,0.0,0.0,0.0,0.0,0.0,0.0,0.0,0.0,0.0,0.0,0.0,0.0,0.0,0.0,0.0,0.0,0.0,0.0,3.8209,3.8209,3.8209,3.7774,3.7358,3.6939,3.6536,3.611,3.5644,3.5622,3.56,3.56,3.56,3.56,3.56,3.56,3.56,3.56,3.552,3.5354,3.5128,3.5111,3.5018,3.4947,3.5264,3.5402,3.543,3.5771,3.5885,3.5864,0.0,0.0,0.0,0.0,0.0,0.0,0.0,0.0,0.0,0.0,0.0,0.0,0.0,0.0,0.0,0.0,0.0,0.0,0.0,0.0,0.0,0.0,0.0,0.0,0.0,0.0,0.0,0.0,0.0,3.6582,3.6702,3.6702,3.6702,3.6702,3.6502,3.6423,3.6423,3.6339,0.0,0.0,0.0,0.0,0.0,0.0,0.0,0.0,0.0,0.0,0.0,0.0,0.0,3.302,0.0,0.0,0.0,0.0,0.0,0.0,0.0,0.0,0.0,0.0,0.0,0.0,0.0,0.0,0.0,0.0,0.0,0.0,0.0,0.0,0.0,0.0,0.0,0.0,0.0,0.0,0.0,0.0,0.0,0.0,0.0,0.0,0.0,0.0,0.0,3.8122,3.7774,3.7578,3.7321,3.6919,3.6512,3.6067,3.56,3.56,3.56,3.56,3.56,3.5594,3.5543,3.5543,3.5498,3.5406,3.5383,3.5314,3.5222,3.5041,3.4947,3.4923,3.5024,3.5071,3.5095,3.5218,3.5247,3.5224,0.0,0.0,0.0,0.0,0.0,0.0,0.0,0.0,0.0,0.0,0.0,0.0,0.0,0.0,0.0,0.0,0.0,0.0,0.0,0.0,0.0,0.0,0.0,0.0,0.0,0.0,0.0,0.0,0.0,0.0,0.0,0.0,3.6806,3.6786,3.6667,0.0,0.0,0.0,0.0,3.6444,0.0,0.0,3.6444,0.0,0.0,0.0,0.0,0.0,0.0,0.0,0.0,0.0,0.0,0.0,0.0,0.0,0.0,0.0,0.0,0.0,0.0,0.0,0.0,0.0,0.0,0.0,0.0,0.0,0.0,0.0,0.0,0.0,0.0,0.0,0.0,0.0,0.0,0.0,0.0,0.0,0.0,0.0,0.0,0.0,0.0,0.0,0.0,0.0,3.7322,3.7302,3.7038,3.6478,3.6199,3.5915,3.56,3.56,3.5577,3.5571,3.5571,3.552,3.5446,3.5446,3.5383,3.5291,3.5245,3.5222,3.5222,3.5041,3.4947,3.4899,3.4899,3.4899,3.4899,3.4899,3.4899,3.4899,0.0,0.0,0.0,0.0,0.0,0.0,0.0,0.0,0.0,0.0,0.0,0.0,0.0,0.0,0.0,0.0,0.0,0.0,0.0,0.0,0.0,0.0,0.0,0.0,0.0,0.0,0.0,0.0,0.0,0.0,0.0,0.0,3.7007,0.0,3.6869,3.6768,3.6702,0.0,3.6582,3.6702,0.0,3.6702,3.6702,0.0,0.0,0.0,3.7668,3.7066,0.0,0.0,0.0,0.0,0.0,0.0,0.0,0.0,0.0,0.0,0.0,0.0,0.0,0.0,0.0,0.0,0.0,0.0,0.0,0.0,0.0,0.0,0.0,0.0,0.0,0.0,0.0,0.0,0.0,0.0,0.0,0.0,0.0,0.0,0.0,0.0,0.0,0.0,3.8053,3.7897,3.6939,3.688,3.6478,3.5622,3.56,3.56,3.56,3.56,3.5571,3.5492,3.5492,3.5423,3.5291,3.5291,3.5291,3.5268,3.5152,3.5088,3.5088,3.5088,3.5018,3.4899,3.4899,3.4899,3.4899,3.4899,3.4899,3.4899,0.0,0.0,0.0,0.0,0.0,0.0,0.0,0.0,0.0,0.0,0.0,0.0,0.0,0.0,0.0,0.0,0.0,0.0,0.0,0.0,0.0,0.0,0.0,0.0,0.0,0.0,0.0,0.0,0.0,0.0,0.0,0.0,0.0,0.0,3.6869,3.6849,3.6908,3.6725,0.0,0.0,3.6748,3.6745,0.0,0.0,0.0,0.0,0.0,3.7274,0.0,0.0,3.6724,3.6114,0.0,0.0,0.0,0.0,0.0,0.0,3.3881,0.0,0.0,0.0,0.0,0.0,0.0,0.0,0.0,0.0,0.0,0.0,0.0,0.0,0.0,0.0,0.0,0.0,0.0,0.0,0.0,0.0,0.0,0.0,0.0,0.0,0.0,0.0,3.7932,3.7756,3.6516,3.6471,3.6199,3.5622,3.56,3.5594,3.552,3.552,3.5452,3.5354,3.5354,3.5291,3.5152,3.5152,3.5088,3.4994,3.497,3.4947,3.4947,3.4947,3.4923,3.4899,3.4899,3.4899,3.4899,3.4899,3.4899,3.4899,0.0,0.0,0.0,0.0,0.0,0.0,0.0,0.0,0.0,0.0,0.0,0.0,0.0,0.0,0.0,0.0,0.0,0.0,0.0,0.0,0.0,0.0,0.0,0.0,0.0,0.0,0.0,0.0,0.0,0.0,0.0,0.0,0.0,0.0,0.0,0.0,0.0,0.0,0.0,0.0,3.6869,0.0,0.0,3.6869,3.6871,0.0,0.0,0.0,3.7672,3.7883,3.7754,0.0,0.0,0.0,0.0,0.0,0.0,0.0,0.0,0.0,0.0,0.0,0.0,0.0,0.0,3.4612,0.0,0.0,0.0,0.0,0.0,0.0,0.0,0.0,0.0,0.0,0.0,0.0,0.0,0.0,0.0,0.0,0.0,3.6818,3.7183,3.712,3.7703,3.7541,3.6364,3.611,3.5871,3.5622,3.56,3.5571,3.5492,3.552,3.5429,3.5222,3.5268,3.5198,3.5018,3.5018,3.497,3.4899,3.4899,3.4899,3.4899,3.4899,3.4899,3.4899,3.4899,3.4899,3.4899,3.4899,3.4899,3.4899,0.0,0.0,0.0,0.0,0.0,0.0,0.0,0.0,0.0,0.0,0.0,0.0,0.0,0.0,0.0,0.0,0.0,0.0,0.0,0.0,0.0,0.0,0.0,0.0,0.0,0.0,0.0,0.0,0.0,0.0,0.0,0.0,0.0,0.0,0.0,0.0,0.0,0.0,0.0,3.7007,3.7007,3.7007,0.0,0.0,3.7007,0.0,3.7742,3.7602,3.7341,3.8749,3.8443,0.0,0.0,0.0,0.0,0.0,3.3173,0.0,0.0,0.0,0.0,0.0,0.0,0.0,3.4591,3.4583,3.4612,0.0,0.0,0.0,0.0,0.0,0.0,0.0,0.0,0.0,0.0,0.0,0.0,0.0,0.0,0.0,3.5989,3.6666,3.7043,3.6988,3.7283,3.7131,3.6343,3.5849,3.56,3.56,3.56,3.5571,3.5492,3.5549,3.5418,3.5088,3.5222,3.5152,3.4899,3.4899,3.4899,3.4899,3.4899,3.4899,3.4899,3.4899,3.4899,3.4899,3.4899,3.4899,3.4899,3.4899,3.4899,3.4899,0.0,0.0,0.0,0.0,0.0,0.0,0.0,0.0,0.0,0.0,0.0,0.0,0.0,0.0,0.0,0.0,0.0,0.0,0.0,0.0,0.0,0.0,0.0,0.0,0.0,0.0,0.0,0.0,0.0,0.0,0.0,0.0,0.0,0.0,0.0,0.0,0.0,0.0,0.0,3.7007,3.7007,0.0,3.7007,3.7007,3.7007,3.7025,3.7165,3.7496,3.7976,0.0,3.8059,3.7027,0.0,0.0,0.0,0.0,0.0,0.0,0.0,0.0,0.0,0.0,0.0,0.0,3.4517,3.455,3.4612,0.0,0.0,0.0,0.0,0.0,0.0,0.0,0.0,0.0,0.0,0.0,0.0,0.0,0.0,0.0,3.5863,3.6035,3.6334,3.6953,3.6378,3.6092,3.6301,3.5849,3.56,3.56,3.56,3.5571,3.5492,3.5514,3.5383,3.5088,3.5128,3.5058,3.4899,3.4899,3.4899,3.4899,3.4899,3.4899,3.4899,3.4899,3.4899,3.4899,3.4899,3.4899,3.4899,3.4899,3.4899,3.4899,0.0,0.0,0.0,0.0,0.0,0.0,0.0,0.0,0.0,0.0,0.0,0.0,0.0,0.0,0.0,0.0,0.0,0.0,0.0,0.0,0.0,0.0,0.0,0.0,0.0,0.0,0.0,0.0,0.0,0.0,0.0,0.0,0.0,0.0,0.0,0.0,0.0,0.0,3.7007,3.7007,3.7007,0.0,3.7007,3.7007,3.7007,3.7007,3.7007,3.7461,3.8131,3.8333,3.8145,0.0,0.0,3.6556,3.5683,0.0,3.4589,3.424,0.0,0.0,0.0,3.4221,0.0,0.0,0.0,3.4495,3.4517,3.4591,0.0,0.0,0.0,0.0,0.0,0.0,0.0,0.0,0.0,0.0,0.0,0.0,0.0,0.0,3.5505,3.5736,3.6121,3.6876,3.6118,3.5694,3.5937,3.5734,3.56,3.56,3.56,3.5571,3.5492,3.552,3.5389,3.5088,3.5175,3.5088,3.4899,3.4899,3.4899,3.4899,3.4899,3.4899,3.4899,3.4899,3.4899,3.4899,3.4899,3.4899,3.4899,3.4899,3.4899,3.4899,0.0,0.0,0.0,0.0,0.0,0.0,0.0,0.0,0.0,0.0,0.0,0.0,0.0,0.0,0.0,0.0,0.0,0.0,0.0,0.0,0.0,0.0,0.0,3.6851,0.0,0.0,0.0,0.0,0.0,0.0,0.0,0.0,0.0,0.0,0.0,0.0,0.0,0.0,0.0,3.7007,0.0,3.7007,3.7007,3.7007,3.7007,3.7007,3.7007,3.7374,3.7883,3.7883,0.0,3.8266,3.7681,3.7095,0.0,0.0,0.0,0.0,0.0,0.0,0.0,0.0,0.0,3.4328,0.0,0.0,0.0,3.4539,0.0,0.0,0.0,0.0,0.0,0.0,0.0,0.0,0.0,0.0,0.0,0.0,0.0,0.0,0.0,3.5905,3.6416,3.6869,3.6251,3.5752,3.56,3.56,3.56,3.56,3.56,3.5571,3.5492,3.5549,3.5435,3.5088,3.5198,3.5111,3.4899,3.4899,3.4899,3.4899,3.4899,3.4899,3.4899,3.4899,3.4899,3.4899,3.4899,3.4899,3.4899,3.4899,3.4899,3.4899,0.0,0.0,0.0,0.0,0.0,0.0,0.0,0.0,0.0,0.0,0.0,0.0,0.0,0.0,0.0,0.0,0.0,0.0,3.6702,0.0,0.0,0.0,0.0,0.0,3.7007,0.0,0.0,0.0,0.0,0.0,0.0,0.0,0.0,0.0,3.7007,0.0,0.0,0.0,3.7007,0.0,3.7007,3.7007,0.0,3.7007,3.7007,3.7007,3.7007,3.706,3.713,0.0,3.715,3.7232,0.0,3.7452,0.0,0.0,0.0,0.0,0.0,0.0,0.0,0.0,3.4834,0.0,0.0,0.0,3.4397,3.4427,0.0,0.0,0.0,0.0,0.0,0.0,0.0,0.0,0.0,0.0,0.0,0.0,0.0,0.0,0.0,3.6968,3.7506,3.6935,3.6749,3.6349,3.5633,3.56,3.56,3.56,3.56,3.5571,3.5492,3.5514,3.536,3.5088,3.5128,3.5041,3.4899,3.4899,3.4899,3.4899,3.4899,3.4899,3.4899,3.4899,3.4899,3.4899,3.4899,3.4899,3.4899,3.4899,3.4899,3.4899,0.0,0.0,0.0,0.0,0.0,0.0,0.0,0.0,0.0,0.0,0.0,0.0,0.0,0.0,0.0,0.0,0.0,3.6568,0.0,0.0,0.0,0.0,0.0,0.0,0.0,0.0,0.0,0.0,3.7007,0.0,0.0,0.0,0.0,0.0,3.7007,0.0,3.7007,0.0,0.0,0.0,0.0,0.0,0.0,3.7007,3.7007,3.7007,3.7007,3.7007,3.7007,0.0,3.7007,0.0,0.0,0.0,0.0,0.0,0.0,0.0,0.0,0.0,0.0,0.0,0.0,0.0,3.4989,0.0,3.4305,0.0,0.0,0.0,0.0,0.0,0.0,0.0,0.0,0.0,0.0,0.0,0.0,0.0,0.0,0.0,0.0,0.0,0.0,0.0,3.6835,3.6434,3.5633,3.56,3.56,3.56,3.56,3.5577,3.5549,3.5537,3.5383,3.5222,3.5152,3.5018,3.4899,3.4899,3.4899,3.4899,3.4899,3.4899,3.4899,3.4899,3.4899,3.4899,3.4899,3.4899,3.4899,3.4899,3.4899,3.4899,0.0,0.0,0.0,0.0,0.0,0.0,0.0,0.0,0.0,0.0,0.0,0.0,3.6602,3.6544,0.0,0.0,0.0,3.6326,0.0,0.0,3.6547,0.0,0.0,0.0,0.0,0.0,0.0,0.0,0.0,0.0,0.0,0.0,0.0,0.0,0.0,3.6948,3.6869,0.0,0.0,3.6869,3.695,3.7007,3.7007,3.7007,3.7007,3.7007,3.7007,3.7007,3.7007,3.7007,3.7007,0.0,3.7007,0.0,0.0,0.0,0.0,0.0,3.7551,0.0,0.0,0.0,0.0,0.0,0.0,0.0,0.0,0.0,0.0,0.0,0.0,0.0,0.0,0.0,0.0,0.0,0.0,0.0,0.0,0.0,0.0,0.0,0.0,0.0,0.0,3.7047,3.7033,3.6631,3.565,3.56,3.56,3.56,3.56,3.5577,3.5509,3.5475,3.5377,3.5198,3.5088,3.4994,3.4899,3.4899,3.4899,3.4899,3.4899,3.4899,3.4899,3.4899,3.4899,3.4899,3.4899,3.4899,3.4899,3.4899,3.4899,3.4899,0.0,3.5766,0.0,0.0,0.0,0.0,0.0,0.0,0.0,0.0,0.0,0.0,0.0,0.0,0.0,0.0,0.0,3.5929,3.5912,0.0,3.6322,0.0,0.0,3.6849,0.0,0.0,0.0,0.0,0.0,0.0,0.0,0.0,0.0,0.0,0.0,3.6829,3.6544,3.6869,3.6811,3.6544,3.6869,3.7007,3.7007,0.0,3.7007,3.7007,3.7007,0.0,0.0,3.7007,3.7007,0.0,0.0,0.0,0.0,0.0,0.0,0.0,0.0,0.0,0.0,3.7775,0.0,0.0,0.0,0.0,3.5454,0.0,0.0,0.0,0.0,0.0,0.0,0.0,0.0,0.0,0.0,0.0,0.0,0.0,0.0,0.0,0.0,0.0,0.0,3.737,3.7562,3.7071,3.5684,3.56,3.56,3.56,3.56,3.5503,3.5314,3.5314,3.5175,3.4923,3.4899,3.4899,3.4899,3.4899,3.4899,3.4899,3.4899,3.4899,3.4899,3.4899,3.4899,3.4899,3.4899,3.4899,3.4899,3.4899,3.4899,3.4899,0.0,0.0,0.0,0.0,0.0,0.0,0.0,3.5727,0.0,0.0,0.0,0.0,0.0,0.0,3.595,0.0,0.0,3.5661,3.5885,3.6032,0.0,0.0,0.0,3.6831,0.0,0.0,3.7007,3.7007,0.0,0.0,0.0,0.0,0.0,0.0,0.0,3.6811,0.0,0.0,0.0,0.0,0.0,3.6888,3.7182,0.0,3.7007,3.7007,3.7007,3.7007,0.0,3.7007,3.7007,3.7007,3.7007,3.7007,3.7009,3.7127,3.732,3.7542,0.0,0.0,3.7599,3.8205,0.0,0.0,0.0,0.0,0.0,0.0,0.0,0.0,0.0,0.0,0.0,0.0,0.0,0.0,0.0,0.0,0.0,0.0,0.0,0.0,0.0,0.0,0.0,3.7163,3.7028,3.6542,3.5594,3.552,3.552,3.552,3.5452,3.5383,3.5291,3.5222,3.5128,3.5018,3.4947,3.4899,3.4899,3.4899,3.4899,3.4899,3.4899,3.4899,3.4899,3.4899,3.4899,3.4899,3.4899,3.4899,3.4899,3.4899,3.4899,3.4899,3.5678,0.0,0.0,0.0,0.0,0.0,0.0,0.0,0.0,0.0,3.5362,0.0,3.5683,0.0,3.5594,0.0,3.5407,3.5293,3.5526,3.5661,0.0,3.5549,3.6224,0.0,0.0,0.0,3.6594,3.6594,0.0,3.6594,0.0,0.0,0.0,0.0,0.0,0.0,0.0,0.0,3.6092,0.0,0.0,3.6612,0.0,0.0,3.6948,3.7105,0.0,3.7007,3.7007,3.7007,3.7007,3.7007,3.7007,3.7007,3.7007,3.7007,3.7147,3.7357,3.7469,3.7505,0.0,3.8263,3.7849,0.0,3.8018,0.0,0.0,0.0,0.0,0.0,0.0,0.0,0.0,0.0,0.0,0.0,0.0,0.0,0.0,0.0,0.0,0.0,0.0,0.0,3.7266,3.7376,3.705,3.6417,0.0,0.0,3.5423,3.5423,3.5354,3.5268,3.5222,3.5152,3.5081,3.5018,3.4947,3.4899,3.4899,3.4899,3.4899,3.4899,3.4899,3.4899,3.4899,3.4899,3.4899,3.4899,3.4899,3.4899,3.4899,3.4899,3.4899,3.4899,0.0,0.0,0.0,0.0,3.5015,0.0,0.0,0.0,3.4949,0.0,3.4916,3.5024,3.5333,3.5095,3.5024,3.5356,3.5095,0.0,3.4899,3.5195,0.0,0.0,3.5549,3.5732,3.5402,0.0,0.0,0.0,0.0,0.0,0.0,0.0,0.0,0.0,3.5907,0.0,3.5424,3.5732,3.5749,3.5622,3.5941,3.622,3.6464,3.6482,3.6829,3.7259,3.7066,3.7007,3.7007,3.7007,3.7007,3.7007,3.7007,3.7007,3.7007,3.7007,3.7007,3.7068,3.7394,3.7487,3.756,3.7965,3.8068,0.0,0.0,0.0,3.7433,0.0,0.0,0.0,0.0,0.0,0.0,0.0,0.0,0.0,0.0,0.0,0.0,0.0,0.0,0.0,0.0,3.7225,3.7083,3.801,3.7532,3.6636,0.0,0.0,3.5291,3.5291,3.5291,3.5222,3.5088,3.5088,3.5018,3.4899,3.4899,3.4899,3.4899,3.4899,3.4899,3.4899,3.4899,3.4899,3.4899,3.4899,3.4899,3.4899,3.4899,3.4899,3.4899,3.4899,3.4899,3.4899,3.7102,3.7102,3.6986,0.0,3.6539,3.6539,0.0,0.0,0.0,0.0,3.5247,3.4947,3.5024,3.4947,3.4947,3.5024,3.4947,0.0,0.0,0.0,0.0,3.4906,3.5549,3.5732,3.5402,3.5749,0.0,3.5907,0.0,0.0,3.5907,0.0,0.0,0.0,0.0,0.0,3.5402,3.5498,3.5498,3.5447,3.556,3.5859,0.0,0.0,3.6594,3.7145,3.7046,3.7007,3.7007,3.7007,3.7007,3.7007,3.7007,3.7007,3.7007,3.7007,3.7007,3.7009,3.7089,3.7127,3.7206,3.7578,3.765,3.7756,0.0,0.0,0.0,0.0,0.0,0.0,0.0,0.0,0.0,0.0,0.0,0.0,0.0,0.0,0.0,0.0,0.0,0.0,3.7502,3.7264,3.7211,3.7763,3.6463,3.5528,3.5168,0.0,0.0,3.5152,3.5041,3.4994,3.4947,3.4947,3.4923,3.4899,3.4899,3.4899,3.4899,3.4899,3.4899,3.4899,3.4899,3.4899,3.4899,3.4899,3.4899,3.4899,3.4899,3.4899,3.4899,3.4899,3.4899,3.4899,3.8046,0.0,0.0,3.8046,0.0,0.0,3.7201,0.0,0.0,3.6489,3.5843,0.0,3.5379,3.5081,3.4899,3.4899,3.4899,0.0,3.4899,0.0,0.0,3.4899,3.5247,3.5385,3.5188,3.5362,0.0,3.5459,0.0,0.0,3.5459,0.0,0.0,0.0,0.0,3.5385,0.0,3.5327,3.535,3.535,3.5281,0.0,0.0,3.5898,3.622,3.6696,3.6829,3.6987,3.7124,3.7027,3.7007,3.7007,3.7007,3.7007,3.7007,3.7007,3.7007,3.7007,3.7007,3.7007,3.7048,3.7225,3.7281,3.7376,3.7756,3.7844,3.7683,0.0,3.7262,3.7117,0.0,0.0,0.0,0.0,0.0,0.0,0.0,0.0,0.0,0.0,0.0,0.0,3.8525,3.7529,3.7079,3.7667,3.6341,3.5343,0.0,0.0,0.0,3.5018,3.4947,3.4899,3.4899,3.4899,3.4899,3.4899,3.4899,3.4899,3.4899,3.4899,3.4899,3.4899,3.4899,3.4899,3.4899,3.4899,3.4899,3.4899,3.4899,3.4899,3.4899,3.4899,3.4899,3.4899,0.0,0.0,0.0,0.0,0.0,0.0,0.0,3.7317,0.0,3.7251,0.0,3.6141,3.6141,3.5578,3.5148,3.5048,0.0,3.4998,3.4899,3.4899,3.4899,3.4899,3.4899,3.4899,3.4899,3.4899,0.0,0.0,0.0,0.0,0.0,0.0,0.0,0.0,0.0,0.0,0.0,3.5222,3.5268,3.5268,3.5128,3.5251,3.5509,3.5554,3.5783,3.6118,3.6482,3.6869,3.7201,3.7085,3.7027,3.6989,3.7027,3.7027,3.7007,3.7007,3.7007,3.7007,3.7007,3.7007,3.7007,3.7007,3.7007,3.7087,3.7376,3.7432,3.7432,3.7432,3.7721,3.7756,3.7126,0.0,0.0,0.0,0.0,0.0,0.0,0.0,0.0,0.0,0.0,0.0,0.0,3.7989,3.7094,3.766,3.6636,3.5678,0.0,0.0,0.0,3.4899,3.4899,3.4899,3.4899,3.4899,3.4899,3.4899,3.4899,3.4899,3.4899,3.4899,3.4899,3.4899,3.4899,3.4899,3.4899,3.4899,3.4899,3.4899,3.4899,3.4899,3.4899,3.4899,3.4899,3.4899,0.0,0.0,0.0,0.0,0.0,3.9216,3.8967,3.8394,3.803,3.803,3.7384,3.692,3.692,3.6787,3.6473,3.586,3.581,0.0,0.0,0.0,0.0,3.4899,3.4899,3.4899,3.4899,3.4899,3.4899,0.0,3.4899,3.4899,0.0,0.0,0.0,0.0,0.0,0.0,3.5245,3.5041,0.0,3.5128,3.4994,3.497,3.5065,3.5251,3.5583,3.595,3.6067,3.6419,3.6846,3.7143,3.7143,3.7027,3.7201,3.7143,3.7007,3.7007,3.7007,3.7007,3.7007,3.7007,3.7007,3.7007,3.7007,3.7027,3.7068,3.7087,3.7087,3.7087,3.7127,3.7164,3.7009,0.0,0.0,0.0,0.0,0.0,0.0,0.0,0.0,0.0,0.0,0.0,0.0,0.0,0.0,0.0,0.0,3.5678,0.0,0.0,0.0,0.0,3.4899,0.0,0.0,0.0,3.4899,3.4899,3.4899,3.4899,3.4899,3.4899,3.4899,3.4899,3.4899,3.4899,3.4899,3.4899,3.4899,3.4899,3.4899,3.4899,3.4899,3.4899,3.4899,3.4899,0.0,0.0,0.0,0.0,0.0,0.0,0.0,3.9017,0.0,3.8758,3.8129,3.7682,3.7682,3.7334,3.697,3.6605,3.6224,3.5843,3.5495,3.5114,3.4899,3.4899,3.4899,0.0,3.4899,3.4899,3.4899,3.4899,3.4899,3.4899,0.0,0.0,0.0,0.0,0.0,3.5222,0.0,0.0,0.0,3.5344,3.5111,3.5041,3.5128,3.5331,3.5481,3.5627,3.591,3.6165,3.6419,3.6933,3.6989,3.6926,3.7334,3.7259,3.7027,3.7124,3.7085,3.7007,3.7007,3.7007,3.7007,3.7007,3.7007,3.7007,3.7007,3.7007,3.7007,3.7007,3.7007,3.7007,3.7007,3.7007,0.0,0.0,0.0,0.0,0.0,0.0,0.0,0.0,0.0,0.0,0.0,0.0,0.0,0.0,0.0,0.0,0.0,0.0,3.4899,0.0,0.0,0.0,3.4899,0.0,3.4899,3.4899,3.4899,3.4899,3.4899,3.4899,3.4899,3.4899,3.4899,3.4899,3.4899,3.4899,3.4899,3.4899,3.4899,3.4899,3.4899,3.4899,3.4899,3.4899,0.0,3.9299,0.0,0.0,3.9299,0.0,3.9299,3.9299,3.9299,3.9299,3.8775,3.8444,3.8444,3.793,3.75,3.7367,3.6804,3.6406,3.6241,3.5545,3.5131,3.5131,3.4982,3.4899,3.4899,3.4899,3.4899,0.0,3.4899,3.4982,0.0,0.0,0.0,0.0,0.0,0.0,0.0,0.0,3.5251,3.5509,3.5228,3.5152,3.5222,3.54,3.54,3.536,3.5751,3.5888,3.6002,3.6577,3.6774,3.6829,3.7299,3.7298,3.7126,3.722,3.7163,3.7066,3.7007,3.7007,3.7007,3.7007,3.7007,3.7007,3.7007,3.7007,3.7007,3.7007,3.7007,3.7007,3.7007,3.7007,0.0,0.0,0.0,0.0,0.0,0.0,0.0,0.0,0.0,0.0,0.0,0.0,0.0,0.0,0.0,3.5017,3.4916,3.4899,3.4899,0.0,0.0,3.4899,3.4899,0.0,3.4899,3.4899,3.4899,3.4899,3.4899,3.4899,3.4899,3.4899,3.4899,3.4899,3.4899,3.4899,3.4899,3.4899,3.4899,3.4899,3.4899,3.4899,3.4998,3.5131,0.0,0.0,0.0,0.0,0.0,0.0,3.9299,3.9299,3.9299,3.9299,3.9249,3.9199,3.9199,3.9133,3.8808,3.8179,3.8046,3.7715,3.7052,3.6307,3.5893,3.5893,3.5263,3.4899,3.4899,3.4899,3.4899,0.0,3.4899,3.5247,3.5876,0.0,0.0,0.0,0.0,0.0,0.0,3.5088,3.5065,3.5314,3.5158,3.5018,3.497,3.5222,3.5314,3.5314,3.5492,3.5588,3.5711,3.6178,3.6577,3.6898,3.6956,3.7225,3.7484,3.7126,3.7143,3.722,3.7046,3.7007,3.7007,3.7007,3.7007,3.7007,3.7007,3.7007,3.7007,3.7007,3.7007,3.7007,3.7007,3.7007,3.7007,0.0,0.0,0.0,0.0,0.0,0.0,0.0,0.0,0.0,0.0,0.0,0.0,0.0,0.0,3.535,3.4932,3.4899,3.4899,3.4899,3.4899,3.4899,3.4899,3.4899,3.4899,3.4899,3.4899,3.4899,3.4899,3.4899,3.4899,3.4899,3.4899,3.4899,3.4899,3.4899,3.4899,3.4899,3.4899,3.4899,3.4899,3.4899,3.5313,3.5893,0.0,0.0,0.0,0.0,0.0,0.0,0.0,3.9299,3.9299,3.9299,3.9299,3.9299,3.9299,3.9299,3.9183,3.8901,3.846,3.8053,3.7798,3.7069,3.6456,3.6025,3.5727,3.5346,3.4916,3.4899,3.4899,0.0,0.0,3.5048,3.533,3.5032,0.0,0.0,0.0,3.5111,3.5469,3.5065,3.5088,3.5423,3.5268,3.5152,3.5041,3.5314,3.536,3.5314,3.5446,3.5543,3.5622,3.5822,3.6092,3.6471,3.7075,3.7167,3.7105,3.7298,3.7259,3.7105,3.7027,3.7007,3.7007,3.7007,3.7007,3.7007,3.7007,3.7007,3.7007,3.7007,3.7007,3.7007,3.7007,3.7007,3.7007,3.7007,0.0,0.0,0.0,0.0,0.0,0.0,0.0,0.0,0.0,0.0,0.0,0.0,0.0,3.5117,3.4916,3.4899,3.4899,3.4899,0.0,3.4899,3.4899,3.4899,3.4899,3.4899,3.4899,3.4899,3.4899,3.4899,3.4899,3.4899,3.4899,3.4899,3.4899,3.4899,3.4899,3.4899,3.4899,3.4899,3.4949,3.5396,3.5744,3.6059,3.9023,0.0,3.8969,0.0,3.8733,3.8733,3.8733,3.8871,3.9023,3.9023,3.9175,3.9299,3.9299,3.9299,3.9299,3.9299,3.8808,3.8526,3.8526,3.7847,3.7201,3.6671,3.6439,0.0,3.5247,3.5214,3.5114,3.4899,3.4899,3.5015,3.5214,3.5214,3.5162,0.0,3.4947,3.5065,3.5377,3.5041,3.5105,3.5377,3.5314,3.5222,3.5111,3.5337,3.5377,3.5314,3.5423,3.5498,3.5571,3.56,3.5734,3.6045,3.6958,3.7054,3.697,3.7392,3.7354,3.7145,3.7029,3.7007,3.7007,3.7007,3.7007,3.7007,3.7007,3.7007,3.6968,3.6871,3.6851,3.6811,3.6693,3.6693,3.6635,3.6557,0.0,0.0,0.0,0.0,0.0,0.0,3.4358,3.4201,3.4472,0.0,0.0,0.0,0.0,0.0,3.4804,3.478,3.4828,0.0,0.0,0.0,3.4899,3.4899,3.4899,3.4899,3.4899,3.4899,3.4899,3.4899,3.4899,3.4899,3.4899,3.4899,3.4899,3.4899,3.4899,3.4916,3.5131,3.5214,3.5313,3.6059,3.6456,3.6721,3.8306,3.8306,3.8108,3.7546,3.7429,3.7429,3.7429,3.7937,3.8306,3.8306,3.8898,3.9299,3.9299,3.9299,3.9299,3.9299,3.9299,3.9282,3.9282,3.8593,3.8169,0.0,0.0,3.6738,3.6009,3.5992,3.5628,3.4899,0.0,0.0,3.5992,3.5992,3.5595,3.4899,3.4899,3.497,3.5105,3.497,3.497,3.5128,3.5245,3.5222,3.5111,3.5245,3.5291,3.5291,3.5291,3.54,3.5514,3.5594,3.56,3.5717,3.6388,3.6921,3.7285,3.7298,3.7447,3.7503,3.7124,3.7007,3.7007,3.7007,3.7007,3.7007,3.7007,3.7007,3.6908,3.6568,3.6502,3.6364,3.5994,3.5907,3.5825,3.5548,0.0,0.0,0.0,0.0,0.0,0.0,3.4101,3.4201,3.4472,0.0,0.0,0.0,0.0,0.0,0.0,0.0,0.0,3.4899,3.4899,0.0,3.4899,3.4899,3.4899,3.4899,3.4899,3.4899,3.4899,3.4899,3.4899,3.4899,3.4899,3.4899,3.4899,3.4899,3.4899,3.4965,3.5694,3.5992,3.6075,3.682,3.7549,3.8179,3.8974,3.8996,3.8808,3.8187,3.8041,3.7879,3.7458,3.756,3.7693,3.7693,3.8238,3.8618,3.8618,3.9023,3.9299,0.0,3.9299,3.9299,0.0,3.9083,3.8725,3.8228,3.7996,3.7516,3.6771,3.6754,3.639,3.5644,0.0,0.0,0.0,3.5247,3.5114,3.4899,3.4899,3.497,3.5088,3.497,3.497,3.5088,3.5152,3.5152,3.5111,3.5245,3.5291,3.5291,3.5291,3.54,3.5492,3.552,3.552,3.5633,3.6114,3.6536,3.6841,3.6915,3.7164,3.7334,3.7085,3.6831,3.6667,3.6667,3.6451,3.6245,3.6245,3.6468,3.669,3.6829,3.6667,3.6444,3.6322,3.6075,3.5868,3.5781,3.5351,0.0,3.4864,0.0,0.0,0.0,3.4101,3.4126,3.4226,3.4325,0.0,0.0,0.0,0.0,0.0,0.0,0.0,0.0,3.4899,0.0,3.4899,3.4899,3.4899,3.4899,3.4899,3.4899,3.4899,3.4899,3.4899,3.4899,3.4899,3.5181,3.5644,3.5644,3.5959,3.6423,3.6671,3.6754,3.6837,3.7582,3.8013,3.8278,3.8965,3.8968,3.8777,3.812,3.7794,3.7493,3.7111,3.7031,3.7011,3.7011,3.756,3.8051,3.8294,3.8673,0.0,3.9272,3.9299,3.9299,3.9299,3.9299,3.91,3.8626,3.8609,3.8278,3.7533,3.7516,0.0,3.6406,3.6406,3.6042,3.5313,3.5313,3.5164,3.4899,3.4899,3.4947,3.5018,3.4947,3.4947,3.5018,3.5065,3.5088,3.5105,3.5198,3.5222,3.5222,3.5222,3.5268,3.5377,3.5423,3.5423,3.5452,3.5717,3.6071,3.6451,3.6597,3.6796,3.6913,3.6713,3.6468,3.628,3.628,3.6097,3.5907,3.5907,3.6097,3.6301,3.6367,3.6237,3.6045,3.5915,3.57,3.5504,3.5397,3.5068,3.4778,3.4682,0.0,3.3797,0.0,0.0,0.0,0.0,3.4151,3.4226,0.0,0.0,0.0,0.0,0.0,3.4804,3.4899,3.4899,3.4899,3.4899,3.4899,3.4899,3.4899,3.4899,3.4899,3.4916,3.5181,3.5313,3.533,3.5611,3.5992,3.6406,3.6406,3.6688,3.7135,3.7417,3.7516,3.7615,3.8344,3.8609,3.8676,3.8468,3.8455,3.8259,0.0,3.7004,3.6603,3.6525,3.6444,3.6398,3.6352,3.6936,3.7531,3.8108,3.8266,3.8562,3.9175,0.0,0.0,3.9299,3.9299,3.9299,3.9299,3.9299,3.8984,3.8295,3.8295,3.793,3.7185,3.7135,3.6754,3.6075,3.6075,3.5711,3.5048,3.4998,3.4982,3.4965,3.4916,3.4899,3.4923,3.5058,3.5088,3.5088,3.5088,3.5088,3.5088,3.5088,3.5088,3.5128,3.5245,3.5291,3.5291,3.5291,3.5644,3.6075,3.6287,3.6354,3.6354,3.6139,3.5972,3.5864,3.5864,3.5842,3.5842,3.5864,3.5864,3.5776,3.5498,3.5424,3.531,3.4977,3.4923,3.4828,3.457,3.4521,3.4448,3.4201,3.3899,3.3822,0.0,0.0,0.0,3.4025,3.3873,3.3949,0.0,0.0,0.0,0.0,0.0,3.4643,3.4899,3.4899,3.4899,3.4899,3.4899,3.4899,3.4899,3.4949,3.4982,3.4998,3.5744,3.6075,3.6108,3.6804,3.7135,3.7185,3.7185,3.7218,3.7317,3.8013,3.8295,3.8361,3.905,3.9299,3.9299,0.0,0.0,3.8947,3.8292,3.8058,3.7603,3.6652,3.6475,3.6273,3.5776,3.6258,3.6692,3.6829,3.7706,3.8379,3.8535,3.8996,3.9299,3.9299,3.9299,3.9299,3.9299,3.9299,3.9232,3.905,3.905,3.8676,3.7947,3.7384,3.7019,3.6837,3.6837,3.6754,3.6555,3.5992,3.5744,3.5694,3.5131,3.4899,3.4899,3.4923,3.4994,3.5088,3.5088,3.5088,3.5088,3.5088,3.5088,3.5088,3.5152,3.5222,3.5268,3.5175,3.5297,3.5532,3.5739,3.6075,3.6333,3.6037,3.5749,3.5521,3.5521,3.5333,3.5195,3.5453,3.5521,3.5588,3.5749,3.5571,3.5379,3.5287,3.5071,3.4875,3.4828,3.4804,3.478,3.4715,3.43,3.4025,0.0,3.3797,3.3658,3.3771,3.4101,3.4349,0.0,0.0,0.0,3.4899,3.4851,3.4828,3.4899,3.4899,3.4899,3.4899,3.4899,3.4899,3.4899,3.5462,3.5744,3.576,3.6506,3.6837,3.6854,3.7036,3.7433,3.7947,3.7947,3.8278,3.8801,3.8984,3.905,3.9067,3.9232,3.9299,3.9299,3.9388,3.9395,3.9299,3.8927,3.8601,3.8179,3.7473,3.6866,3.6357,3.5998,3.5993,3.6085,3.6368,3.7011,3.7677,3.825,3.8898,3.9299,3.9299,3.9299,3.9299,3.9299,3.9299,3.9299,3.9299,3.9299,3.91,3.8692,3.8295,3.793,3.7615,3.7615,3.7433,3.7085,3.6688,3.6506,3.6489,3.6075,3.5711,3.5396,3.5396,3.5245,3.4994,3.4994,3.4994,3.4994,3.4994,3.4994,3.4994,3.4994,3.5065,3.5128,3.5088,3.5152,3.5245,3.5344,3.5583,3.5788,3.5571,3.5356,3.5171,3.5171,3.5024,3.4947,3.5142,3.5171,3.5218,3.5407,3.531,3.5171,3.5171,3.5024,3.4899,3.4899,3.4899,3.4811,3.457,3.4275,3.405,3.3924,3.3771,3.3761,3.3873,3.4151,3.4374,3.4497,3.4618,0.0,3.4899,3.4899,3.4899,3.4899,3.4899,3.4899,3.4899,3.523,3.5396,3.5413,3.6158,3.6506,3.6539,3.7284,3.7615,3.7632,3.7963,3.8328,3.8692,3.8692,3.895,3.9299,3.9299,3.9299,3.9299,3.9299,3.9299,3.9299,3.9388,3.9388,3.9388,3.9388,3.8931,3.8512,3.8407,3.7464,3.6701,3.6507,3.5998,3.5821,3.6211,3.6337,3.6829,3.7908,3.8634,3.9067,3.9148,3.9148,3.9148,3.9148,3.9148,3.9202,3.9299,3.9202,3.9148,3.9148,3.9148,3.8877,3.8377,3.8377,3.803,3.7433,3.7317,3.7284,3.7268,3.7152,3.6738,3.6174,3.6174,3.5794,3.5214,3.5098,3.5065,3.5048,3.4932,3.4899,3.4899,3.4899,3.4899,3.4923,3.5018,3.5065,3.5065,3.5065,3.5065,3.5065,3.5065,3.4994,3.4899,3.4899,3.4899,3.4899,3.4899,3.4899,3.4899,3.4899,3.4899,3.4899,3.4899,3.4899,3.4899,3.4899,3.4875,3.4667,3.4226,0.0,3.4025,3.3771,3.3745,3.3873,3.4126,3.4126,3.4226,3.4472,3.4448,3.4546,3.4828,3.4851,3.4875,3.4899,3.4899,3.4949,3.5048,3.5694,3.6059,3.6174,3.692,3.7284,3.7301,3.803,3.8377,3.8411,3.9033,3.9299,3.9299,3.9299,3.9299,3.9299,3.9299,3.9299,3.9299,3.9299,3.9299,3.9299,3.9388,3.9388,3.9388,3.9388,3.9334,3.9065,3.8482,3.8227,3.7704,3.6626,3.6402,3.6151,3.5679,3.6085,3.6492,3.6692,3.731,3.7924,3.8407,3.8463,3.8463,3.8463,3.8463,3.8717,3.9299,3.8745,3.8463,3.8463,3.8463,3.8695,3.9133,3.9133,3.9083,3.8934,3.8311,3.8046,3.7971,3.7367,3.7036,3.6936,3.6936,3.687,3.6688,3.6075,3.5827,3.5744,3.5114,3.4899,3.4899,3.4899,3.4899,3.4899,3.4923,3.4923,3.4923,3.4923,3.4923,3.4923,3.4923,3.4923,3.4899,3.4899,3.4899,3.4899,3.4899,3.4899,3.4899,3.4899,3.4899,3.4899,3.4899,3.4899,3.4899,3.4899,3.4707,3.4521,3.4448,0.0,3.4075,3.405,3.405,3.4151,3.4423,3.4226,3.4226,3.4472,3.43,3.4275,3.4546,3.4546,3.4667,3.4899,3.4899,3.5197,3.5827,3.5943,3.6307,3.6953,3.7698,3.8046,3.8037,3.8775,3.9133,3.9149,3.9249,3.9299,3.9299,3.9299,3.9299,3.9299,3.9299,3.9299,3.9299,3.9299,3.9299,3.9299,3.9228,3.9337,3.9388,3.9388,3.9388,3.932,3.899,3.8631,3.8182,3.7584,3.6911,3.6372,3.6073,3.5976,3.6053,3.6368,3.6692,3.6981,3.7265,3.7618,3.7822,3.7822,3.8137,3.8435,3.8745,3.8463,3.8137,3.7822,3.7822,3.7982,3.8282,3.8282,3.8451,3.8756,3.8417,3.8449,3.8758,3.8427,3.8063,3.7673,3.7673,3.7441,3.7069,3.6721,3.6605,3.6506,3.576,3.5495,3.5429,3.5032,3.4899,3.4899,3.4899,3.4899,3.4899,3.4899,3.4899,3.4899,3.4899,3.4899,3.4899,3.4899,3.4899,3.4899,3.4899,3.4899,3.4899,3.4899,3.4899,3.4899,3.4899,3.4899,3.4899,3.4899,3.4804,3.4667,3.4521,3.4275,3.405,3.3899,3.3873,3.3924,3.405,3.4101,3.4226,3.4472,3.4399,3.4423,3.4691,3.4732,3.4945,3.5479,3.5495,3.5843,3.6589,3.7003,3.7367,3.7715,3.8444,3.8775,3.8791,3.9149,3.9299,3.9299,3.9299,3.9299,3.9299,3.9299,3.9299,3.9299,3.9299,3.9299,3.9299,3.9299,3.9299,3.9299,3.9017,3.9177,3.9337,3.9337,3.9373,3.9388,3.9388,3.8975,3.8571,3.8407,3.7539,3.6866,3.6716,3.6118,3.5909,3.6377,3.6287,3.6196,3.6196,3.6662,3.7011,3.7161,3.7764,3.8023,3.7851,3.7851,3.7618,3.7161,3.7161,3.7251,3.7399,3.7399,3.7648,3.808,3.808,3.8395,3.8887,3.8996,3.8737,3.8243,3.8391,3.8112,3.7582,3.7433,3.7367,3.7268,3.6522,3.6257,3.6141,3.5396,3.5148,3.5131,3.4949,3.4899,3.4899,3.4899,3.4899,3.4899,3.4899,3.4899,3.4899,3.4899,3.4899,3.4899,3.4899,3.4899,3.4899,3.4899,3.4899,3.4899,3.4899,3.4899,3.4899,3.4899,0.0,3.4715,3.4448,3.4226,3.4,3.372,3.3797,3.3873,3.3873,3.4075,3.4275,3.4472,3.4448,3.4603,3.5051,3.5051,3.5513,3.6489,3.6357,3.6622,3.7367,3.793,3.8295,3.846,3.9033,3.9299,3.9299,3.9299,3.9299,3.9299,3.9299,3.9299,3.9299,3.9299,3.9299,3.9299,3.9299,3.9299,3.9299,3.9299,3.9299,3.9299,3.8819,3.898,3.9104,3.9104,3.9265,3.9388,3.9388,3.9379,3.911,3.8467,3.8302,3.8018,3.7404,3.6791,3.645,3.6469,3.5914,3.5569,3.5569,3.5619,3.5878,3.6461,3.7101,3.7191,3.6538,3.6538,3.6508,3.6461,3.6461,3.6784,3.7399,3.7399,3.7429,3.7488,3.7488,3.7488,3.7576,3.8153,3.8346,3.837,3.8968,3.9199,3.9067,3.8377,3.8103,3.8004,3.7284,3.7036,3.692,3.6174,3.5926,3.5794,3.5114,3.4899,3.4899,3.4899,3.4899,3.4899,3.4899,3.4899,3.4899,3.4899,3.4899,3.4899,3.4899,3.4899,3.4899,3.4899,3.4899,3.4899,3.4899,3.4899,3.4899,3.4899,0.0,0.0,3.4176,3.4126,3.4,3.372,3.4151,3.4448,3.4448,3.4448,3.4472,3.4497,3.4275,3.4543,3.5505,3.5563,3.6321,3.7987,3.7384,3.7384,3.8129,3.8179,3.8543,3.9232,3.9282,3.9299,3.9299,3.9299,3.9299,3.9299,3.9299,3.9299,3.9299,3.9299,3.9299,3.9299,3.9299,3.9299,3.9299,3.9299,3.9299,3.9299,3.8612,3.876,3.8907,3.8907,3.9068,3.9228,3.9228,3.9301,3.9334,3.9065,3.8661,3.8287,3.8048,3.7449,3.6911,3.6522,3.6252,3.5938,3.5534,3.5504,3.5765,3.6368,3.6631,3.6662,3.6399,3.6399,3.6227,3.5861,3.5861,3.5973,3.6227,3.6227,3.6399,3.6784,3.6784,3.7221,3.7966,3.8193,3.8535,3.8925,3.9202,3.9299,3.9265,3.9,3.8874,3.8775,3.8063,3.7798,3.7682,3.6936,3.6688,3.6555,3.581,3.5578,3.5495,3.5032,3.4899,3.4899,3.4899,3.4899,3.4899,3.4899,3.4899,3.4899,3.4899,3.4899,3.4899,3.4899,3.4899,3.4899,3.4899,3.4899,3.4899,3.4899,0.0,3.4715,3.4618,3.4448,3.4325,3.4201,3.4226,3.425,3.425,3.425,3.4504,3.5152,3.5085,3.5471,3.6462,3.6966,3.7529,3.8169,3.8361,3.8619,3.8874,3.8874,3.9033,3.9299,3.9299,3.9299,3.9299,3.9299,3.9299,3.9299,3.9299,3.9299,3.9299,3.9299,3.9299,3.9299,3.9299,3.9299,3.9299,3.9299,3.9299,3.9299,3.8404,3.859,3.8723,3.8723,3.887,3.9017,3.9017,3.9104,3.9228,3.9301,3.8934,3.8635,3.8721,3.8123,3.7539,3.712,3.6896,3.6507,3.5863,3.5624,3.5668,3.6116,3.6116,3.6116,3.6116,3.6116,3.591,3.5504,3.5504,3.5504,3.5504,3.5504,3.5701,3.6116,3.6116,3.66,3.7442,3.7851,3.8266,3.8733,3.9148,3.9299,3.9299,3.9299,3.9299,3.9232,3.8725,3.8543,3.8427,3.7698,3.7466,3.7334,3.6589,3.6191,3.5909,3.5396,3.5081,3.4899,3.4899,3.4899,3.4899,3.4899,3.4899,3.4899,3.4899,3.4899,3.4899,3.4899,3.4899,3.4899,3.4899,3.4899,3.4899,3.4899,3.4899,3.4875,3.4804,3.4546,3.4374,3.4374,3.4226,3.4207,3.4551,3.4551,3.4935,3.5831,3.5845,3.6198,3.7117,3.7946,3.8411,3.8411,3.898,3.9299,3.9299,3.9299,3.9299,3.9299,3.9299,3.9299,3.9299,3.9299,3.9299,3.9299,3.9299,3.9299,3.9299,3.9299,3.9299,3.9299,3.9299,3.9299,3.9299,3.9299,3.9299,3.9299,3.8202,3.8366,3.8478,3.8478,3.8649,3.8782,3.8782,3.8782,3.887,3.9068,3.9104,3.9177,3.9373,3.8811,3.8392,3.8392,3.7793,3.715,3.6537,3.5878,3.5504,3.5504,3.5504,3.5504,3.5504,3.5504,3.5504,3.5504,3.5504,3.5504,3.5504,3.5504,3.5504,3.5504,3.5504,3.5504,3.5587,3.6875,3.7399,3.7517,3.8788,3.9299,3.9299,3.9299,3.9299,3.9299,3.9299,3.9299,3.9199,3.846,3.8228,3.8096,3.735,3.6605,3.6009,3.6009,3.5495,3.4916,3.4916,3.4916,3.4899,3.4899,3.4899,3.4899,3.4899,3.4899,3.4899,3.4899,3.4899,3.4899,3.4899,3.4899,3.4899,3.4899,3.4899,3.4787,3.4546,3.4275,3.4101,3.4117,3.4101,3.4493,3.5504,3.5544,3.5805,3.6551,3.6371,3.6535,3.729,3.8264,3.8805,3.8805,3.9121,3.9299,3.9299,3.9299,3.9299,3.9299,3.9299,3.9299,3.9299,3.9299,3.9299,3.9299,3.9299,3.9299,3.9299,3.9299,3.9299,3.9299,3.9299,3.9299,3.9299,3.9299,3.9299,3.9299,3.8202,3.824,3.8277,3.8277,3.8478,3.859,3.859,3.8723,3.8819,3.887,3.8907,3.8907,3.898,3.8926,3.8686,3.8225,3.8142,3.7644,3.6552,3.6297,3.5983,3.5534,3.5504,3.5504,3.5504,3.5504,3.5504,3.5504,3.5504,3.5504,3.5504,3.5504,3.5504,3.5504,3.5504,3.5733,3.6164,3.6554,3.6981,3.7488,3.8266,3.859,3.859,3.859,3.8898,3.9245,3.8772,3.8898,3.9265,3.905,3.8984,3.8825,3.8112,3.7384,3.6771,3.6771,3.6622,3.634,3.581,3.5678,3.5545,3.5032,3.4899,3.4899,3.4899,3.4899,3.4899,3.4899,3.4899,3.4899,3.4899,3.4899,3.4899,3.4899,3.4739,3.4594,3.4521,3.4275,3.4279,3.4755,3.4998,3.5368,3.5954,3.616,3.6506,3.7053,3.7496,3.8007,3.8656,3.8772,3.8914,3.9148,3.9245,3.9299,3.9299,3.9299,3.9299,3.9299,3.9299,3.9299,3.9299,3.9299,3.9299,3.9299,3.9299,3.9299,3.9299,3.9299,3.9299,3.9299,3.9299,3.9299,3.9299,3.9299,3.9299,3.9299,3.8202,3.8202,3.8202,3.8202,3.8277,3.8366,3.8366,3.8501,3.8612,3.8686,3.8686,3.8723,3.8782,3.8907,3.8832,3.8396,3.8344,3.7958,3.7197,3.6967,3.6567,3.5923,3.5893,3.5774,3.5504,3.5504,3.5504,3.5504,3.5504,3.5504,3.5504,3.5504,3.5504,3.5504,3.5504,3.5701,3.6053,3.629,3.6631,3.7041,3.7677,3.7937,3.7966,3.8193,3.8379,3.8523,3.8351,3.8423,3.8579,3.8816,3.9094,3.9232,3.8775,3.8129,3.7549,3.7549,3.7334,3.7003,3.6555,3.6439,3.634,3.5876,3.533,3.4899,3.4899,3.4899,3.4899,3.4899,3.4899,3.4899,3.4899,3.5131,3.5346,3.5346,3.5456,3.5515,3.5515,3.5315,3.5326,3.5827,3.5969,3.6289,3.693,3.7016,3.723,3.7695,3.8149,3.856,3.892,3.8849,3.8887,3.9094,3.9245,3.9299,3.9299,3.9299,3.9299,3.9299,3.9299,3.9299,3.9299,3.9299,3.9299,3.9299,3.9299,3.9299,3.9299,3.9299,3.9299,3.9299,3.9299,3.9299,3.9299,3.9299,3.9299,3.9299,3.8202,3.8202,3.8202,3.8202,3.8202,3.8202,3.8202,3.8202,3.8277,3.8441,3.8478,3.8538,3.8723,3.8745,3.8745,3.8745,3.8411,3.8163,3.8103,3.7665,3.7191,3.6563,3.6533,3.6267,3.5609,3.5534,3.5504,3.5504,3.5504,3.5504,3.5504,3.5504,3.5504,3.5504,3.5504,3.5504,3.5537,3.6085,3.6321,3.6368,3.7041,3.731,3.737,3.7908,3.7822,3.7458,3.7937,3.7822,3.7488,3.8108,3.8717,3.9202,3.9272,3.8825,3.8311,3.8311,3.7831,3.7284,3.7218,3.7201,3.7185,3.7119,3.6092,3.5098,3.5098,3.505,3.5009,3.5081,3.5098,3.5098,3.5098,3.5644,3.6108,3.6108,3.6646,3.7051,3.7051,3.6847,3.6786,3.7083,3.6946,3.7173,3.8097,3.7892,3.7883,3.8399,3.8391,3.8391,3.8476,3.8683,3.8805,3.8832,3.9148,3.9299,3.9299,3.9299,3.9299,3.9299,3.9299,3.9299,3.9299,3.9299,3.9299,3.9299,3.9299,3.9299,3.9299,3.9299,3.9299,3.9299,3.9299,3.9299,3.9299,3.9299,3.9299,3.9299,3.8202,3.8202,3.8202,3.8202,3.8202,3.8202,3.8202,3.8202,3.8202,3.824,3.8277,3.8277,3.8315,3.8464,3.859,3.859,3.8642,3.8442,3.7889,3.7763,3.7479,3.6981,3.6985,3.6756,3.6282,3.5774,3.5504,3.5504,3.5504,3.5504,3.5504,3.5504,3.5504,3.5504,3.5504,3.5504,3.5504,3.5651,3.5716,3.5733,3.6368,3.66,3.6631,3.6753,3.7041,3.734,3.6951,3.7071,3.7488,3.8108,3.8407,3.8618,3.9121,3.9199,3.9067,3.9067,3.8967,3.8718,3.8129,3.7954,3.7831,3.7251,3.687,3.6622,3.6622,3.6219,3.5997,3.6505,3.6622,3.6622,3.6622,3.6754,3.687,3.687,3.6825,3.6795,3.6795,3.6561,3.6582,3.7172,3.7441,3.7682,3.7939,3.7706,3.7857,3.8667,3.8274,3.8331,3.9083,3.8903,3.8914,3.9175,3.9272,3.9299,3.9299,3.9299,3.9299,3.9299,3.9299,3.9299,3.9299,3.9299,3.9299,3.9299,3.9299,3.9299,3.9299,3.9299,3.9299,3.9299,3.9299,3.9299,3.9299,3.9299,3.9299,3.9299,3.8202,3.8202,3.8202,3.8202,3.8202,3.8202,3.8202,3.8202,3.8202,3.8202,3.8202,3.8202,3.8202,3.8277,3.8366,3.8366,3.8538,3.8502,3.8179,3.8208,3.8037,3.7458,3.7429,3.7238,3.6786,3.6428,3.6018,3.5504,3.5504,3.5504,3.5504,3.5504,3.5504,3.5504,3.5504,3.5504,3.5504,3.5504,3.5504,3.5537,3.5846,3.5973,3.599,3.629,3.643,3.6492,3.643,3.6845,3.7399,3.7383,3.7793,3.8322,3.8367,3.8395,3.8395,3.8395,3.8395,3.8386,3.8275,3.8259,3.8177,3.7756,3.747,3.721,3.7124,3.6814,3.6669,3.7026,3.7102,3.7102,3.7102,3.74,3.7632,3.7632,3.781,3.7893,3.7718,3.7584,3.7633,3.7965,3.8057,3.8093,3.8128,3.802,3.8135,3.8572,3.8444,3.85,3.8865,3.8821,3.8805,3.8865,3.8985,3.9067,3.9067,3.9218,3.9299,3.9299,3.9299,3.9299,3.9299,3.9299,3.9299,3.9299,3.9299,3.9299,3.9299,3.9299,3.9299,3.9299,3.9299,3.9299,3.9299,3.9299,3.9299,3.9299,3.8202,3.8202,3.8202,3.8202,3.8202,3.8202,3.8202,3.8202,3.8202,3.8202,3.8202,3.8202,3.8202,3.8202,3.8202,3.8202,3.8366,3.8441,3.8441,3.8612,3.8473,3.7943,3.7914,3.7691,3.7232,3.7218,3.6718,3.5669,3.5669,3.5609,3.5504,3.5504,3.5504,3.5504,3.5504,3.5504,3.5504,3.5504,3.5504,3.5504,3.5504,3.5504,3.5554,3.6053,3.5941,3.5569,3.6085,3.66,3.7027,3.6538,3.7086,3.7908,3.7501,3.7399,3.7399,3.7399,3.7399,3.7517,3.7994,3.8137,3.8137,3.8108,3.7706,3.7303,3.7079,3.7098,3.7192,3.727,3.7364,3.739,3.7483,3.7928,3.8299,3.8299,3.8848,3.9175,3.886,3.886,3.8887,3.8887,3.8616,3.842,3.8532,3.842,3.8391,3.8532,3.8711,3.8722,3.856,3.8766,3.8794,3.856,3.8766,3.8887,3.8887,3.9148,3.9299,3.9299,3.9299,3.9299,3.9299,3.9299,3.9299,3.9299,3.9299,3.9299,3.9299,3.9299,3.9299,3.9299,3.9299,3.9299,3.9299,3.9299,3.9299,3.9299,3.8202,3.8202,3.8202,3.8202,3.8202,3.8202,3.8202,3.8202,3.8202,3.8202,3.8202,3.8202,3.8202,3.8202,3.8202,3.8202,3.8202,3.824,3.824,3.8277,3.8323,3.8384,3.8421,3.8187,3.7706,3.7691,3.7247,3.6357,3.6357,3.6058,3.5504,3.5504,3.5504,3.5504,3.5504,3.5504,3.5504,3.5504,3.5504,3.5504,3.5504,3.5504,3.5504,3.5587,3.5569,3.5504,3.5587,3.5683,3.5829,3.6258,3.6508,3.6738,3.7251,3.7399,3.7399,3.7399,3.7399,3.7429,3.7517,3.7501,3.7472,3.7294,3.7205,3.7098,3.6878,3.7128,3.7492,3.8031,3.8384,3.8662,3.8947,3.8853,3.8712,3.8712,3.9044,3.9175,3.886,3.904,3.9245,3.9245,3.8727,3.8588,3.9137,3.8444,3.8286,3.911,3.8958,3.8914,3.9164,3.9218,3.9218,3.9191,3.9218,3.9245,3.9245,3.9272,3.9299,3.9299,3.9299,3.9299,3.9299,3.9299,3.9299,3.9299,3.9299,3.9299,3.9299,3.9299,3.9299,3.9299,3.9299,3.9299,3.9299,3.9299,3.9299,3.9299,3.8202,3.8202,3.8202,3.8202,3.8202,3.8202,3.8202,3.8202,3.8202,3.8202,3.8202,3.8202,3.8202,3.8202,3.8202,3.8202,3.8202,3.8202,3.8202,3.8202,3.824,3.8329,3.8329,3.8295,3.8201,3.8187,3.7876,3.7243,3.6941,3.6585,3.6058,3.6058,3.5863,3.5504,3.5504,3.5504,3.5504,3.5504,3.5504,3.5504,3.5504,3.5504,3.5504,3.5504,3.5504,3.5504,3.5504,3.5716,3.599,3.591,3.6101,3.6399,3.6352,3.6352,3.6352,3.6352,3.6352,3.6399,3.6753,3.6829,3.6814,3.6723,3.6723,3.66,3.618,3.6477,3.6951,3.7381,3.7822,3.8096,3.7921,3.7777,3.769,3.769,3.8067,3.8226,3.7895,3.8242,3.8472,3.8319,3.8363,3.8363,3.829,3.8234,3.8274,3.8483,3.8694,3.8639,3.8258,3.8427,3.8427,3.8258,3.8427,3.8694,3.9013,3.9218,3.9299,3.9299,3.9299,3.9299,3.9299,3.9299,3.9299,3.9299,3.9299,3.9299,3.9299,3.9299,3.9299,3.9299,3.9299,3.9299,3.9299,3.9299,3.9299,3.9299]}]]